[[{"header":{"parameterUnit":"m.s-1","parameterCategory":1,"la1":30.6,"la2":29.2853,"lo1":-89.7004,"lo2":-87.6739,"dy":0.0162,"dx":0.0183,"nx":112,"ny":82,"refTime":"2024-06-24T00:00:00:Z","depth":0,"parameterNumber":2,"parameterNumberName":"U-component_of_WINDS"},"data":[0.0,0.0,0.0,0.0,0.0,0.0,0.0,0.0,0.0,0.0,0.0,0.0,0.0,0.0,0.0,0.0,0.0,0.0,0.0,0.0,0.0,0.0,0.0,0.0,0.0,0.0,0.0,0.0,0.0,0.0,0.0,0.0,0.0,0.0,0.0,0.0,0.0,0.0,0.0,0.0,0.0,0.0,0.0,0.0,0.0,0.0,0.0,0.0,0.0,0.0,0.0,0.0,0.0,0.0,0.0,0.0,0.0,0.0,0.0,0.0,0.0,0.0,0.0,0.0,0.0,0.0,0.0,0.0,0.0,0.0,0.0,0.0,0.0,0.0,0.0,0.0,0.0,0.0,0.0,0.0,0.0,0.0,0.0,0.0,0.0,0.0,0.0,0.0,0.0,0.0,-2.2507,-2.3878,-2.4103,-2.4112,-2.4112,-2.3502,-2.2799,-2.2165,0.0,0.0,0.0,0.0,0.0,0.0,0.0,0.0,0.0,0.0,0.0,0.0,0.0,0.0,0.0,0.0,0.0,0.0,0.0,0.0,0.0,0.0,0.0,0.0,0.0,0.0,0.0,0.0,0.0,0.0,0.0,0.0,0.0,0.0,0.0,0.0,0.0,0.0,0.0,0.0,0.0,0.0,0.0,0.0,0.0,0.0,0.0,0.0,0.0,0.0,0.0,0.0,0.0,0.0,0.0,0.0,0.0,0.0,0.0,0.0,0.0,0.0,0.0,0.0,0.0,0.0,0.0,0.0,0.0,0.0,0.0,0.0,0.0,0.0,0.0,0.0,0.0,0.0,0.0,0.0,0.0,0.0,0.0,0.0,0.0,0.0,0.0,0.0,0.0,0.0,0.0,0.0,0.0,0.0,0.0,0.0,0.0,0.0,0.0,0.0,0.0,0.0,0.0,0.0,-2.3226,-2.3994,-2.4106,-2.4112,-2.4112,-2.3502,-2.2837,-2.2167,0.0,0.0,0.0,0.0,0.0,0.0,0.0,0.0,0.0,0.0,0.0,0.0,0.0,0.0,0.0,0.0,0.0,0.0,0.0,0.0,0.0,0.0,0.0,0.0,0.0,0.0,0.0,0.0,0.0,0.0,0.0,0.0,0.0,0.0,0.0,0.0,0.0,0.0,0.0,0.0,0.0,0.0,0.0,0.0,0.0,0.0,0.0,0.0,0.0,0.0,0.0,0.0,0.0,0.0,0.0,0.0,0.0,0.0,0.0,0.0,0.0,0.0,0.0,0.0,0.0,0.0,0.0,0.0,0.0,0.0,0.0,0.0,0.0,0.0,0.0,0.0,0.0,0.0,0.0,0.0,0.0,0.0,0.0,0.0,0.0,0.0,0.0,0.0,0.0,0.0,0.0,0.0,0.0,0.0,0.0,0.0,0.0,0.0,0.0,0.0,0.0,0.0,0.0,-2.3641,-2.4128,-2.4093,-2.4112,-2.4112,-2.4112,-2.382,-2.3379,-2.269,-2.1565,0.0,0.0,0.0,0.0,0.0,0.0,0.0,0.0,0.0,0.0,0.0,0.0,0.0,0.0,0.0,0.0,0.0,0.0,0.0,0.0,0.0,0.0,0.0,0.0,0.0,0.0,0.0,0.0,0.0,0.0,0.0,0.0,0.0,0.0,0.0,0.0,0.0,0.0,0.0,0.0,0.0,0.0,0.0,0.0,0.0,0.0,0.0,0.0,0.0,0.0,0.0,0.0,0.0,0.0,0.0,0.0,0.0,0.0,0.0,0.0,0.0,0.0,0.0,0.0,0.0,0.0,0.0,0.0,0.0,0.0,0.0,0.0,0.0,0.0,0.0,0.0,0.0,0.0,0.0,0.0,0.0,0.0,0.0,0.0,0.0,0.0,0.0,0.0,0.0,0.0,0.0,0.0,0.0,0.0,0.0,0.0,0.0,0.0,0.0,0.0,0.0,0.0,-2.461,-2.4983,-2.44,-2.4151,-2.4138,-2.4321,-2.4151,-2.3774,-2.2896,-2.1961,0.0,0.0,0.0,0.0,0.0,0.0,0.0,0.0,0.0,0.0,0.0,0.0,0.0,0.0,0.0,0.0,0.0,0.0,0.0,0.0,0.0,0.0,0.0,0.0,0.0,0.0,0.0,0.0,0.0,0.0,0.0,0.0,0.0,0.0,0.0,0.0,0.0,0.0,0.0,0.0,0.0,0.0,0.0,0.0,0.0,0.0,0.0,0.0,0.0,0.0,0.0,0.0,0.0,0.0,0.0,0.0,0.0,0.0,0.0,0.0,0.0,0.0,0.0,0.0,0.0,0.0,0.0,0.0,0.0,0.0,0.0,0.0,0.0,0.0,0.0,0.0,0.0,0.0,0.0,0.0,0.0,0.0,0.0,0.0,0.0,0.0,0.0,0.0,0.0,0.0,0.0,0.0,0.0,0.0,0.0,0.0,0.0,0.0,0.0,0.0,0.0,0.0,-2.5045,-2.5555,-2.4997,-2.4445,-2.4334,-2.489,-2.4432,-2.3543,-2.2274,-2.1723,0.0,0.0,0.0,0.0,0.0,0.0,0.0,0.0,0.0,0.0,0.0,0.0,0.0,0.0,0.0,0.0,0.0,0.0,0.0,0.0,0.0,0.0,0.0,0.0,0.0,0.0,0.0,0.0,0.0,0.0,0.0,0.0,0.0,0.0,0.0,0.0,0.0,0.0,0.0,0.0,0.0,0.0,0.0,0.0,0.0,0.0,0.0,0.0,0.0,0.0,0.0,0.0,0.0,0.0,0.0,0.0,0.0,0.0,0.0,0.0,0.0,0.0,0.0,0.0,0.0,0.0,0.0,0.0,0.0,0.0,0.0,0.0,0.0,0.0,0.0,0.0,0.0,0.0,0.0,0.0,0.0,0.0,0.0,0.0,0.0,0.0,0.0,0.0,0.0,0.0,0.0,0.0,0.0,0.0,0.0,0.0,0.0,0.0,0.0,0.0,0.0,0.0,-2.4805,-2.5088,-2.4524,-2.4222,-2.4188,-2.44,-2.4236,-2.37,-2.2812,0.0,0.0,0.0,0.0,0.0,0.0,0.0,0.0,0.0,0.0,0.0,0.0,0.0,0.0,0.0,0.0,0.0,0.0,0.0,0.0,0.0,0.0,0.0,0.0,0.0,0.0,0.0,0.0,0.0,0.0,0.0,0.0,0.0,0.0,0.0,0.0,0.0,0.0,0.0,0.0,0.0,0.0,0.0,0.0,0.0,0.0,0.0,0.0,0.0,0.0,0.0,0.0,0.0,0.0,0.0,0.0,0.0,0.0,0.0,0.0,0.0,0.0,0.0,0.0,0.0,0.0,0.0,0.0,0.0,0.0,0.0,0.0,0.0,0.0,0.0,0.0,0.0,0.0,0.0,0.0,0.0,0.0,0.0,0.0,0.0,0.0,0.0,0.0,0.0,0.0,0.0,0.0,0.0,0.0,0.0,0.0,0.0,0.0,0.0,0.0,0.0,0.0,-2.3731,-2.465,-2.5053,-2.4439,-2.4235,-2.406,-2.4051,-2.3922,-2.3416,-2.2518,0.0,0.0,0.0,0.0,0.0,0.0,0.0,0.0,0.0,0.0,0.0,0.0,0.0,0.0,0.0,0.0,0.0,0.0,0.0,0.0,0.0,0.0,0.0,0.0,0.0,0.0,0.0,0.0,0.0,0.0,0.0,0.0,0.0,0.0,0.0,0.0,0.0,0.0,0.0,0.0,0.0,0.0,0.0,0.0,0.0,0.0,0.0,0.0,0.0,0.0,0.0,0.0,0.0,0.0,0.0,0.0,0.0,0.0,0.0,0.0,0.0,0.0,0.0,0.0,0.0,0.0,0.0,0.0,0.0,0.0,0.0,0.0,0.0,0.0,0.0,0.0,0.0,0.0,0.0,0.0,0.0,0.0,0.0,0.0,0.0,0.0,0.0,0.0,0.0,0.0,0.0,0.0,0.0,0.0,0.0,0.0,0.0,0.0,0.0,0.0,0.0,0.0,-2.3106,-2.4695,-2.5569,-2.5037,-2.4445,-2.4072,-2.3988,-2.3403,-2.2518,0.0,0.0,0.0,0.0,0.0,0.0,0.0,0.0,0.0,0.0,0.0,0.0,0.0,0.0,0.0,0.0,0.0,0.0,0.0,0.0,0.0,0.0,0.0,0.0,0.0,0.0,0.0,0.0,0.0,0.0,0.0,0.0,0.0,0.0,0.0,0.0,0.0,0.0,0.0,0.0,0.0,0.0,0.0,0.0,0.0,0.0,0.0,0.0,0.0,0.0,0.0,0.0,0.0,0.0,0.0,0.0,0.0,0.0,0.0,0.0,0.0,0.0,0.0,0.0,0.0,0.0,0.0,0.0,0.0,0.0,0.0,0.0,0.0,0.0,0.0,0.0,0.0,0.0,0.0,0.0,0.0,0.0,0.0,0.0,0.0,0.0,0.0,0.0,0.0,0.0,0.0,0.0,0.0,0.0,0.0,0.0,0.0,0.0,0.0,0.0,0.0,0.0,0.0,-2.2323,-2.3244,-2.3629,-2.3022,-2.2824,-2.2664,-2.2665,-2.2407,-2.1901,-2.1019,0.0,0.0,0.0,0.0,0.0,0.0,0.0,0.0,0.0,0.0,0.0,0.0,0.0,0.0,0.0,0.0,0.0,0.0,0.0,0.0,0.0,0.0,0.0,0.0,0.0,0.0,0.0,0.0,0.0,0.0,0.0,0.0,0.0,0.0,0.0,0.0,0.0,0.0,0.0,0.0,0.0,0.0,0.0,0.0,0.0,0.0,0.0,0.0,0.0,0.0,0.0,0.0,0.0,0.0,0.0,0.0,0.0,0.0,0.0,0.0,0.0,0.0,0.0,0.0,0.0,0.0,0.0,0.0,0.0,0.0,0.0,0.0,0.0,0.0,0.0,0.0,0.0,0.0,0.0,0.0,0.0,0.0,0.0,0.0,0.0,0.0,0.0,0.0,0.0,0.0,0.0,0.0,0.0,0.0,0.0,0.0,0.0,0.0,0.0,0.0,0.0,0.0,-2.1667,-2.2548,-2.2871,-2.2188,-2.2075,-2.1934,-2.1654,-2.1572,-2.1198,-2.0442,0.0,0.0,0.0,0.0,0.0,0.0,0.0,0.0,0.0,0.0,0.0,0.0,0.0,0.0,0.0,0.0,0.0,0.0,0.0,0.0,0.0,0.0,0.0,0.0,0.0,0.0,0.0,0.0,0.0,0.0,0.0,0.0,0.0,0.0,0.0,0.0,0.0,0.0,0.0,0.0,0.0,0.0,0.0,0.0,0.0,0.0,0.0,0.0,0.0,0.0,0.0,0.0,0.0,0.0,0.0,0.0,0.0,0.0,0.0,0.0,0.0,0.0,0.0,0.0,0.0,0.0,0.0,0.0,0.0,0.0,0.0,0.0,0.0,0.0,0.0,0.0,0.0,0.0,0.0,0.0,0.0,0.0,0.0,0.0,0.0,0.0,0.0,0.0,0.0,0.0,0.0,0.0,0.0,0.0,0.0,0.0,0.0,0.0,0.0,0.0,0.0,0.0,-2.0989,-2.2275,-2.2796,-2.2001,-2.1766,-2.1467,-2.0797,-2.077,-2.0388,-1.9605,0.0,0.0,0.0,0.0,0.0,0.0,0.0,0.0,0.0,0.0,0.0,0.0,0.0,0.0,0.0,0.0,0.0,0.0,0.0,0.0,0.0,0.0,0.0,0.0,0.0,0.0,0.0,0.0,0.0,0.0,0.0,0.0,0.0,0.0,0.0,0.0,0.0,0.0,0.0,0.0,0.0,0.0,0.0,0.0,0.0,0.0,0.0,0.0,0.0,0.0,0.0,0.0,0.0,0.0,0.0,0.0,0.0,0.0,0.0,0.0,-1.9856,-1.9528,0.0,0.0,0.0,0.0,0.0,0.0,0.0,0.0,0.0,0.0,0.0,0.0,0.0,0.0,0.0,0.0,0.0,0.0,0.0,0.0,0.0,0.0,0.0,0.0,0.0,0.0,0.0,0.0,0.0,0.0,0.0,0.0,0.0,0.0,0.0,0.0,0.0,0.0,0.0,0.0,-2.0422,-2.0785,-2.0896,-2.0676,-2.0303,-2.0041,-1.9888,-1.9703,-1.9539,-1.9351,-1.8835,0.0,0.0,0.0,0.0,0.0,0.0,0.0,0.0,0.0,0.0,0.0,0.0,0.0,0.0,0.0,0.0,0.0,0.0,0.0,0.0,0.0,0.0,0.0,0.0,0.0,0.0,0.0,0.0,0.0,0.0,0.0,0.0,0.0,0.0,0.0,0.0,0.0,0.0,0.0,0.0,0.0,0.0,0.0,0.0,0.0,0.0,0.0,0.0,0.0,0.0,0.0,0.0,0.0,0.0,0.0,0.0,0.0,0.0,0.0,-2.05,-2.0478,0.0,0.0,0.0,0.0,0.0,0.0,0.0,0.0,0.0,0.0,0.0,0.0,0.0,0.0,0.0,0.0,0.0,0.0,0.0,0.0,0.0,0.0,0.0,0.0,0.0,0.0,0.0,0.0,0.0,0.0,0.0,0.0,0.0,0.0,0.0,0.0,0.0,0.0,0.0,0.0,-2.0279,-2.0428,-2.0466,-2.0288,-1.9764,-1.9428,-1.9483,-1.9351,-1.9274,-1.9208,-1.8705,0.0,0.0,0.0,0.0,0.0,0.0,0.0,0.0,0.0,0.0,0.0,0.0,0.0,0.0,0.0,0.0,0.0,0.0,0.0,0.0,0.0,0.0,0.0,0.0,0.0,0.0,0.0,0.0,0.0,0.0,0.0,0.0,0.0,0.0,0.0,0.0,0.0,0.0,0.0,0.0,0.0,0.0,0.0,0.0,0.0,0.0,0.0,0.0,0.0,0.0,0.0,0.0,0.0,-2.1013,-2.0981,-2.0455,-2.0455,-2.0455,-2.0477,-2.0937,-2.1243,-2.1439,-2.121,0.0,0.0,0.0,0.0,0.0,0.0,0.0,0.0,0.0,0.0,0.0,0.0,0.0,0.0,0.0,0.0,0.0,0.0,0.0,0.0,0.0,0.0,-2.0769,-2.0309,-2.0554,-2.0648,-1.9665,0.0,0.0,0.0,0.0,0.0,0.0,0.0,0.0,0.0,0.0,0.0,-2.0434,-2.0638,-2.0703,-2.0466,-1.987,-1.9458,-1.9375,-1.9421,-1.9302,-1.9142,-1.8713,-1.8472,0.0,0.0,0.0,0.0,0.0,0.0,0.0,0.0,0.0,0.0,0.0,0.0,0.0,0.0,0.0,0.0,0.0,0.0,0.0,0.0,0.0,0.0,0.0,0.0,0.0,0.0,0.0,0.0,0.0,0.0,0.0,0.0,-1.5283,-1.589,0.0,0.0,0.0,0.0,0.0,0.0,0.0,0.0,0.0,0.0,0.0,0.0,0.0,-2.1353,-2.172,-2.2054,-2.2095,-2.204,-2.2499,-2.2477,-2.2029,-2.2029,-2.2029,-2.2029,-2.2095,0.0,-2.1013,-2.18,0.0,0.0,0.0,0.0,0.0,0.0,0.0,0.0,0.0,0.0,0.0,0.0,0.0,0.0,0.0,0.0,0.0,0.0,0.0,0.0,0.0,0.0,-2.0009,-1.9574,-1.9802,-2.0302,-2.073,-2.0534,-2.0245,-2.0245,-2.0193,-2.0151,0.0,0.0,0.0,0.0,0.0,0.0,-2.0966,-2.1014,-2.0999,-2.0968,-2.0535,-2.0131,-1.9782,-1.9737,-1.9567,-1.9162,-1.9013,-1.8879,-1.8497,-1.7733,0.0,0.0,0.0,0.0,0.0,0.0,0.0,0.0,0.0,0.0,0.0,0.0,0.0,0.0,0.0,0.0,0.0,0.0,0.0,0.0,0.0,0.0,0.0,0.0,0.0,0.0,0.0,0.0,0.0,-1.5,-1.5871,-1.6155,-1.7256,-1.8003,0.0,0.0,0.0,0.0,0.0,0.0,0.0,0.0,0.0,-2.1839,-2.2098,-2.2315,-2.2422,-2.2789,-2.2794,-2.2313,-2.2248,-2.2106,-2.1898,-2.1625,-2.1647,-2.192,-2.2204,-2.2073,-2.1712,-2.2138,-2.2193,-2.1996,0.0,0.0,0.0,0.0,-2.1832,-2.1625,-2.1898,-2.1914,-2.1756,-2.114,0.0,0.0,0.0,0.0,0.0,0.0,0.0,-2.0372,-2.0036,-2.0007,-1.9902,-1.9412,-1.9317,-1.9592,-2.052,-2.0572,-2.0581,-2.1123,-2.0938,-2.0783,-2.0783,-2.0562,0.0,0.0,0.0,-2.1094,-2.1085,-2.108,-2.108,-2.108,-2.0716,-2.035,-2.0163,-2.0162,-1.9795,-1.8922,-1.9053,-1.8742,-1.7906,-1.7703,-1.7115,0.0,0.0,0.0,0.0,0.0,0.0,0.0,0.0,0.0,0.0,0.0,0.0,0.0,0.0,0.0,0.0,0.0,0.0,0.0,0.0,0.0,0.0,0.0,0.0,0.0,0.0,0.0,0.0,-1.5693,-1.6386,-1.6811,-1.8162,-1.9138,0.0,0.0,0.0,0.0,0.0,0.0,-2.1957,-2.1753,-2.1773,-2.2174,-2.287,-2.311,-2.2793,-2.3201,-2.3121,-2.2488,-2.2127,-2.1887,-2.1767,-2.1396,-2.1428,-2.18,-2.216,-2.239,-2.2499,-2.2499,-2.2499,-2.2499,-2.2499,-2.2269,-2.1996,-2.2357,-2.2258,-2.1936,-2.2295,-2.2258,-2.2037,-2.1632,-2.0772,-1.9815,-1.9522,0.0,0.0,0.0,0.0,-1.9726,-1.9695,-1.9515,-1.925,-1.8752,-1.8583,-1.876,-1.9763,-2.013,-2.042,-2.1318,-2.1179,-2.0935,-2.0933,-2.0512,0.0,-2.0722,-2.0834,-2.106,-2.1273,-2.1098,-2.0984,-2.0931,-2.0476,-2.0034,-1.9955,-1.9935,-1.9528,-1.8595,-1.872,-1.8432,-1.7423,-1.7528,-1.7173,-1.6321,0.0,0.0,0.0,0.0,0.0,0.0,0.0,0.0,0.0,0.0,0.0,0.0,0.0,0.0,0.0,0.0,0.0,0.0,0.0,0.0,0.0,0.0,0.0,0.0,0.0,0.0,0.0,0.0,0.0,-1.8163,-1.934,0.0,0.0,0.0,0.0,-2.2113,-2.1199,-2.15,-2.3544,-2.2702,-2.2719,-2.3814,-2.3572,-2.3197,-2.2793,-2.2981,-2.299,-2.2968,-2.2936,-2.2706,-2.228,-2.2258,-2.2258,-2.228,-2.2302,-2.2564,-2.2968,-2.2968,-2.2968,-2.2968,-2.2968,-2.2957,-2.2936,-2.2957,-2.2809,-2.2638,-2.266,-2.2521,-2.236,-2.2113,-2.1584,-2.0851,-2.0133,-1.9834,0.0,0.0,-1.9031,-1.9067,-1.7935,-1.7674,-1.7501,-1.703,-1.7269,-1.7752,-1.8561,-1.9081,-1.9606,-2.044,-2.0515,-2.0523,-2.0537,0.0,-1.9915,-2.147,-2.1019,-2.0857,-2.169,-2.1025,-2.0529,-2.0517,-1.986,-1.921,-1.8705,-1.866,-1.8485,-1.7999,-1.7999,-1.7787,-1.7277,-1.6996,-1.6673,-1.6221,-1.5173,0.0,0.0,0.0,0.0,0.0,0.0,0.0,0.0,0.0,0.0,0.0,0.0,0.0,0.0,0.0,0.0,0.0,0.0,0.0,0.0,0.0,0.0,0.0,0.0,0.0,0.0,0.0,0.0,-1.7842,-1.8793,0.0,-2.0489,-2.0977,-2.1745,-2.3147,-2.2546,-2.2751,-2.4181,-2.3592,-2.3352,-2.3618,-2.3442,-2.3236,-2.2959,-2.2988,-2.3001,-2.3001,-2.2695,-2.263,-2.275,-2.2455,-2.2477,-2.2761,-2.2761,-2.2848,-2.3001,-2.3001,-2.3001,-2.3001,-2.3001,-2.3001,-2.3001,-2.3001,-2.2927,-2.2852,-2.2777,-2.2231,-2.1298,-1.9885,-1.9712,-1.9754,-1.8897,-1.8662,-1.8749,-1.8976,-1.8761,-1.8355,-1.7906,-1.7691,-1.7388,-1.6883,-1.6667,-1.6951,-1.8022,-1.8382,-1.8585,-1.8855,-1.9322,-1.9698,-1.9707,-1.9516,-1.9476,-2.0108,-1.9906,-1.9799,-2.0113,-1.991,-1.9712,-1.9767,-1.9454,-1.9256,-1.9072,-1.9054,-1.8656,-1.7714,-1.7856,-1.7552,-1.6594,-1.6532,-1.6389,-1.5983,-1.5537,-1.4872,0.0,0.0,0.0,0.0,0.0,0.0,0.0,0.0,0.0,0.0,0.0,0.0,0.0,0.0,0.0,0.0,0.0,0.0,0.0,0.0,0.0,0.0,0.0,0.0,0.0,0.0,-1.757,-1.8134,-1.8843,-1.9613,-2.04,-2.1202,-2.2113,-2.3356,-2.3305,-2.3616,-2.447,-2.407,-2.3789,-2.3684,-2.3553,-2.334,-2.3001,-2.3001,-2.3001,-2.3001,-2.2695,-2.2706,-2.299,-2.2684,-2.2717,-2.3001,-2.3001,-2.3001,-2.3001,-2.2777,-2.2703,-2.2703,-2.2927,-2.2852,-2.2703,-2.2531,-2.2295,-2.1993,-2.168,-2.1058,-2.0275,-1.8868,-1.8868,-1.9107,-1.8238,-1.7997,-1.8078,-1.8318,-1.7997,-1.7521,-1.7521,-1.7418,-1.7141,-1.6756,-1.6555,-1.6597,-1.7429,-1.7552,-1.7527,-1.7523,-1.8291,-1.8859,-1.8884,-1.8641,-1.8646,-1.9181,-1.9053,-1.8953,-1.9261,-1.9074,-1.8833,-1.8843,-1.8603,-1.839,-1.839,-1.839,-1.8046,-1.7163,-1.7307,-1.709,-1.6236,-1.6285,-1.6219,-1.6009,-1.5644,-1.4985,-1.3962,0.0,0.0,0.0,0.0,0.0,0.0,0.0,0.0,0.0,0.0,0.0,0.0,0.0,0.0,0.0,0.0,0.0,0.0,0.0,0.0,0.0,0.0,0.0,-1.7354,-1.7389,-1.7915,-1.9211,-1.9569,-2.0039,-2.0795,-2.1902,-2.2684,-2.2627,-2.3349,-2.4013,-2.445,-2.421,-2.4097,-2.4177,-2.3824,-2.3372,-2.3001,-2.3001,-2.3001,-2.3001,-2.3001,-2.3001,-2.3001,-2.3001,-2.3001,-2.3001,-2.3001,-2.3001,-2.2927,-2.2402,-2.2101,-2.2176,-2.2703,-2.2628,-2.2025,-2.1527,-2.0894,-2.0119,-1.9492,-1.9256,-1.9256,-1.9265,-1.9256,-1.9027,-1.8238,-1.7997,-1.7764,-1.6968,-1.673,-1.673,-1.673,-1.673,-1.673,-1.673,-1.673,-1.673,-1.673,-1.673,-1.673,-1.673,-1.7358,-1.7925,-1.7989,-1.7237,-1.7237,-1.8953,-1.8538,0.0,-1.9144,-1.8447,-1.7958,-1.7934,-1.7204,-1.673,-1.6648,-1.6648,-1.6566,-1.6394,-1.6394,-1.6319,-1.6087,-1.6087,-1.6087,-1.6087,-1.5589,-1.4949,-1.4321,0.0,0.0,0.0,0.0,0.0,0.0,0.0,0.0,0.0,0.0,0.0,0.0,0.0,0.0,0.0,0.0,0.0,0.0,0.0,0.0,0.0,-1.4722,-1.5471,-1.6661,-1.7432,-1.7985,-1.8164,-1.8223,-1.8622,-1.9421,-2.0651,-2.1485,-2.184,-2.3395,-2.4255,-2.4176,-2.4472,-2.4482,-2.42,-2.3824,-2.3372,-2.3001,-2.3001,-2.3001,-2.3001,-2.3001,-2.3001,-2.3001,-2.3001,-2.3001,-2.3001,-2.3001,-2.3001,-2.3001,-2.2852,-2.2478,-2.2101,-2.1787,-2.1624,-2.1395,-2.0894,-2.0353,-1.9668,-1.8859,-1.847,-1.823,-1.7602,-1.7448,-1.7367,-1.7131,-1.7049,-1.7049,-1.673,-1.673,-1.673,-1.673,-1.673,-1.673,-1.673,-1.673,-1.673,-1.673,-1.673,-1.673,-1.673,-1.6863,-1.7065,-1.709,-1.6844,-1.6844,-1.7335,-1.7229,-1.7138,-1.7343,-1.7229,-1.7024,-1.7057,-1.6812,-1.6648,-1.6476,-1.6476,-1.6402,-1.6162,-1.617,-1.617,-1.6087,-1.5914,-1.5748,-1.5597,-1.519,-1.4933,0.0,0.0,0.0,0.0,0.0,0.0,0.0,0.0,0.0,0.0,0.0,0.0,0.0,0.0,0.0,0.0,0.0,0.0,0.0,0.0,0.0,0.0,-1.4409,-1.5039,-1.6151,-1.6875,-1.7422,-1.7716,-1.7753,-1.791,-1.8566,-1.9875,-2.0823,-2.1068,-2.2831,-2.3821,-2.3745,-2.3948,-2.4043,-2.397,-2.353,-2.3224,-2.3001,-2.3001,-2.3001,-2.3001,-2.3001,-2.3001,-2.3001,-2.3001,-2.3001,-2.3001,-2.3001,-2.2852,-2.2628,-2.2317,-2.1852,-2.1328,0.0,0.0,0.0,0.0,-1.8877,-1.8327,-1.7836,-1.7521,-1.7367,-1.6894,-1.673,-1.673,-1.673,-1.673,-1.673,-1.673,-1.673,-1.673,-1.673,-1.673,-1.673,-1.673,-1.673,-1.673,-1.673,-1.673,-1.673,-1.673,-1.673,0.0,-1.6908,-1.682,-1.673,-1.673,-1.673,-1.673,-1.673,-1.6648,-1.6566,-1.6566,-1.6492,-1.6409,-1.6237,-1.6237,0.0,0.0,0.0,-1.5914,-1.5839,-1.5665,0.0,0.0,0.0,0.0,0.0,0.0,0.0,0.0,-1.516,-1.554,0.0,0.0,0.0,0.0,0.0,0.0,0.0,0.0,0.0,0.0,0.0,0.0,0.0,0.0,0.0,0.0,-1.4385,-1.5064,-1.5652,-1.5912,-1.651,-1.7617,-1.7669,-1.7722,-1.8043,-1.9434,-2.037,-2.0316,-2.1935,-2.2977,-2.3021,-2.2979,0.0,0.0,0.0,-2.2852,-2.2927,-2.2927,-2.2927,-2.3001,-2.3001,-2.3001,-2.3001,-2.2927,-2.2927,-2.2927,-2.2852,-2.2478,-2.1949,-2.1395,-2.0779,-2.0157,-2.0837,-2.044,-1.9292,-1.787,-1.7066,-1.673,-1.673,0.0,0.0,-1.673,-1.673,-1.673,-1.673,-1.673,-1.673,-1.673,-1.673,-1.673,-1.673,-1.673,-1.673,-1.673,-1.673,-1.673,-1.673,-1.673,-1.673,-1.673,-1.673,-1.6852,-1.7213,-1.6967,-1.6751,-1.6735,-1.6727,-1.6711,-1.6664,-1.6484,-1.6394,-1.6394,0.0,0.0,-1.6087,-1.6087,-1.5914,-1.5658,-1.565,-1.5582,-1.5431,-1.5431,-1.5431,-1.5431,-1.5431,-1.5445,-1.5489,-1.5774,-1.595,-1.6023,-1.5987,-1.6133,0.0,0.0,0.0,0.0,0.0,0.0,0.0,0.0,0.0,0.0,0.0,0.0,0.0,0.0,0.0,-1.2487,-1.2746,-1.3402,-1.4998,-1.5073,-1.5551,-1.7139,-1.7282,-1.7411,-1.7574,-1.8775,-1.9404,-1.9062,-2.1011,-2.2019,-2.1573,-2.1983,-2.2209,-2.2048,-2.1766,-2.1787,-2.2252,-2.2252,-2.2553,-2.3001,-2.3001,0.0,-2.3001,-2.2478,-2.2252,-2.2252,-2.1776,-2.1471,-2.1395,-2.1242,-2.0459,-1.9204,-1.9222,-1.8834,-1.8273,-1.7635,-1.7066,-1.673,-1.673,-1.673,-1.673,-1.673,-1.673,-1.673,-1.673,-1.673,0.0,-1.673,-1.673,-1.673,-1.673,-1.673,-1.673,-1.673,-1.673,-1.673,-1.673,-1.673,-1.673,-1.673,-1.673,-1.6742,-1.6919,-1.7083,-1.711,-1.6893,-1.6877,-1.6745,-1.6299,-1.617,-1.617,-1.617,-1.6087,-1.5997,-1.5824,-1.5741,-1.5658,-1.5506,-1.5423,-1.5423,-1.5431,-1.5431,-1.5431,-1.5431,-1.5431,-1.5555,-1.5826,-1.5884,-1.6177,-1.6667,-1.6404,-1.6455,0.0,0.0,0.0,0.0,0.0,0.0,0.0,0.0,0.0,0.0,0.0,-1.0245,-1.0862,0.0,-1.1554,-1.2204,-1.2305,-1.2788,-1.4116,-1.4141,-1.4816,-1.6821,-1.7166,-1.725,-1.7465,-1.8225,-1.8672,-1.8733,-1.9925,-2.0682,-2.0672,-2.1078,-2.1385,-2.1451,-2.1308,-2.1318,-2.1634,-2.1634,-2.1787,-2.208,-2.208,-2.208,-2.208,-2.1787,-2.1634,-2.1634,-2.1318,-2.1011,-2.0624,-2.0167,-1.9539,-1.8834,-1.8282,-1.7797,-1.7302,-1.7139,-1.6894,-1.673,-1.673,-1.673,-1.673,-1.673,-1.673,-1.673,-1.673,-1.673,-1.673,-1.673,-1.673,-1.673,-1.673,-1.673,-1.673,-1.673,-1.673,-1.673,-1.673,-1.673,-1.673,-1.673,-1.6838,-1.7008,-1.7125,-1.744,-1.7416,-1.7014,-1.685,-1.6676,-1.6369,-1.6255,-1.6163,-1.6163,-1.6087,-1.5918,-1.5826,-1.5678,-1.5506,-1.5431,-1.5431,-1.5431,-1.5431,-1.5431,-1.5504,-1.5672,-1.5672,-1.5826,-1.614,-1.6309,-1.655,-1.6857,-1.685,-1.6938,0.0,0.0,0.0,0.0,0.0,0.0,0.0,0.0,-0.8355,-0.9151,-0.9478,-0.9894,-1.0778,-1.1093,-1.1414,-1.2204,-1.2305,-1.2592,-1.339,-1.3535,-1.425,-1.6184,-1.6751,-1.7009,-1.7125,-1.7664,-1.8171,-1.854,-1.8974,-1.9506,-1.9982,-2.0245,-2.0557,-2.0857,-2.0847,-2.0857,-2.1011,-2.1011,-2.1088,-2.1165,-2.1165,-2.1165,-2.1165,-2.1088,-2.1011,-2.1011,-2.0857,-2.0469,-1.9854,-1.8922,-1.8531,-1.8371,-1.7554,-1.7066,-1.673,-1.673,-1.673,-1.673,-1.673,-1.673,-1.673,-1.673,-1.673,-1.673,-1.673,-1.673,-1.673,-1.673,-1.673,-1.673,-1.673,-1.673,-1.673,-1.673,-1.673,-1.673,-1.673,-1.673,-1.673,-1.673,-1.7028,-1.7298,-1.7336,-1.764,-1.7643,-1.7101,-1.6808,-1.668,-1.6612,-1.6331,-1.6238,-1.6238,-1.6029,-1.5891,-1.5826,-1.5577,-1.5431,-1.5431,-1.5431,-1.5431,-1.5431,-1.5431,-1.5493,-1.5641,-1.5648,-1.5734,-1.5913,-1.6349,-1.6605,-1.667,-1.7115,-1.7326,-0.4653,-0.4913,-0.5038,-0.517,-0.5397,-0.5815,0.0,0.0,-0.7051,-0.8479,-0.8801,-0.9284,-1.0915,-1.1162,-1.1414,-1.2204,-1.2305,-1.2592,-1.339,-1.3535,-1.3818,-1.4752,-1.5542,-1.5991,-1.5964,-1.692,-1.776,-1.8155,-1.8731,-1.9112,-1.9362,-1.9627,-1.9636,-1.9539,-1.9539,-1.9766,-2.0323,-2.0313,-2.0624,-2.1165,-2.1165,-2.1165,-2.1165,-2.0547,-2.0313,-2.0313,-1.9775,-1.9231,-1.8851,-1.8282,-1.7878,-1.7473,-1.6984,-1.6738,-1.673,-1.673,-1.673,-1.673,-1.673,-1.673,-1.673,-1.673,-1.673,-1.673,-1.673,-1.673,-1.673,-1.673,-1.673,-1.673,-1.673,-1.673,-1.673,-1.673,-1.673,-1.673,-1.673,-1.673,-1.673,-1.673,-1.7028,-1.7251,-1.7079,-1.7377,-1.7485,-1.7206,-1.7153,-1.6914,-1.6441,-1.6404,-1.6404,-1.6404,-1.6074,-1.5796,-1.5504,-1.5452,-1.5431,-1.5431,-1.5431,-1.5431,-1.5431,-1.5431,-1.5141,-1.4562,-1.4569,-1.4395,-1.4099,-1.5061,-1.5584,-1.594,-1.6835,-1.7326,-0.448,-0.47,-0.49,0.0,-0.5226,-0.5557,-0.6268,-0.64,-0.6724,-0.7702,-0.7967,-0.8433,-0.9949,-1.039,-1.0777,0.0,-1.2231,-1.2445,-1.2732,-1.2806,-1.2952,-1.3237,-1.3962,-1.4824,-1.5692,-1.6455,-1.7215,-1.8017,-1.8561,-1.8957,-1.9283,-1.9381,-1.939,-1.9301,-1.9301,-1.946,-1.9687,-1.9696,-1.9854,-2.0079,-2.0079,-2.0079,-2.0079,-1.9766,-1.9696,-1.9696,-1.9381,-1.9073,-1.87,-1.8201,-1.7797,-1.731,-1.6894,-1.673,-1.673,-1.673,-1.673,-1.673,-1.673,-1.673,-1.673,-1.673,-1.673,-1.673,-1.673,-1.673,-1.673,-1.673,-1.673,-1.6786,-1.7,-1.7087,-1.713,-1.7327,-1.7229,-1.704,-1.704,-1.6844,-1.6656,-1.6582,-1.6813,-1.6993,-1.6858,-1.7093,-1.7379,-1.7291,-1.7157,-1.6897,-1.6757,-1.6652,-1.6579,-1.6389,-1.625,-1.5792,-1.4699,-1.4657,-1.4398,-1.388,-1.3953,-1.3965,-1.3965,-1.4122,-1.416,-1.4076,-1.4082,-1.4093,-1.4099,-1.4477,-1.4823,-1.4937,-1.5317,-1.5507,-0.3606,0.0,0.0,-0.4492,-0.4821,-0.5223,-0.5741,-0.6005,-0.6338,-0.6994,-0.7125,-0.756,-0.8959,-0.9575,-1.026,-1.1436,-1.2024,-1.2305,-1.2305,-1.2305,-1.2305,-1.2305,-1.2813,-1.371,-1.5105,-1.5939,-1.6776,-1.771,-1.8334,-1.8889,-1.9283,-1.9301,-1.9301,-1.9301,-1.9301,-1.9301,-1.9301,-1.9301,-1.9301,-1.9301,-1.9301,-1.9301,-1.9301,-1.9301,-1.9301,-1.9301,-1.9301,-1.8993,-1.8451,-1.8121,-1.7716,-1.7147,-1.6812,-1.673,-1.673,-1.673,-1.673,-1.673,-1.673,-1.673,-1.673,-1.673,-1.673,-1.673,-1.673,-1.673,-1.673,-1.673,-1.681,-1.6945,-1.7207,-1.7351,-1.743,-1.7513,-1.7233,-1.682,-1.6616,-1.6422,-1.6095,-1.5698,-1.6082,-1.6421,-1.5956,-1.6245,-1.6501,-1.6432,-1.6278,-1.6423,-1.6982,-1.6798,-1.6394,-1.5708,-1.568,-1.5192,-1.3985,-1.386,-1.3595,-1.2892,-1.2991,-1.3099,-1.3099,-1.3189,-1.3318,-1.3397,-1.3403,-1.3437,-1.3409,-1.3692,-1.3884,-1.3884,-1.4172,-1.431,0.0,0.0,-0.3226,-0.309,-0.3689,-0.4353,-0.4353,-0.4891,-0.562,-0.6268,-0.6396,-0.6783,-0.7923,-0.9108,-1.0061,-1.0533,-1.1601,-1.2305,-1.2305,-1.2305,-1.2305,-1.2305,-1.2298,-1.2776,-1.3812,-1.5413,-1.6547,-1.7026,-1.8096,-1.8889,-1.9283,-1.9301,-1.9301,-1.9301,-1.9301,-1.9301,-1.9301,-1.9301,-1.9301,-1.9301,-1.9301,-1.9301,-1.9301,-1.9301,-1.9301,-1.9301,-1.9301,-1.8825,-1.804,-1.804,-1.7465,-1.673,-1.6738,-1.673,-1.673,-1.673,-1.673,-1.673,-1.673,-1.673,-1.673,-1.673,-1.673,-1.673,-1.673,-1.673,-1.673,-1.673,-1.6984,-1.7262,-1.7278,-1.7509,-1.7628,-1.6904,-1.6345,-1.5713,-1.4948,-1.4877,-1.4838,-1.3983,-1.4708,-1.515,-1.4084,-1.4366,-1.4638,-1.4459,-1.4358,-1.5114,-1.703,-1.6452,-1.5289,-1.3975,-1.3851,-1.3743,-1.3375,-1.3351,-1.3357,-1.326,-1.3272,-1.3272,-1.3272,-1.3284,-1.2957,-1.2377,-1.2377,-1.2024,-1.1292,-1.2247,-1.2727,-1.2727,-1.3788,-1.4407,-0.0649,0.0,-0.1945,-0.2619,-0.322,-0.3618,-0.3956,-0.3954,-0.4151,-0.4882,-0.5014,-0.5456,-0.6975,-0.7864,-0.8634,-0.9507,-1.0636,-1.1484,-1.1484,-1.1929,-1.2305,-1.2305,-1.2478,-1.2783,-1.3113,-1.4171,0.0,-1.7141,-1.7691,-1.8326,-1.9274,-1.9301,-1.9301,-1.9301,-1.9301,-1.9301,-1.9301,-1.9301,-1.9301,-1.9301,-1.9301,-1.9301,-1.9301,-1.9301,-1.9301,-1.9301,-1.9301,-1.8834,-1.804,-1.804,-1.7473,-1.673,-1.673,-1.673,-1.673,-1.673,-1.6402,-1.6064,-1.6566,-1.673,-1.673,-1.673,-1.673,-1.6648,-1.6147,-1.6565,-1.692,-1.5893,-1.6215,-1.679,-1.6558,-1.6513,-1.6572,-1.6646,-1.6075,-1.5383,-1.5132,-1.4699,-1.4229,-1.3711,-1.3975,-1.4153,-1.3884,-1.3975,-1.4157,-1.4244,-1.4268,-1.4555,-1.5222,-1.5032,-1.4545,-1.3894,-1.3776,-1.3391,-1.2409,-1.2387,-1.2118,-1.1574,-1.1626,-1.1713,-1.1713,-1.1852,-1.1773,-1.1564,-1.1569,-1.1414,-1.1194,-1.158,-1.1673,-1.1678,-1.2221,-1.2532,-0.0,-0.0321,-0.0912,-0.1891,-0.2213,-0.2348,-0.277,-0.2905,-0.3109,-0.354,-0.4018,-0.4645,-0.5677,-0.6892,-0.7911,-0.8471,-0.9835,-1.0843,-1.1049,-1.1558,-1.2042,-1.2452,-1.2708,-1.2909,0.0,0.0,0.0,-1.6851,-1.7293,-1.8083,-1.9283,-1.9301,-1.9301,-1.9301,-1.9301,-1.9301,-1.9301,-1.9301,-1.9301,-1.9301,-1.9301,-1.9301,-1.9301,-1.9301,-1.9222,-1.9073,-1.9073,-1.8594,-1.7797,-1.7797,-1.7383,-1.673,-1.673,-1.673,-1.673,-1.673,-1.6319,-1.5733,-1.6147,-1.6154,-1.5989,-1.5989,-1.5989,-1.5899,-1.5484,-1.5881,-1.632,-1.5361,-1.5753,-1.6407,-1.6057,-1.6134,-1.6218,-1.6168,-1.5421,-1.4703,-1.4477,-1.3836,-1.324,-1.2727,-1.2883,-1.3026,-1.2819,-1.2825,-1.2936,-1.3188,-1.3216,-1.3307,-1.3692,-1.3692,-1.3532,-1.2897,-1.2881,-1.2536,-1.1739,-1.1635,-1.1447,-1.0891,-1.0924,-1.1005,-1.1005,-1.1127,-1.1194,-1.1194,-1.1194,-1.1194,-1.1194,-1.1194,-1.1194,-1.1198,-1.1416,-1.1557,0.0185,0.0123,-0.0123,-0.0864,-0.074,-0.062,-0.0959,-0.1734,-0.2391,-0.2395,-0.3347,-0.422,-0.4287,0.0,-0.7788,-0.7539,-0.896,-1.0319,-1.0923,-1.1037,-1.1508,0.0,0.0,0.0,0.0,0.0,0.0,-1.6103,0.0,-1.7926,-1.9195,-1.9301,-1.9301,-1.9301,-1.9301,-1.9301,-1.9301,-1.9301,-1.9301,-1.9301,-1.9301,-1.9301,-1.9301,-1.9301,-1.9073,-1.87,-1.8692,-1.8129,-1.731,-1.731,-1.6984,-1.6566,-1.6566,-1.6566,-1.6566,-1.6566,-1.6147,-1.5567,-1.5567,-1.5235,-1.4734,-1.4734,-1.4748,-1.4671,-1.4678,-1.4893,-1.5151,-1.5064,-1.5486,-1.595,-1.5943,-1.622,-1.6279,-1.552,-1.4539,-1.3636,-1.2991,-1.2491,-1.2026,-1.1096,-1.1652,-1.1931,-1.1101,-1.1066,-1.1194,-1.1194,-1.1194,-1.158,-1.2538,-1.2635,-1.2252,-1.1292,-1.1194,-1.1194,-1.1194,-1.1194,-1.1194,-1.1194,-1.1194,-1.1194,-1.1194,-1.1194,-1.1194,-1.1194,-1.1194,-1.1194,-1.1194,-1.1194,-1.1198,-1.1217,-1.1435,-1.1638,0.2684,0.1818,0.0739,-0.0062,-0.037,-0.0435,-0.032,-0.0645,-0.1104,-0.1399,-0.2275,-0.3211,-0.4151,-0.5693,0.0,-0.6738,-0.8026,0.0,-0.9311,-1.0357,0.0,-1.1508,0.0,-1.3153,-1.3307,-1.3647,0.0,0.0,-1.6253,-1.705,-1.8301,-1.8975,-1.9301,-1.9301,-1.9301,-1.9301,-1.9301,-1.9301,-1.9301,-1.9301,-1.9301,-1.9301,-1.9301,-1.9301,-1.9073,-1.87,-1.8175,-1.744,-1.664,-1.6139,-1.5643,-1.5235,-1.5235,-1.5235,-1.5235,-1.5235,-1.4817,-1.4237,-1.4237,-1.4405,-1.4734,-1.4734,-1.4803,-1.4898,-1.4389,-1.492,-1.5513,-1.4519,-1.4868,-1.5422,-1.4855,-1.4823,-1.479,-1.4675,-1.3829,-1.2986,-1.2872,-1.2129,-1.1405,-1.1215,-1.1308,-1.14,-1.1118,-1.1161,-1.1194,-1.1194,-1.1194,-1.1292,-1.158,-1.158,-1.1482,-1.1194,-1.1194,-1.1194,-1.1194,-1.1194,-1.1194,-1.1194,-1.1194,-1.1194,-1.1194,-1.1194,-1.1194,-1.1194,-1.1194,-1.1194,-1.1194,-1.1194,-1.1279,-1.1439,-1.1647,-1.1855,0.359,0.2986,0.1954,0.0414,-0.012,-0.0305,-0.044,-0.0512,-0.0586,-0.1003,-0.1762,0.0,-0.3277,-0.4888,0.0,0.0,0.0,0.0,-0.8641,-0.975,-1.0773,0.0,-1.2447,0.0,-1.3387,-1.3814,-1.4334,0.0,-1.5472,-1.6492,-1.7908,-1.8487,-1.8895,-1.9301,-1.9301,-1.9301,-1.9301,-1.9301,-1.9301,-1.9301,-1.9301,-1.9301,-1.9301,-1.9301,-1.8993,-1.8362,-1.7683,-1.687,-1.6064,-1.5394,-1.4901,-1.4734,-1.4734,-1.4734,-1.4734,-1.4734,-1.4321,-1.3737,-1.3737,-1.373,-1.3828,-1.3959,-1.411,-1.418,-1.3957,-1.4385,-1.4916,-1.4092,-1.4376,-1.4867,-1.4394,-1.4112,-1.3919,-1.3919,-1.3147,-1.2467,-1.2467,-1.178,-1.1194,-1.1194,-1.1194,-1.1194,-1.1194,-1.1194,-1.1194,-1.1194,-1.1194,-1.1194,-1.1194,-1.1194,-1.1194,-1.1194,-1.1194,-1.1194,-1.1194,-1.1194,-1.1194,-1.1194,-1.1194,-1.1194,-1.1194,-1.1194,-1.1194,-1.1194,-1.1194,-1.1194,-1.1194,-1.1194,-1.1307,-1.1524,-1.1723,-1.1935,0.361,0.361,0.3042,0.0785,0.0115,-0.0178,-0.092,-0.0822,-0.0651,-0.1006,0.0,-0.2307,-0.2377,-0.4142,-0.5613,-0.5585,0.0,-0.7873,-0.8498,-0.9296,-1.0273,-1.1189,-1.2408,-1.3267,-1.3554,-1.3854,-1.4028,-1.4028,-1.4761,-1.5921,-1.7755,-1.7874,-1.8302,-1.9146,-1.9191,-1.9219,-1.9219,-1.9274,-1.9301,-1.9301,-1.9301,-1.9301,-1.9301,-1.9222,-1.8754,-1.7959,-1.7204,-1.6386,-1.5484,-1.4817,-1.4482,-1.4398,-1.4398,-1.4398,-1.4398,-1.4398,-1.4062,-1.3561,-1.3561,-1.3215,-1.2747,-1.3031,-1.3145,-1.3224,-1.3489,-1.3749,-1.396,-1.396,-1.4123,-1.4298,-1.4298,-1.3919,-1.3539,-1.3539,-1.2759,-1.198,-1.198,-1.159,-1.1194,-1.1194,-1.1194,-1.1194,-1.1194,-1.1194,-1.1194,-1.1194,-1.1194,-1.1194,-1.1194,-1.1194,-1.1194,-1.1194,-1.1194,-1.1194,-1.1194,-1.1194,-1.1194,-1.1194,-1.1194,-1.1194,-1.1194,-1.1194,-1.1194,-1.1194,-1.1194,-1.1194,-1.1194,-1.1227,-1.135,-1.1562,-1.1765,-1.1973,0.3591,0.3602,0.3268,0.1849,0.0747,-0.0178,-0.092,-0.1075,0.0,0.0,-0.1857,-0.2727,-0.3418,-0.4451,-0.5542,-0.6526,0.0,0.0,0.0,0.0,-0.9986,0.0,0.0,0.0,0.0,-1.3547,0.0,0.0,-1.3796,-1.4789,-1.6846,-1.7309,-1.7726,-1.8263,-1.8641,-1.8815,-1.8815,-1.9136,-1.9301,-1.9301,-1.9301,-1.9301,-1.9301,-1.8922,-1.8531,-1.7951,-1.6968,-1.5891,-1.4817,-1.4153,-1.3561,-1.3045,-1.3045,-1.3045,-1.3045,-1.3045,-1.296,-1.2875,-1.2875,-1.279,-1.2747,-1.3031,-1.3272,-1.3495,-1.3761,-1.402,-1.4226,-1.4226,-1.4262,-1.4298,-1.4298,-1.3919,-1.3539,-1.3539,-1.2759,-1.198,-1.198,-1.159,-1.1194,-1.1194,-1.1194,-1.1194,-1.1194,-1.1194,-1.1194,-1.1194,-1.1194,-1.1194,-1.1194,-1.1194,-1.1194,-1.1194,-1.1194,-1.1194,-1.1194,-1.1194,-1.1194,-1.1194,-1.1194,-1.1194,-1.1194,-1.1194,-1.1194,-1.1194,-1.1194,-1.1194,-1.1194,-1.1373,-1.1567,-1.177,-1.1983,-1.2191,0.2813,0.3144,0.3324,0.2076,0.0582,-0.0606,-0.0738,0.0,0.0,0.0,-0.1877,-0.2641,-0.3134,0.0,0.0,0.0,0.0,0.0,0.0,0.0,0.0,0.0,0.0,0.0,0.0,-1.324,-1.342,-1.342,-1.3721,-1.4641,-1.6079,-1.7184,-1.7859,-1.8053,-1.8311,-1.8412,-1.8412,-1.8595,-1.8788,-1.899,-1.8512,-1.8698,-1.9222,-1.8086,-1.7529,-1.7375,-1.5959,-1.4887,-1.4153,-1.3476,-1.296,-1.2705,-1.2705,-1.2705,-1.2705,-1.2705,-1.2705,-1.2705,-1.2705,-1.2705,-1.2747,-1.3031,-1.3302,-1.3562,-1.3827,-1.4087,-1.4298,-1.4298,-1.4298,-1.4298,-1.4298,-1.3727,-1.3152,-1.3152,-1.237,-1.1585,-1.1585,-1.1389,-1.1194,-1.1194,-1.1194,-1.1194,-1.1194,-1.1194,-1.1194,-1.1194,-1.1194,-1.1194,-1.1194,-1.1194,-1.1194,-1.1194,-1.1194,-1.1194,-1.1194,-1.1194,-1.1194,-1.1194,-1.1194,-1.1194,-1.1194,-1.1194,-1.1194,-1.1194,-1.1194,-1.1194,-1.1194,-1.1411,-1.1619,-1.1822,-1.2039,-1.214,0.2279,0.2538,0.2763,0.1812,0.0296,-0.0928,-0.0685,-0.0845,0.0,0.0,-0.1824,-0.2617,-0.2975,0.0,-0.5789,0.0,0.0,0.0,0.0,0.0,0.0,0.0,0.0,0.0,0.0,-1.3044,0.0,-1.3342,-1.4176,-1.5003,-1.5783,-1.7156,-1.7954,-1.7862,-1.7944,-1.799,-1.799,-1.8082,-1.8284,-1.8586,-1.7803,-1.7918,-1.8858,-1.7058,-1.6445,-1.6617,-1.5123,-1.4132,-1.3652,-1.313,-1.279,-1.2705,-1.2705,-1.2705,-1.2705,-1.2705,-1.2705,-1.2705,-1.2705,-1.2705,-1.2741,-1.2964,-1.3218,-1.3495,-1.3809,-1.4051,-1.4226,-1.428,-1.4298,-1.4298,-1.4298,-1.3528,-1.2759,-1.2467,-1.1785,-1.1194,-1.1194,-1.1194,-1.1194,-1.1194,-1.1194,-1.1194,-1.1194,-1.1194,-1.1194,-1.1194,-1.1194,-1.1194,-1.1194,-1.1194,-1.1194,-1.1194,-1.1194,-1.1194,-1.1194,-1.1194,-1.1194,-1.1194,-1.1194,-1.1194,-1.1194,-1.1194,-1.1194,-1.1194,-1.1194,-1.1217,-1.1166,-1.1377,-1.1587,-1.1685,-1.1894,-1.1967,0.3105,0.2179,0.113,0.0929,0.018,-0.0622,-0.0959,0.0,0.0,-0.1076,-0.1961,-0.2975,-0.3984,-0.4967,-0.6135,-0.7462,0.0,-0.774,0.0,0.0,0.0,0.0,0.0,0.0,0.0,-1.2919,-1.3237,-1.3755,-1.496,-1.5796,-1.6125,-1.7035,-1.7385,-1.7027,-1.7367,-1.755,-1.755,-1.7935,-1.8137,-1.8183,-1.7604,-1.7466,-1.7509,-1.6296,-1.5786,-1.5786,-1.497,-1.4314,-1.3737,-1.3652,-1.3222,-1.2705,-1.2705,-1.2705,-1.2705,-1.2705,-1.2705,-1.2705,-1.2705,-1.2705,-1.2705,-1.2735,-1.2928,-1.3254,-1.3755,-1.3924,-1.399,-1.4226,-1.4298,-1.4298,-1.4298,-1.3528,-1.2565,-1.159,-1.1292,-1.1194,-1.1194,-1.1194,-1.1194,-1.1194,-1.1194,-1.1194,-1.1194,-1.1194,-1.1194,-1.1194,-1.1194,-1.1194,-1.1194,-1.1194,-1.1194,-1.1194,-1.1194,-1.1194,-1.1194,-1.1194,-1.1194,-1.1194,-1.1194,-1.1194,-1.1194,-1.1194,-1.1194,-1.1194,-1.1194,-1.1194,-1.1084,-1.1285,-1.1381,-1.1372,-1.1562,-1.166,0.1947,0.1894,0.175,0.07,0.0181,-0.0249,-0.0962,0.0,-0.1217,-0.1785,-0.2762,-0.379,-0.4879,-0.5904,-0.7107,-0.8569,-0.8657,-0.903,-1.0654,0.0,0.0,0.0,0.0,0.0,0.0,0.0,-1.4379,-1.5033,-1.5484,-1.6043,-1.6625,-1.6926,-1.7064,-1.6908,-1.7055,-1.7138,-1.7138,-1.7312,-1.7513,-1.7743,-1.6546,-1.643,-1.7056,-1.5021,-1.4358,-1.4849,-1.3884,-1.33,0.0,-1.313,-1.296,-1.2705,-1.2705,-1.2705,-1.2705,-1.2705,-1.2705,-1.2705,-1.2705,-1.2705,-1.2705,-1.2705,-1.2777,-1.294,-1.332,-1.3652,-1.393,-1.4032,-1.4177,-1.4202,-1.3919,-1.305,-1.2175,-1.1394,-1.1194,-1.1194,-1.1194,-1.1194,-1.1194,-1.1194,-1.1194,-1.1194,-1.1194,-1.1194,-1.1194,-1.1194,-1.1194,-1.1194,-1.1194,-1.1194,-1.1194,-1.1194,-1.1194,-1.1194,-1.1194,-1.1194,-1.1194,-1.1194,-1.1194,-1.1194,-1.1194,-1.1194,-1.1194,-1.1194,-1.1194,-1.1203,-1.1116,-1.1307,-1.1408,-1.1296,-1.148,-1.1459,0.1081,0.1524,0.1798,0.0474,0.0122,-0.0189,0.0,-0.1467,-0.1628,-0.26,-0.3656,-0.4678,-0.547,-0.6753,-0.8065,0.0,-0.9575,-1.0246,-1.1939,-1.255,0.0,0.0,0.0,-1.4964,0.0,-1.5111,-1.533,-1.5762,-1.5878,-1.6165,-1.6665,-1.6615,-1.6661,-1.6899,-1.6908,-1.6908,-1.6908,-1.6908,-1.7046,-1.7321,-1.5894,-1.5642,-1.628,-1.4064,-1.3251,-1.3662,-1.2881,-1.259,0.0,-1.2674,-1.2705,-1.2705,-1.2705,-1.2705,-1.2705,-1.2705,-1.2705,-1.2705,-1.2705,-1.2705,-1.2705,-1.2705,-1.2759,-1.2868,-1.3061,-1.3435,-1.3821,-1.3978,-1.4064,-1.3919,-1.3244,-1.2565,-1.1878,-1.1292,-1.1194,-1.1194,-1.1194,-1.1194,-1.1194,-1.1194,-1.1194,-1.1194,-1.1194,-1.1194,-1.1194,-1.1194,-1.1194,-1.1194,-1.1194,-1.1194,-1.1194,-1.1194,-1.1194,-1.1194,-1.1194,-1.1194,-1.1194,-1.1194,-1.1194,-1.1194,-1.1194,-1.1255,-1.126,-1.1198,-1.1255,-1.1197,-1.0994,-1.1129,-1.1225,-1.116,-1.1289,-1.124,0.0992,0.0923,0.0676,0.0061,-0.0126,-0.0522,0.0,-0.2258,-0.2385,-0.3452,-0.4571,-0.5403,-0.5544,-0.7275,-0.8836,-0.9323,-0.9925,-1.0891,-1.2722,-1.3325,0.0,0.0,0.0,-1.5928,-1.5561,-1.5682,-1.5762,-1.5833,-1.6124,0.0,-1.6321,-1.5927,-1.6074,-1.6881,-1.6908,-1.6908,-1.6908,-1.6908,-1.6908,-1.6917,-1.5995,-1.5356,-1.4762,-1.3649,-1.279,-1.2351,-1.2286,-1.2318,0.0,-1.2596,-1.2705,-1.2705,-1.2705,-1.2705,-1.2705,-1.2705,-1.2705,-1.2705,-1.2705,-1.2705,-1.2705,-1.2705,-1.2892,-1.3121,-1.3127,-1.3308,-1.3628,-1.4147,-1.3919,-1.3249,-1.2273,-1.198,-1.1878,-1.1292,-1.1194,-1.1194,-1.1194,-1.1194,-1.1194,-1.1194,-1.1194,-1.1194,-1.1194,-1.1194,-1.1194,-1.1194,-1.1194,-1.1194,-1.1194,-1.1194,-1.1194,-1.1194,-1.1194,-1.1194,-1.1194,-1.1194,-1.1194,-1.1194,-1.1194,-1.1194,-1.1194,-1.1401,-1.1416,-1.1198,-1.1406,-1.1309,-1.088,-1.088,-1.0864,-1.0692,-1.0692,-1.0692,0.0254,0.05,0.0556,-0.0567,-0.0907,-0.1336,-0.2773,-0.3168,-0.3507,-0.4583,-0.5205,-0.5915,-0.7271,-0.83,-0.9418,-1.0651,-1.1309,0.0,0.0,0.0,0.0,0.0,0.0,-1.6754,0.0,0.0,-1.604,-1.5752,-1.5824,-1.589,-1.589,-1.5762,-1.5808,-1.6065,-1.6074,-1.6211,-1.6505,-1.602,-1.5869,-1.6123,-1.4648,-1.3895,-1.369,-1.2662,-1.2117,-1.1998,-1.2201,-1.2312,-1.233,-1.2596,-1.2705,-1.2705,-1.2705,-1.2705,-1.2705,-1.2705,-1.2705,-1.2705,-1.2705,-1.2705,-1.2705,-1.2705,-1.2765,-1.291,-1.3278,-1.3574,-1.3764,-1.373,-1.3147,-1.237,-1.2078,-1.1688,-1.1389,-1.1194,-1.1194,-1.1194,-1.1194,-1.1194,-1.1194,-1.1194,-1.1194,-1.1194,-1.1194,-1.1194,-1.1194,-1.1194,-1.1194,-1.1194,-1.1194,-1.1194,-1.1194,-1.1194,-1.1194,-1.1194,-1.1194,-1.1194,-1.1194,-1.1194,-1.1194,-1.1194,-1.1194,-1.1401,-1.1487,-1.1416,-1.1281,-1.1178,-1.1195,-1.0849,-1.0661,-1.0692,-1.0692,-1.0692,0.0,-0.1022,-0.0891,-0.1729,-0.205,-0.2469,-0.3591,-0.4018,-0.447,-0.5976,-0.635,-0.6951,-0.8566,-0.9771,-1.089,-1.2001,-1.3126,0.0,0.0,0.0,0.0,0.0,0.0,0.0,0.0,-1.6522,-1.6147,-1.5716,-1.5551,-1.546,-1.546,-1.5322,-1.5249,-1.5249,-1.5533,-1.5817,-1.6074,-1.5484,-1.5326,-1.5557,-1.4117,-1.3302,-1.3098,-1.2267,-1.1752,-1.1548,-1.183,-1.2077,0.0,-1.2451,-1.2614,-1.2705,-1.2705,-1.2705,-1.2705,-1.2705,-1.2705,-1.2705,-1.2705,-1.2705,-1.2705,-1.2705,-1.2777,-1.2946,-1.3381,-1.3767,-1.3897,-1.3397,-1.2759,-1.2175,-1.1785,-1.1487,-1.1194,-1.1194,-1.1194,-1.1194,-1.1194,-1.1194,-1.1194,-1.1194,-1.1194,-1.1194,-1.1194,-1.1194,-1.1194,-1.1194,-1.1194,-1.1194,-1.1194,-1.1194,-1.1194,-1.1194,-1.1194,-1.1194,-1.1194,-1.1194,-1.1194,-1.1194,-1.1194,-1.1231,-1.1316,-1.1419,-1.1425,-1.1425,-1.1303,-1.1114,-1.1072,-1.0708,-1.0625,-1.0692,-1.0692,-1.0692,0.0,-0.3357,-0.3205,-0.3251,-0.3372,-0.3745,-0.4698,-0.4876,0.0,-0.7479,-0.7935,-0.8384,-0.9573,-1.1544,-1.3042,-1.3393,-1.5042,0.0,0.0,0.0,0.0,0.0,-1.819,0.0,-1.7064,-1.6589,-1.6147,-1.5716,-1.5349,-1.5129,-1.5102,-1.4753,-1.4543,-1.4515,-1.5221,-1.5615,-1.5643,-1.5216,-1.5087,-1.5078,-1.4064,-1.3288,-1.2792,-1.2218,-1.1632,-1.1129,-1.1407,-1.1679,-1.1944,-1.2204,-1.2469,-1.2705,-1.2705,-1.2705,-1.2705,-1.2705,-1.2705,-1.2705,-1.2705,-1.2705,-1.2705,-1.2705,-1.2892,-1.3169,-1.3417,-1.3839,-1.3951,-1.3,-1.2721,-1.2446,-1.1468,-1.1184,-1.1194,-1.1194,-1.1194,-1.1194,-1.1194,-1.1194,-1.1194,-1.1194,-1.1194,-1.1194,-1.1194,-1.1194,-1.1194,-1.1194,-1.1194,-1.1194,-1.1194,-1.1194,-1.1194,-1.1194,-1.1194,-1.1194,-1.1194,-1.1194,-1.1194,-1.1194,-1.1194,-1.1293,-1.151,-1.1406,-1.1412,-1.1426,-1.1301,-1.1093,-1.0598,-1.0457,-1.0521,-1.0692,-1.0692,-1.0692,-0.6639,0.0,-0.3522,-0.4049,-0.442,-0.5038,0.0,-0.6872,0.0,0.0,0.0,-0.9653,-1.1702,-1.2749,-1.3677,-1.5003,0.0,0.0,0.0,0.0,0.0,0.0,-1.8076,-1.7677,-1.7665,-1.6959,-1.627,-1.5716,-1.5606,-1.5423,-1.512,-1.501,-1.4827,-1.4524,-1.4689,-1.4937,-1.5239,-1.4089,-1.376,-1.4239,-1.2629,-1.1933,-1.1996,-1.1552,-1.126,-1.1129,-1.1407,-1.1679,-1.1944,-1.2204,-1.2469,-1.2705,-1.2705,-1.2705,-1.2705,-1.2705,-1.2705,-1.2705,-1.2705,-1.2705,-1.2705,-1.2705,-1.2892,-1.3139,-1.3194,-1.3164,-1.2945,-1.2396,-1.2062,-1.1728,-1.1159,-1.108,-1.1194,-1.1194,-1.1194,-1.1194,-1.1194,-1.1194,-1.1194,-1.1194,-1.1194,-1.1194,-1.1194,-1.1194,-1.1194,-1.1194,-1.1194,-1.1194,-1.1194,-1.1194,-1.1194,-1.1194,-1.1194,-1.1194,-1.1194,-1.1194,-1.1194,-1.1194,-1.1194,-1.1293,-1.151,-1.1406,-1.1476,-1.164,-1.1159,-1.0843,-1.0478,-1.0412,-1.0521,-1.0692,-1.0692,-1.0692,-0.7702,-0.6656,-0.5572,-0.6066,-0.6417,-0.6826,-0.7716,0.0,0.0,0.0,0.0,0.0,-1.3283,0.0,0.0,0.0,0.0,0.0,0.0,0.0,0.0,-1.8798,-1.8307,-1.7822,0.0,-1.6836,-1.627,-1.5725,-1.5689,-1.5597,-1.5386,-1.5194,-1.5001,-1.479,-1.4607,-1.4487,-1.4381,-1.3471,-1.3118,-1.3241,-1.1932,-1.1439,-1.1706,-1.126,-1.1111,-1.1123,-1.1274,-1.1492,-1.1763,-1.2029,-1.2288,-1.2536,-1.2656,-1.2705,-1.2705,-1.2705,-1.2705,-1.2705,-1.2705,-1.2705,-1.2705,-1.2705,-1.2807,-1.2928,-1.2928,-1.285,-1.2678,-1.2567,-1.2208,-1.1867,-1.149,-1.1308,-1.1194,-1.1194,-1.1194,-1.1194,-1.1194,-1.1194,-1.1194,-1.1194,-1.1194,-1.1194,-1.1194,-1.1194,-1.1194,-1.1194,-1.1194,-1.1194,-1.1194,-1.1194,-1.1194,-1.1194,-1.1194,-1.1194,-1.1194,-1.1194,-1.1194,-1.1194,-1.1096,-1.1095,-1.1309,-1.1093,-1.1125,-1.1194,-1.0907,-1.0584,-1.0554,-1.0473,-1.0521,-1.0692,-1.0692,-1.0692,-0.8513,-0.8596,-0.8506,-0.8277,-0.8486,-0.8724,0.0,0.0,0.0,0.0,0.0,0.0,0.0,0.0,0.0,0.0,0.0,0.0,0.0,0.0,0.0,-1.8767,-1.8499,0.0,-1.7168,-1.6673,-1.6257,-1.59,-1.5872,-1.5845,-1.579,-1.5469,-1.523,-1.5102,-1.4772,-1.4192,-1.3381,-1.3064,-1.271,-1.2376,-1.16,-1.1395,-1.1632,-1.126,-1.1111,-1.1111,-1.1111,0.0,-1.1546,-1.1775,-1.2041,-1.2337,-1.256,-1.2668,-1.2705,-1.2705,-1.2705,-1.2705,-1.2705,-1.2705,-1.2705,-1.2705,-1.2705,-1.2705,-1.2705,-1.2705,-1.2769,-1.302,-1.2692,-1.2315,-1.2068,-1.1565,-1.1194,-1.1194,-1.1194,-1.1194,-1.1194,-1.1194,-1.1194,-1.1194,-1.1194,-1.1194,-1.1194,-1.1194,-1.1194,-1.1194,-1.1194,-1.1194,-1.1194,-1.1194,-1.1194,-1.1194,-1.1194,-1.1194,-1.1194,-1.1194,-1.1194,-1.1194,-1.0998,-1.0897,-1.1006,-1.0686,-1.0632,-1.0647,-1.0481,-1.0493,-1.0692,-1.0517,-1.0521,-1.0692,-1.0692,-1.0692,-1.2039,-1.2054,-1.1211,-0.9047,-0.8926,-0.967,0.0,0.0,0.0,0.0,0.0,0.0,0.0,0.0,0.0,0.0,0.0,0.0,0.0,0.0,-1.7706,-1.8432,0.0,-1.7755,-1.7996,-1.7396,-1.6986,-1.6725,-1.6725,-1.6569,-1.6239,-1.6166,-1.5817,-1.512,-1.5038,-1.4268,-1.2696,-1.2621,-1.2409,-1.2166,-1.1257,-1.1062,-1.1409,-1.1186,-1.1111,-1.1111,0.0,-1.1268,-1.1534,-1.1576,-1.1878,-1.2318,-1.2361,-1.2506,-1.2705,-1.2705,-1.2705,-1.2705,-1.2705,-1.2705,-1.2705,-1.2705,-1.2705,-1.2705,-1.2705,-1.2705,-1.2783,-1.3051,-1.2587,-1.1971,-1.1836,-1.1453,-1.1194,-1.1194,-1.1194,-1.1194,-1.1194,-1.1194,-1.1194,-1.1194,-1.1194,-1.1194,-1.1194,-1.1194,-1.1194,-1.1194,-1.1194,-1.1194,-1.1194,-1.1194,-1.1194,-1.1194,-1.1194,-1.1194,-1.1194,-1.1194,-1.1194,-1.1194,-1.0998,-1.0699,-1.0399,-1.0583,-1.0573,-1.0469,-1.0298,-1.0367,-1.0692,-1.0517,-1.0521,-1.0692,-1.0692,-1.0692,-1.2564,-1.2517,-1.204,-1.113,-1.1248,-1.1702,0.0,0.0,0.0,0.0,0.0,0.0,0.0,0.0,0.0,0.0,0.0,-1.7729,-1.7716,-1.8094,-1.8499,0.0,0.0,-1.825,-1.8114,-1.7432,-1.6968,-1.6908,-1.6908,-1.6826,-1.6642,-1.6431,-1.6147,-1.5771,-1.514,-1.429,-1.3092,-1.2521,-1.1948,-1.1316,-1.0853,-1.0805,-1.1192,-1.0973,-1.0979,-1.1111,0.0,-1.1184,-1.1317,-1.1467,-1.1673,-1.192,-1.2204,-1.2391,-1.2506,-1.265,-1.2705,-1.2705,-1.2705,-1.2705,-1.2705,-1.2705,-1.2705,-1.2705,-1.2705,-1.2705,-1.2679,-1.2692,-1.2406,-1.2005,-1.2068,-1.1621,-1.1194,-1.1194,-1.1194,-1.1194,-1.1194,-1.1194,-1.1194,-1.1194,-1.1194,-1.1194,-1.1194,-1.1194,-1.1194,-1.1194,-1.1194,-1.1194,-1.1194,-1.1194,-1.1194,-1.1194,-1.1194,-1.1194,-1.1194,-1.1194,-1.1096,-1.0801,-1.0609,-1.0401,-1.0087,-1.0273,-1.0355,-1.0432,-1.0444,-1.053,-1.0692,-1.0611,-1.0615,-1.0692,-1.0692,-1.0692,-1.306,-1.2878,-1.2698,-1.3403,0.0,-1.3465,0.0,0.0,0.0,0.0,0.0,0.0,0.0,0.0,0.0,0.0,-1.7789,-1.7988,-1.8085,-1.8556,-1.89,-1.89,-1.8767,-1.8452,-1.7803,-1.7254,-1.6908,-1.6908,-1.6908,-1.6908,-1.6908,-1.6615,-1.6346,-1.6044,-1.519,-1.4255,-1.331,-1.2461,-1.1619,-1.0756,-1.0492,-1.0585,-1.0842,-1.0761,-1.0828,-1.1021,-1.1087,-1.1111,-1.1129,-1.1341,-1.1473,-1.157,-1.1974,-1.2204,-1.2343,-1.2608,-1.2705,-1.2705,-1.2705,-1.2705,-1.2705,-1.2705,-1.2705,-1.2705,-1.2705,-1.2705,-1.2661,-1.2348,-1.2137,-1.1935,-1.2146,-1.1717,-1.1194,-1.1194,-1.1194,-1.1194,-1.1194,-1.1194,-1.1194,-1.1194,-1.1194,-1.1194,-1.1194,-1.1194,-1.1194,-1.1194,-1.1194,-1.1194,-1.1194,-1.1194,-1.1194,-1.1194,-1.1194,-1.1194,-1.1194,-1.1194,-1.1021,-1.0479,-1.0439,-1.0298,-0.9876,-0.9981,-1.0164,-1.0432,-1.0521,-1.0611,-1.0692,-1.0692,-1.0692,-1.0692,-1.0692,-1.0692,-1.5375,-1.4815,-1.4226,-1.5309,0.0,0.0,0.0,0.0,0.0,0.0,0.0,0.0,0.0,0.0,0.0,0.0,-1.7735,-1.7706,-1.7696,0.0,-1.7842,-1.7842,-1.7774,-1.7579,-1.7038,-1.6908,-1.6908,-1.6908,-1.6908,-1.6908,-1.6908,-1.6881,-1.6345,-1.5291,-1.5189,-1.4318,-1.2504,-1.2212,-1.1655,-1.0848,-1.0587,-1.035,-1.0363,-1.061,-1.0731,-1.0761,-1.1009,-1.1111,-1.1111,-1.1135,-1.1298,-1.1534,-1.1576,-1.1884,-1.2343,-1.2608,-1.2705,-1.2705,-1.2705,-1.2705,-1.2705,-1.2705,-1.2705,-1.2705,-1.2705,-1.2705,-1.2619,-1.2123,-1.1876,-1.1648,-1.1734,-1.153,-1.1194,-1.1194,-1.1194,-1.1194,-1.1194,-1.1194,-1.1194,-1.1194,-1.1194,-1.1194,-1.1194,-1.1194,-1.1194,-1.1194,-1.1194,-1.1194,-1.1194,-1.1194,-1.1194,-1.1194,-1.1194,-1.1194,-1.1194,-1.1194,-1.1081,-1.0681,-1.0514,-1.0298,-0.9876,-0.9742,-0.9908,-1.0424,-1.0278,-1.0363,-1.0692,-1.0692,-1.0692,-1.0692,-1.0692,-1.0692,-1.6028,-1.5876,0.0,0.0,0.0,0.0,0.0,0.0,0.0,0.0,0.0,0.0,0.0,0.0,0.0,0.0,-1.8499,-1.8566,-1.824,-1.8499,-1.8576,-1.824,-1.8172,-1.7969,-1.7442,-1.7107,-1.6908,-1.6908,-1.6908,-1.6908,-1.6908,-1.6482,-1.6053,-1.5557,-1.463,-1.3719,-1.2884,-1.2136,-1.1486,-1.0993,-1.0479,-1.0276,-1.0333,-1.0435,-1.0568,-1.0731,-1.0997,-1.1111,-1.1111,-1.1111,-1.1172,-1.1286,-1.1461,-1.1854,-1.2324,-1.2421,-1.2566,-1.2705,-1.2705,-1.2705,-1.2705,-1.2705,-1.2705,-1.2705,-1.2705,-1.2705,-1.2619,-1.21,-1.1849,-1.1557,-1.1288,-1.1027,-1.0811,-1.0811,-1.091,-1.1009,-1.1009,-1.1109,-1.1194,-1.1194,-1.1194,-1.1194,-1.1194,-1.1194,-1.1194,-1.1194,-1.1194,-1.1194,-1.1194,-1.1194,-1.1194,-1.1194,-1.1194,-1.1194,-1.1194,-1.1321,-1.123,-1.0707,-1.0641,-1.0483,-1.005,-1.0103,-1.0225,-1.0432,-1.0473,-1.0558,-1.0692,-1.0692,-1.0692,-1.0692,-1.0692,-1.0692,-1.665,-1.6665,-1.6631,0.0,0.0,0.0,0.0,0.0,0.0,0.0,0.0,0.0,0.0,0.0,0.0,0.0,-1.9044,-1.9166,-1.8767,-1.91,-1.91,-1.8566,-1.8509,-1.824,-1.751,-1.7107,-1.6908,-1.6908,-1.6908,-1.6769,-1.6551,-1.6053,-1.5551,-1.4966,-1.3962,-1.3164,-1.2725,-1.1952,-1.1427,-1.113,-1.0608,-1.0374,-1.0333,-1.0417,-1.055,-1.0731,-1.0997,-1.1111,-1.1111,-1.1111,-1.1111,-1.1141,-1.1419,-1.1799,-1.2198,-1.2282,-1.2481,-1.2705,-1.2705,-1.2534,-1.2272,-1.2272,-1.2272,-1.2272,-1.2272,-1.2448,-1.2619,-1.21,-1.1793,-1.1398,-1.0962,-1.0729,-1.0575,-1.0575,-1.074,-1.0896,-1.0896,-1.1052,-1.1194,-1.1194,-1.1194,-1.1194,-1.1194,-1.1194,-1.1194,-1.1194,-1.1194,-1.1194,-1.1194,-1.1194,-1.1194,-1.1194,-1.1194,-1.1194,-1.1194,-1.1392,-1.1245,-1.0795,-1.0861,-1.0746,-1.0241,-1.0314,-1.0404,-1.0513,-1.0578,-1.0639,-1.0692,-1.0692,-1.0692,-1.0692,-1.0692,-1.0692,-1.7466,-1.7283,0.0,0.0,0.0,0.0,0.0,0.0,0.0,0.0,0.0,0.0,0.0,0.0,0.0,-1.9198,-1.9253,-1.9309,-1.9309,-1.9299,-1.91,-1.8566,-1.8509,-1.8037,-1.6978,-1.6908,-1.6908,-1.6908,-1.6908,-1.6551,-1.5833,-1.5762,-1.4966,-1.3237,-1.3164,-1.2725,-1.1706,-1.1484,-1.1409,-1.1403,-1.0919,-1.0586,-1.0345,-1.0604,-1.0719,-1.0731,-1.0997,-1.1111,-1.1111,-1.1111,-1.1111,-1.1141,-1.1419,-1.1685,-1.195,-1.221,-1.2475,-1.2699,-1.2705,-1.21,-1.1327,-1.1327,-1.1327,-1.1327,-1.1322,-1.1929,-1.2613,-1.21,-1.1671,-1.1149,-1.0722,-1.0612,-1.057,-1.057,-1.0735,-1.0891,-1.0891,-1.1052,-1.1194,-1.1194,-1.1194,-1.1194,-1.1194,-1.1194,-1.1194,-1.1194,-1.1194,-1.1194,-1.1194,-1.1194,-1.1194,-1.1194,-1.1194,-1.1194,-1.1194,-1.1397,-1.13,-1.0975,-1.1177,-1.1078,-1.044,-1.0262,-1.0331,-1.0684,-1.0526,-1.0521,-1.0692,-1.0692,-1.0692,-1.0692,-1.0692,-1.0692,-1.8276,-1.8375,0.0,0.0,0.0,0.0,0.0,0.0,0.0,0.0,0.0,0.0,0.0,0.0,0.0,-1.9473,-1.9594,-1.9726,-1.9726,-1.9507,-1.91,-1.8566,-1.8172,-1.7638,-1.6978,-1.6908,-1.6908,-1.6908,-1.6403,-1.6053,-1.5833,-1.4609,-1.3738,-1.3237,-1.2505,-1.1922,-1.1484,-1.1409,-1.1335,-1.1186,-1.1033,-1.0858,-1.0604,-1.0683,-1.0719,-1.0731,-1.0997,-1.1111,-1.1111,-1.1111,-1.1111,-1.1123,-1.1202,-1.1407,-1.1679,-1.1944,-1.2204,-1.2457,-1.2638,-1.2528,-1.2186,-1.1499,-1.1327,-1.1149,-1.0534,-1.0534,-1.088,-1.1322,-1.0895,-1.0463,-1.0982,-1.0649,-1.0224,-1.0224,-1.0409,-1.0669,-1.0669,-1.0948,-1.1194,-1.1194,-1.1194,-1.1194,-1.1194,-1.1194,-1.1194,-1.1194,-1.1194,-1.1194,-1.1194,-1.1194,-1.1194,-1.1194,-1.1194,-1.1194,-1.1194,-1.1323,-1.1236,-1.0876,-1.1082,-1.0941,-1.0615,-1.0566,-1.0582,-1.0688,-1.0643,-1.0639,-1.0692,-1.0692,-1.0692,-1.0692,-1.0692,-1.0692,-1.8791,0.0,0.0,0.0,0.0,0.0,0.0,0.0,0.0,0.0,0.0,0.0,0.0,-1.9341,0.0,-1.9473,-1.9671,-1.9671,-1.9396,-1.9253,-1.8911,-1.8027,-1.7628,-1.7226,-1.6691,-1.6551,-1.6473,-1.6473,-1.5833,-1.533,-1.4966,-1.3738,-1.2816,-1.2335,-1.176,-1.1272,-1.0948,-1.1046,-1.0973,-1.0803,-1.1009,-1.0972,-1.0725,-1.0828,-1.0876,-1.0882,-1.1045,-1.1111,-1.1111,-1.0738,-1.0812,-1.1037,-1.0438,-1.0673,-1.1486,-1.142,-1.1839,-1.2355,-1.2614,-1.2448,-1.2015,-1.1058,-1.0712,-1.0534,-0.9666,-0.9579,-0.9923,-1.0453,-1.0019,-0.9497,-1.0014,-0.985,-0.9598,-0.9951,-1.0211,-1.0475,-1.0556,-1.0839,-1.1099,-1.1179,-1.1194,-1.1194,-1.1194,-1.1194,-1.1194,-1.1194,-1.1194,-1.1194,-1.1194,-1.1194,-1.1194,-1.1194,-1.1274,-1.1326,-1.1123,-1.1396,-1.1317,-1.0897,-1.0961,-1.1021,-1.0692,-1.0692,-1.0692,-1.0692,-1.0692,-1.0692,-1.0692,-1.0692,-1.0692,-1.0692,-1.0692,-1.0692,-1.9131,0.0,0.0,0.0,0.0,0.0,0.0,0.0,0.0,0.0,0.0,0.0,-1.9075,-1.9208,-1.9285,-1.9285,-1.9407,-1.9264,-1.8576,-1.869,-1.8402,-1.7207,-1.6936,-1.6711,-1.6219,-1.5896,-1.5677,-1.5632,-1.5067,-1.4419,-1.3628,-1.3041,-1.2184,-1.0975,-1.0969,-1.071,-1.0333,-1.0568,-1.0562,-1.0339,-1.0737,-1.0845,-1.0635,-1.0911,-1.1037,-1.0962,-1.0887,-1.0881,-1.0807,-1.0067,-1.0212,-1.0738,-0.9301,-0.974,-1.1212,-1.0737,-1.1224,-1.223,-1.2493,-1.2077,-1.1235,-1.0361,-1.0009,-0.984,-0.8803,-0.8973,-0.9492,-0.9492,-0.8965,-0.8436,-0.8524,-0.8707,-0.9069,-0.9859,-1.0116,-1.0329,-1.0532,-1.074,-1.0957,-1.1156,-1.1194,-1.1194,-1.1194,-1.1194,-1.1194,-1.1194,-1.1194,-1.1194,-1.1194,-1.1194,-1.1203,-1.1222,-1.1401,-1.1323,-1.1139,-1.139,-1.1394,-1.086,-1.0921,-1.0911,-1.0692,-1.0692,-1.0692,-1.0692,-1.0692,-1.0692,-1.0692,-1.0692,-1.0692,-1.0692,-1.0692,-1.0692,0.0,0.0,0.0,0.0,0.0,0.0,0.0,0.0,0.0,0.0,0.0,0.0,-1.9075,-1.9142,-1.9142,-1.9142,-1.8798,-1.8452,-1.8307,-1.7408,-1.6726,-1.6706,-1.5851,-1.5268,-1.5531,-1.5136,-1.4866,-1.4734,-1.3987,-1.3357,-1.2792,-1.1872,-1.1184,-1.0703,-1.0551,-1.0387,-1.0327,-1.0387,-1.0387,-1.0333,-0.9879,-0.9734,-0.9773,-1.0716,-1.0738,-1.0143,-0.9458,-0.9231,-0.9231,-0.9003,-0.9079,-0.9155,-0.8851,-0.8956,-0.9331,-0.939,-1.0088,-1.1055,-1.1377,-1.1843,-1.2272,-1.1322,-1.0971,-1.0712,-0.8978,-0.8536,-0.8532,-0.8532,-0.8009,-0.7661,-0.9052,-0.9148,-0.9069,-0.9859,-1.0116,-1.0329,-1.0532,-1.074,-1.0957,-1.1156,-1.1194,-1.1194,-1.1194,-1.1194,-1.1194,-1.1194,-1.1194,-1.1194,-1.1194,-1.1194,-1.126,-1.143,-1.129,-1.1277,-1.133,-1.1151,-1.0967,-1.086,-1.0812,-1.0802,-1.0692,-1.0692,-1.0692,-1.0692,-1.0692,-1.0692,-1.0692,-1.0692,-1.0692,-1.0692,-1.0692,-1.0692,0.0,0.0,0.0,0.0,0.0,0.0,0.0,0.0,0.0,0.0,0.0,-1.9075,-1.9075,-1.9075,-1.8998,-1.8654,-1.8307,-1.7755,-1.6868,-1.6269,-1.5824,-1.5504,-1.4889,-1.4537,-1.474,-1.4164,-1.3782,-1.3619,-1.2745,-1.2131,-1.1859,-1.109,-1.0551,-1.0288,-1.014,-1.0079,-0.9886,-1.0012,-1.0012,-0.9892,-0.9494,-0.918,-0.9033,-0.9681,-0.9712,-0.9337,-0.8875,-0.8718,-0.8703,-0.8322,-0.8322,-0.8627,-0.7863,-0.8016,-0.8651,-0.8539,-0.9151,-1.0018,-1.0842,-1.1467,-1.1849,-1.1461,-1.1327,-1.0977,-0.9065,-0.8273,-0.7918,-0.7478,-0.7132,-0.7132,-0.8006,-0.8623,-0.8978,-0.9419,-0.9935,-1.0329,-1.0532,-1.074,-1.0957,-1.1156,-1.1194,-1.1194,-1.1194,-1.1194,-1.1194,-1.1194,-1.1194,-1.1194,-1.1194,-1.1194,-1.1279,-1.1496,-1.1401,-1.1232,-1.1326,-1.1095,-1.0883,-1.0775,-1.0752,-1.0692,-1.0692,-1.0692,-1.0692,-1.0692,-1.0692,-1.0692,-1.0692,-1.0692,-1.0692,-1.0692,-1.0692,-1.0692,0.0,0.0,0.0,0.0,0.0,0.0,0.0,0.0,0.0,0.0,-1.9075,-1.9075,-1.9075,-1.9075,-1.8865,-1.8104,-1.7833,-1.7109,-1.5418,-1.5288,-1.5065,-1.4231,-1.3958,-1.3917,-1.3909,-1.3103,-1.2558,-1.2476,-1.1614,-1.1083,-1.0947,-1.0467,-1.014,-0.9814,-0.9802,-0.97,-0.9484,-0.97,-0.97,-0.949,-0.9168,-0.8633,-0.8035,-0.816,-0.8321,-0.8498,-0.8277,-0.8268,-0.8246,-0.7557,-0.771,-0.8169,-0.6795,-0.7103,-0.8264,-0.7803,-0.819,-0.9053,-1.03,-1.0869,-1.1111,-1.1357,-1.1434,-1.1182,-0.9488,-0.8623,-0.8006,-0.6956,-0.6691,-0.6779,-0.6779,-0.7746,-0.8715,-0.889,-0.9575,-1.0319,-1.0485,-1.0688,-1.0901,-1.1104,-1.1175,-1.1194,-1.1194,-1.1194,-1.1194,-1.1194,-1.1194,-1.1194,-1.1194,-1.1227,-1.1331,-1.1548,-1.1442,-1.133,-1.1322,-1.115,-1.0911,-1.0692,-1.0692,-1.0692,-1.0692,-1.0692,-1.0692,-1.0692,-1.0692,-1.0692,-1.0692,-1.0692,-1.0692,-1.0692,-1.0692,-1.0692,0.0,0.0,0.0,0.0,0.0,0.0,0.0,0.0,0.0,0.0,-1.9075,-1.9075,-1.9075,-1.9075,-1.8865,-1.8104,-1.7168,-1.6236,-1.5316,-1.4181,-1.351,-1.3685,-1.3188,-1.2759,-1.26,-1.2165,-1.1667,-1.1022,-1.085,-1.0584,-1.0123,-0.9995,-0.9802,-0.9544,-0.9538,-0.952,-0.9484,-0.952,-0.952,-0.9484,-0.8441,-0.7259,-0.5977,-0.6148,-0.6758,-0.7588,-0.6703,-0.6486,-0.6644,-0.649,-0.649,-0.6567,-0.6416,-0.6416,-0.6648,-0.6514,-0.7148,-0.8224,-0.9072,-1.0007,-1.0947,-1.1863,-1.2195,-1.1986,-1.1177,-1.0448,-0.9662,-0.8093,-0.7217,-0.6779,-0.6779,-0.7394,-0.8097,-0.8715,-0.9575,-1.0282,-1.031,-1.0475,-1.0679,-1.0891,-1.1075,-1.1194,-1.1194,-1.1194,-1.1194,-1.1194,-1.1194,-1.1194,-1.1194,-1.1359,-1.1553,-1.1756,-1.1444,-1.1327,-1.1516,-1.1004,-1.0692,-1.0692,-1.0692,-1.0692,-1.0692,-1.0692,-1.0692,-1.0692,-1.0692,-1.0692,-1.0692,-1.0692,-1.0692,-1.0692,-1.0692,-1.0692,0.0,0.0,0.0,0.0,0.0,0.0,0.0,0.0,0.0,0.0,-1.8787,-1.8452,-1.8452,-1.8452,-1.8104,-1.6932,-1.6372,-1.5695,-1.4736,-1.388,-1.3354,-1.3306,-1.2869,-1.2437,-1.2074,-1.1633,-1.1108,-1.0542,-1.0166,-0.9913,-0.9717,-0.9658,-0.9604,-0.9484,-0.9484,-0.9484,-0.9484,-0.9151,-0.8522,-0.7742,-0.7329,-0.6595,-0.5575,-0.5637,-0.6033,-0.6526,-0.6068,-0.5925,-0.601,-0.6095,-0.6132,-0.6139,-0.6227,-0.6338,-0.6338,-0.6338,-0.661,-0.7148,-0.8102,-0.9067,-0.9977,-1.1022,-1.1776,-1.2082,-1.1016,-1.053,-1.0009,-0.8452,-0.8013,-0.8009,-0.8009,-0.854,-0.9152,-0.9419,-0.9846,-1.0126,-1.0249,-1.0527,-1.0816,-1.1023,-1.1137,-1.1194,-1.1194,-1.1194,-1.1194,-1.1194,-1.1194,-1.1241,-1.1359,-1.1458,-1.1642,-1.1964,-1.1553,-1.1366,-1.1551,-1.1021,-1.0692,-1.0692,-1.0692,-1.0692,-1.0692,-1.0692,-1.0692,-1.0692,-1.0692,-1.0692,-1.0692,-1.0692,-1.0692,-1.0692,-1.0692,-1.0692,0.0,0.0,0.0,0.0,0.0,0.0,0.0,0.0,0.0,0.0,-1.8375,-1.7901,-1.7482,-1.7619,-1.7276,-1.6044,-1.5677,-1.5314,-1.4218,-1.3807,-1.3497,-1.3243,-1.2909,-1.2438,-1.1811,-1.1283,-1.0737,-1.0117,-0.974,-0.9484,-0.9484,-0.9484,-0.9484,-0.9484,-0.9484,-0.942,-0.9215,-0.856,-0.7593,-0.6411,-0.6496,-0.6221,-0.5564,-0.5564,-0.5634,-0.5715,-0.5734,-0.5761,-0.5782,-0.5935,-0.603,-0.6044,-0.62,-0.6338,-0.6338,-0.6338,-0.6338,-0.643,-0.7477,-0.8304,-0.9198,-1.0211,-1.1301,-1.1893,-1.0856,-1.0498,-1.0206,-0.8877,-0.8719,-0.889,-0.8627,-0.9157,-0.9685,-0.9685,-0.9859,-1.0109,-1.0291,-1.0636,-1.0957,-1.1156,-1.1194,-1.1194,-1.1194,-1.1194,-1.1194,-1.1194,-1.1194,-1.1274,-1.1491,-1.1562,-1.1732,-1.2101,-1.1652,-1.1419,-1.1555,-1.1021,-1.0692,-1.0692,-1.0692,-1.0692,-1.0692,-1.0692,-1.0692,-1.0692,-1.0692,-1.0692,-1.0692,-1.0692,-1.0692,-1.0692,-1.0692,-1.0692,0.0,0.0,0.0,0.0,0.0,0.0,0.0,0.0,0.0,0.0,-1.8037,-1.755,-1.6175,-1.6524,-1.6724,-1.5903,-1.5446,-1.5002,-1.4178,-1.3807,-1.3576,-1.3561,-1.3267,-1.2675,-1.1696,-1.1227,-1.0611,-0.9606,-0.9548,-0.9484,-0.9484,-0.9484,-0.9484,-0.9484,-0.9484,-0.9215,-0.8554,-0.7842,-0.7102,-0.642,-0.642,-0.6043,-0.5428,-0.5428,-0.5428,-0.5428,-0.5582,-0.5659,-0.5833,-0.5926,-0.603,-0.6044,-0.62,-0.6338,-0.6338,-0.6338,-0.6338,-0.6416,-0.7265,-0.803,-0.8904,-0.9974,-1.0846,-1.151,-1.1501,-1.1233,-1.07,-0.9789,-0.9235,-0.8715,-0.8009,-0.836,-0.8978,-0.8978,-0.9506,-1.0152,-1.0471,-1.0735,-1.0957,-1.1156,-1.1194,-1.1194,-1.1194,-1.1194,-1.1194,-1.1194,-1.1194,-1.1274,-1.1491,-1.1685,-1.1888,-1.2115,-1.1769,-1.1555,-1.1568,-1.1021,-1.0692,-1.0692,-1.0692,-1.0692,-1.0692,-1.0692,-1.0692,-1.0692,-1.0692,-1.0692,-1.0692,-1.0692,-1.0692,-1.0692,-1.0692,-1.0692,0.0,0.0,0.0,0.0,0.0,0.0,0.0,0.0,0.0,-1.8172,-1.7619,-1.7001,-1.5965,-1.6035,-1.5974,-1.5133,-1.4877,-1.4725,-1.445,-1.4148,-1.3918,-1.3918,-1.3282,-1.2534,-1.1673,-1.1091,-1.0432,-0.956,-0.9484,-0.9484,-0.9484,-0.9484,-0.9484,-0.9484,-0.9081,-0.8296,-0.7181,-0.692,-0.6396,-0.5738,-0.576,-0.5634,-0.5428,-0.5428,-0.5428,-0.5428,-0.5428,-0.5498,-0.5586,-0.5713,-0.58,-0.5898,-0.6054,-0.6173,-0.6338,-0.6338,-0.6338,-0.6416,-0.7253,-0.8016,-0.8865,-0.9785,-1.0693,-1.1409,-1.0869,-1.0811,-1.0742,-0.9809,-0.9584,-0.951,-0.9244,-0.9419,-0.9598,-0.9598,-0.9976,-1.039,-1.0542,-1.0844,-1.1109,-1.1179,-1.1194,-1.1194,-1.1194,-1.1194,-1.1194,-1.1194,-1.1194,-1.1321,-1.1666,-1.1775,-1.195,-1.2295,-1.2073,-1.1787,-1.1568,-1.1236,-1.0907,-1.0692,-1.0692,-1.0692,-1.0692,-1.0692,-1.0692,-1.0692,-1.0692,-1.0692,-1.0692,-1.0692,-1.0692,-1.0692,-1.0692,-1.0692,-1.9075,0.0,0.0,0.0,0.0,0.0,0.0,0.0,-1.9022,-1.8036,-1.7413,-1.6747,-1.5647,-1.5409,-1.5204,-1.4713,-1.4569,-1.4569,-1.4569,-1.4434,-1.4221,-1.4003,-1.3355,-1.2524,-1.1715,-1.1042,-1.0384,-0.9693,-0.9532,0.0,-0.9484,-0.9484,-0.9414,-0.9151,-0.8296,-0.7377,-0.64,-0.6207,-0.5815,-0.5428,-0.5428,-0.5428,-0.5428,-0.5428,-0.5428,-0.5428,-0.5428,-0.5428,-0.5439,-0.5528,-0.5644,-0.5749,-0.5949,-0.6091,-0.619,-0.624,-0.6493,-0.6795,-0.733,-0.8169,-0.916,-0.969,-1.0557,-1.1266,-1.0494,-1.0525,-1.0647,-0.9965,-0.9847,-1.0038,-1.0038,-1.0038,-1.0038,-1.0038,-1.0267,-1.0575,-1.0575,-1.0901,-1.1194,-1.1194,-1.1194,-1.1194,-1.1194,-1.1194,-1.1194,-1.1194,-1.1194,-1.1321,-1.1671,-1.1775,-1.1845,-1.2089,-1.1964,-1.1787,-1.1459,-1.1131,-1.0911,-1.0692,-1.0692,-1.0692,-1.0692,-1.0692,-1.0692,-1.0692,-1.0692,-1.0692,-1.0692,-1.0692,-1.0692,-1.0692,-1.0692,-1.0692,0.0,0.0,0.0,0.0,0.0,0.0,0.0,0.0,-1.9312,-1.7797,-1.7512,-1.6884,-1.4984,-1.4569,-1.4569,-1.4569,-1.4569,-1.4569,-1.4569,-1.4569,-1.4418,-1.3833,-1.3413,-1.2798,-1.1721,-1.1077,-1.0479,-0.994,-0.964,-0.9496,-0.9484,-0.9484,-0.9151,-0.849,-0.7116,-0.6396,-0.64,-0.5752,-0.5428,-0.5428,-0.5428,-0.5428,-0.5428,-0.5428,-0.5428,-0.5428,-0.5428,-0.5428,-0.5439,-0.5521,-0.5586,-0.5616,-0.5911,-0.6027,-0.6047,-0.628,-0.6795,-0.7484,-0.7561,-0.8627,-0.9922,-0.9922,-1.0438,-1.0982,-1.063,-1.046,-1.0397,-1.0081,-1.0033,-1.0038,-1.0038,-1.0038,-1.0038,-1.0038,-1.0267,-1.0575,-1.0575,-1.0901,-1.1194,-1.1194,-1.1194,-1.1194,-1.1194,-1.1194,-1.1194,-1.1194,-1.1194,-1.1274,-1.1491,-1.169,-1.1784,-1.1681,-1.1666,-1.145,-1.1122,-1.0907,-1.0692,-1.0692,-1.0692,-1.0692,-1.0692,-1.0692,-1.0692,-1.0692,-1.0692,-1.0692,-1.0692,-1.0692,-1.0692,-1.0692,-1.0692,-1.0692,-1.9075,0.0,0.0,0.0,0.0,0.0,0.0,0.0,0.0,-1.7376,-1.7097,-1.6571,-1.4864,-1.4569,-1.4569,-1.4569,-1.4569,-1.4569,-1.4569,-1.4569,-1.4418,-1.3833,-1.3324,-1.2611,-1.167,-1.1083,-1.0484,0.0,-0.9802,-0.9682,-0.9496,-0.9017,-0.8425,-0.7712,-0.6859,-0.6141,-0.5686,-0.5491,-0.5428,-0.5428,-0.5428,-0.5428,-0.5428,-0.5428,-0.5428,-0.5428,-0.5428,-0.5428,-0.5432,-0.5406,-0.5491,-0.5606,-0.5793,-0.5932,-0.6122,-0.6885,-0.733,-0.7633,-0.8856,-0.9539,-0.9992,-1.0588,-1.0887,-1.1027,-1.0423,-1.0407,-1.0366,-0.9822,-0.9838,-1.0038,-1.0038,-1.0038,-1.0038,-1.0038,-1.0267,-1.0575,-1.0575,-1.0901,-1.1194,-1.1194,-1.1194,-1.1194,-1.1194,-1.1194,-1.1194,-1.1194,-1.1194,-1.1274,-1.1491,-1.1567,-1.1578,-1.1467,-1.1566,-1.1474,-1.1044,-1.0946,-1.0911,-1.0692,-1.0692,-1.0692,-1.0692,-1.0692,-1.0692,-1.0692,-1.0692,-1.0692,-1.0692,-1.0692,-1.0692,-1.0692,-1.0692,-1.0692,-1.9075,-1.9075,0.0,0.0,0.0,0.0,-1.8965,-1.8937,0.0,0.0,-1.6515,-1.6097,-1.4848,-1.4522,-1.4522,-1.4816,-1.4736,-1.4569,-1.4569,-1.4569,-1.4281,-1.355,-1.3112,-1.2531,-1.1484,-1.1002,-1.0592,-1.0284,-1.0061,-0.976,-0.9496,-0.856,-0.7842,-0.7386,-0.647,-0.5815,-0.5428,-0.5428,-0.5428,-0.5428,-0.5428,-0.5428,-0.5428,-0.5428,-0.5428,-0.5428,-0.5428,-0.5428,-0.5428,-0.5428,-0.5413,-0.5508,-0.5654,-0.6015,-0.646,-0.7151,-0.7871,-0.8627,-0.9539,-1.0143,-1.0519,-1.0962,-1.1111,-1.1033,-1.0466,-1.0434,-1.0371,-0.994,-0.9861,-1.0038,-1.0038,-1.0038,-1.0038,-1.0038,-1.0267,-1.0575,-1.0575,-1.0901,-1.1194,-1.1194,-1.1194,-1.1194,-1.1194,-1.1194,-1.1194,-1.1194,-1.1194,-1.1241,-1.1368,-1.1534,-1.1485,-1.1182,-1.1451,-1.1375,-1.0761,-1.0741,-1.0766,-1.0477,-1.0473,-1.0473,-1.0473,-1.0473,-1.0473,-1.0473,-1.0473,-1.0509,-1.0586,-1.066,-1.0692,-1.0692,-1.0692,-1.0692,-1.9085,-1.9075,-1.9075,-1.9075,-1.9075,0.0,-1.8815,-1.8685,-1.8148,0.0,-1.5956,-1.5604,-1.4776,-1.4387,-1.4379,-1.5022,-1.4887,-1.4689,-1.4649,-1.4569,-1.4201,-1.3039,-1.29,-1.2452,-1.1186,-1.09,-1.0755,-1.0725,-1.0167,-0.9772,-0.9538,-0.8187,-0.7386,-0.7386,-0.6083,-0.5362,-0.5362,-0.5362,-0.5428,-0.5428,-0.5428,-0.5428,-0.5428,-0.5428,-0.5428,-0.5428,-0.5495,-0.5491,-0.5428,-0.5495,-0.5491,-0.5505,-0.5665,-0.629,-0.7141,-0.735,-0.85,-0.9884,-0.9981,-1.0513,-1.1111,-1.1111,-1.1111,-1.0982,-1.0641,-1.0465,-1.0397,-1.0091,-1.0038,-1.0038,-1.0038,-1.0038,-1.0038,-1.0038,-1.0267,-1.0575,-1.0575,-1.0901,-1.1194,-1.1194,-1.1194,-1.1194,-1.1194,-1.1194,-1.1194,-1.1194,-1.1194,-1.1194,-1.1194,-1.152,-1.1447,-1.085,-1.1176,-1.122,-1.042,-1.0424,-1.0359,-1.0176,-1.016,-1.016,-1.016,-1.016,-1.016,-1.016,-1.016,-1.0253,-1.0436,-1.0607,-1.0692,-1.0692,-1.0692,-1.0692,-1.9168,-1.9075,-1.9075,-1.9075,-1.9075,0.0,-1.9044,-1.8572,-1.7861,0.0,-1.6245,-1.5551,-1.4776,-1.4585,-1.4585,-1.472,-1.4935,-1.4975,-1.4681,-1.4569,-1.4201,-1.3039,-1.29,-1.2452,-1.1186,-1.1063,-1.0948,-1.0737,-1.0167,-0.985,-0.9796,-0.827,-0.7316,-0.7246,-0.6013,-0.5292,-0.5156,-0.5292,-0.5428,-0.5428,-0.5428,-0.5428,-0.5428,-0.5428,-0.5428,-0.5428,-0.5947,-0.5881,-0.5428,-0.6013,-0.6207,-0.6222,-0.6331,-0.6894,-0.7651,-0.8667,-0.9285,-0.9721,-1.0587,-1.0962,-1.1111,-1.1111,-1.1111,-1.0982,-1.0641,-1.0465,-1.0397,-1.0091,-1.0038,-1.0038,-1.0038,-1.0038,-1.0038,-1.0038,-1.0267,-1.0575,-1.0575,-1.0901,-1.1194,-1.1194,-1.1194,-1.1194,-1.1194,-1.1194,-1.1194,-1.1194,-1.1194,-1.1096,-1.09,-1.0973,-1.0884,-1.0446,-1.0659,-1.067,-1.0217,-1.0351,-1.0359,-1.0176,-1.016,-1.016,-1.016,-1.016,-1.016,-1.016,-1.016,-1.0253,-1.0436,-1.0607,-1.0692,-1.0692,-1.0692,-1.0692,-1.9199,-1.9075,-1.9075,-1.9075,-1.8798,0.0,0.0,-1.7413,-1.6606,-1.5462,-1.5068,-1.4862,-1.4441,-1.4379,-1.449,-1.4855,-1.4911,-1.4847,-1.4593,-1.4935,-1.4852,-1.396,-1.3433,-1.2811,-1.1916,-1.134,-1.1003,-1.0737,-1.0478,-1.0143,-0.9886,-0.8466,-0.7485,-0.7181,-0.6013,-0.5292,-0.5087,-0.5292,-0.5428,-0.5428,-0.5428,-0.5428,-0.5428,-0.5428,-0.5557,-0.5947,-0.6268,-0.6404,-0.6408,-0.6732,-0.712,-0.7386,-0.6764,-0.7324,-0.8567,-0.915,-0.9818,-1.0336,-1.0914,-1.1111,-1.1111,-1.1111,-1.0962,-1.0761,-1.0561,-1.0383,-1.0189,-1.0067,-1.0038,-1.0038,-1.0038,-1.0038,-1.0038,-1.0038,-1.0267,-1.0575,-1.0575,-1.0901,-1.1194,-1.1194,-1.1194,-1.1194,-1.1194,-1.1194,-1.1194,-1.1194,-1.1096,-1.0998,-1.0806,-1.0794,-1.0597,-1.0298,-1.0467,-1.0435,-1.003,-1.0107,-1.0087,-0.9908,-0.9896,-0.9896,-0.9896,-0.9896,-0.9896,-0.9896,-1.0071,-1.0209,-1.0298,-1.0566,-1.0692,-1.0692,-1.0692,-1.0692,-1.9085,-1.894,-1.8961,-1.911,-1.8593,-1.7939,0.0,0.0,0.0,-1.4301,-1.4151,0.0,0.0,0.0,0.0,0.0,0.0,0.0,0.0,-1.5209,0.0,-1.4587,-1.3725,-1.2981,-1.2441,-1.1701,-1.116,-1.0894,-1.0828,-1.0521,-0.998,-0.869,-0.7745,-0.7113,-0.6094,-0.5422,-0.5024,-0.5292,-0.5428,-0.5428,-0.5428,-0.5428,-0.5428,-0.5428,-0.5752,-0.64,-0.6531,-0.6924,-0.7386,-0.7582,-0.7972,-0.8361,-0.7246,-0.7855,-0.9358,-0.9402,-1.0053,-1.0966,-1.1021,-1.1069,-1.1111,-1.1111,-1.0808,-1.0511,-1.0434,-1.0208,-1.0038,-1.0038,-1.0038,-1.0038,-1.0038,-1.0038,-1.0038,-1.0038,-1.0267,-1.0575,-1.0575,-1.0901,-1.1194,-1.1194,-1.1194,-1.1194,-1.1194,-1.1194,-1.1194,-1.1194,-1.1002,-1.0801,-1.0708,-1.0653,-1.0567,-1.0298,-1.033,-1.0355,-0.99,-0.9884,-0.9811,-0.964,-0.9628,-0.9628,-0.9628,-0.9628,-0.9628,-0.9628,-0.9912,-1.0075,-1.0107,-1.0432,-1.0623,-1.0692,-1.0692,-1.0676,-1.8692,-1.8454,-1.8557,-1.8971,-1.8689,-1.8298,-1.7948,0.0,-1.6567,-1.5721,0.0,0.0,0.0,0.0,0.0,0.0,0.0,0.0,-1.5125,-1.4988,-1.4565,-1.3584,-1.2905,-1.2376,-1.2007,-1.1848,-1.1721,-1.1461,-1.1208,-1.0789,-1.0079,-0.9278,-0.815,-0.678,-0.6418,-0.5811,-0.4831,-0.5229,-0.5428,-0.5428,-0.5428,-0.5428,-0.5428,-0.5428,-0.5752,-0.6461,-0.7055,-0.7321,-0.7451,-0.8102,-0.8425,-0.849,-0.8291,-0.8787,-0.9533,-0.9765,-1.0095,-1.0447,-1.0683,-1.0918,-1.1111,-1.1111,-1.0815,-1.0396,-1.005,-0.9961,-1.0038,-1.0038,-1.0038,-1.0038,-1.0038,-1.0038,-1.0038,-1.0038,-1.0267,-1.0575,-1.0575,-1.0901,-1.1194,-1.1194,-1.1194,-1.1194,-1.1194,-1.1194,-1.1194,-1.1194,-1.1194,-1.0998,-1.0507,-1.043,-1.0311,-0.9973,-1.0006,-0.9908,-0.9888,-0.9884,-0.9811,-0.964,-0.9628,-0.9628,-0.9628,-0.9628,-0.9628,-0.9628,-0.9669,-0.9762,-0.9916,-1.0119,-1.0383,-1.0692,-1.0692,-1.0611,-1.894,-1.8328,-1.7976,-1.8342,-1.7494,-1.655,-1.6702,-1.6105,-1.5413,-1.4924,0.0,0.0,0.0,0.0,0.0,0.0,-1.4768,0.0,0.0,0.0,-1.426,0.0,0.0,0.0,-1.1679,-1.1836,-1.1878,-1.1763,-1.1266,-1.0773,-1.0376,-0.9172,-0.8098,-0.7223,-0.6364,-0.5683,-0.5163,-0.5226,-0.5223,-0.5223,-0.5749,-0.6013,-0.6009,-0.6408,-0.6929,-0.7642,-0.7902,-0.8231,-0.863,-0.8952,-0.9081,-0.9081,-0.9081,-0.9374,-0.9724,-0.9832,-1.02,-1.0568,-1.0683,-1.0894,-1.1037,-1.0588,-1.0473,-1.0384,-0.9735,-0.9788,-1.0038,-1.0038,-1.0038,-1.0038,-1.0038,-1.0038,-1.0038,-1.0038,-1.0267,-1.0575,-1.0575,-1.0901,-1.1194,-1.1194,-1.1194,-1.1194,-1.1194,-1.1194,-1.1194,-1.1194,-1.1096,-1.0801,-1.0413,-1.0216,-1.0048,-0.973,-0.9734,-0.9734,-0.9734,-0.9126,-0.8792,-0.863,-0.8124,-0.8322,-0.9529,-0.8421,-0.8024,-0.8623,-0.8213,-0.8024,-0.8066,-0.8312,-0.8491,-0.8692,-1.0025,-0.9877,-1.8588,-1.7971,-1.7475,-1.8056,-1.6973,-1.5751,-1.5808,-1.5263,-1.4654,-1.4283,-1.4387,0.0,0.0,0.0,-1.4569,-1.4569,0.0,-1.4569,0.0,-1.4122,0.0,0.0,0.0,0.0,0.0,-1.1811,-1.1846,-1.176,-1.1417,-1.0884,-1.0253,-0.9332,-0.8411,-0.7445,-0.6642,-0.5996,-0.5624,-0.5488,-0.5488,-0.5484,-0.6203,-0.6531,-0.6531,-0.712,-0.7777,-0.849,-0.849,-0.8882,-0.9484,-0.9484,-0.9484,-0.9484,-0.9484,-0.9598,-0.9766,-0.9766,-1.0164,-1.061,-1.061,-1.0761,-1.0812,-1.0143,-1.0089,-1.0227,-0.9486,-0.9615,-1.0038,-1.0038,-1.0038,-1.0038,-1.0038,-1.0038,-1.0038,-1.0038,-1.0267,-1.0575,-1.0575,-1.0901,-1.1194,-1.1194,-1.1194,-1.1194,-1.1194,-1.1194,-1.1194,-1.1194,-1.0998,-1.0801,-1.0413,-1.001,-0.9517,-0.9225,-0.8924,-0.8722,-0.8722,-0.8021,-0.7521,-0.7521,-0.6822,-0.712,-0.8623,-0.7223,-0.6722,-0.7521,-0.6917,-0.66,-0.669,-0.6945,-0.6851,-0.6605,-0.8763,-0.8893,-1.7266,-1.7199,-1.7105,-1.835,-1.7949,-1.6959,-1.6018,-1.5471,-1.5095,-1.4696,-1.4355,-1.4228,-1.4561,-1.4561,-1.4569,-1.4569,-1.4569,0.0,0.0,0.0,0.0,0.0,0.0,0.0,0.0,-1.1914,-1.168,0.0,-1.1588,-1.1232,-0.9724,-1.0177,-0.9453,-0.7375,-0.7601,-0.7194,-0.6079,-0.6284,-0.6354,-0.635,-0.6736,-0.6859,-0.6924,-0.7256,-0.7777,-0.849,-0.849,-0.8882,-0.9484,-0.9484,-0.9484,-0.9484,-0.9484,-0.949,-0.9496,-0.9496,-0.9826,-1.0345,-1.0345,-1.0395,-1.0443,-0.9992,-0.9933,-0.9826,-0.9409,-0.9615,-1.0038,-1.0038,-1.0038,-1.0038,-1.0038,-1.0038,-1.0038,-1.0038,-1.0267,-1.0575,-1.0575,-1.0901,-1.1194,-1.1194,-1.1194,-1.1194,-1.1194,-1.1194,-1.1194,-1.1194,-1.1194,-1.0998,-1.0511,-0.9509,-0.8612,-0.812,-0.7123,-0.6523,-0.6523,-0.6423,-0.6423,-0.6423,-0.6423,-0.6423,-0.6523,-0.6423,-0.6423,-0.6423,-0.6426,-0.6431,-0.6434,-0.6676,-0.616,-0.511,-0.6593,-0.7737,-1.6067,-1.5716,-1.5378,-1.6495,-1.578,-1.4976,-1.5306,-1.4885,-1.4482,-1.4569,-1.4355,-1.422,-1.4577,-1.4569,-1.4569,-1.4569,-1.4569,-1.4569,0.0,0.0,0.0,0.0,0.0,0.0,0.0,0.0,0.0,-1.1518,-1.1359,0.0,-0.9953,-0.9509,-0.8951,-0.8084,-0.7543,-0.7065,-0.673,-0.634,-0.621,-0.6214,-0.7195,-0.7521,-0.7326,-0.8301,-0.8823,-0.8818,-0.9087,-0.9285,-0.9484,-0.9484,-0.9484,-0.9484,-0.9484,-0.9484,-0.9484,-0.9484,-0.9814,-1.0305,-1.0364,-1.0672,-1.0738,-0.9771,-0.9751,-1.002,-0.9442,-0.9521,-0.9776,-0.9913,-1.0038,-1.0038,-1.0038,-1.0038,-1.0038,-1.0038,-1.0168,-1.0376,-1.0376,-1.0702,-1.1,-1.1,-1.1,-1.1038,-1.1175,-1.0891,-1.0752,-1.0881,-1.0904,-1.0502,-0.9213,-0.8711,-0.8113,-0.7021,-0.6623,-0.6423,-0.6423,-0.5727,-0.5331,-0.5331,-0.463,-0.4929,-0.6323,-0.5029,-0.4632,-0.5331,-0.4632,-0.4282,-0.4387,-0.4548,-0.4414,-0.4074,-0.4564,-0.5018,-1.5047,-1.4806,-1.4443,-1.5446,-1.4816,-1.4136,-1.4689,-1.4347,-1.4021,-1.4379,-1.4268,-1.414,-1.4244,-1.4466,-1.453,-1.4474,-1.4482,-1.4489,0.0,-1.3128,0.0,0.0,0.0,0.0,0.0,0.0,-1.121,-1.1383,-1.1144,0.0,0.0,-0.9428,-0.8913,-0.8411,-0.7717,-0.7336,-0.7198,-0.6796,-0.6601,-0.6601,-0.7521,-0.7922,-0.7917,-0.8894,-0.9285,-0.9215,-0.9414,-0.9484,-0.9484,-0.9484,-0.9484,-0.9484,-0.9484,-0.9484,-0.9484,-0.9484,-0.9814,-1.0335,-1.0415,-1.0588,-1.0513,-0.962,-0.9545,-0.9665,-0.9336,-0.9417,-0.9672,-0.9804,-0.9894,-1.0038,-1.0038,-1.0038,-1.0038,-1.0038,-1.0116,-1.0272,-1.0272,-1.0603,-1.0896,-1.0896,-1.0953,-1.1042,-1.1072,-1.0798,-1.066,-1.0783,-1.0703,-1.0105,-0.8612,-0.8113,-0.7319,-0.5927,-0.5527,-0.5227,-0.5227,-0.4632,-0.4234,-0.4234,-0.3632,-0.383,-0.5229,-0.393,-0.3531,-0.4234,-0.3531,-0.3281,-0.338,-0.338,-0.3429,-0.3525,-0.3525,-0.3536]},{"header":{"parameterUnit":"m.s-1","parameterCategory":1,"la1":30.6,"la2":29.2853,"lo1":-89.7004,"lo2":-87.6739,"dy":0.0162,"dx":0.0183,"nx":112,"ny":82,"refTime":"2024-06-24T00:00:00:Z","depth":0,"parameterNumber":3,"parameterNumberName":"V-component_of_WINDS"},"data":[0.0,0.0,0.0,0.0,0.0,0.0,0.0,0.0,0.0,0.0,0.0,0.0,0.0,0.0,0.0,0.0,0.0,0.0,0.0,0.0,0.0,0.0,0.0,0.0,0.0,0.0,0.0,0.0,0.0,0.0,0.0,0.0,0.0,0.0,0.0,0.0,0.0,0.0,0.0,0.0,0.0,0.0,0.0,0.0,0.0,0.0,0.0,0.0,0.0,0.0,0.0,0.0,0.0,0.0,0.0,0.0,0.0,0.0,0.0,0.0,0.0,0.0,0.0,0.0,0.0,0.0,0.0,0.0,0.0,0.0,0.0,0.0,0.0,0.0,0.0,0.0,0.0,0.0,0.0,0.0,0.0,0.0,0.0,0.0,0.0,0.0,0.0,0.0,0.0,0.0,-2.9332,-2.833,-2.7363,-2.6779,-2.6779,-2.6799,-2.7171,-2.799,0.0,0.0,0.0,0.0,0.0,0.0,0.0,0.0,0.0,0.0,0.0,0.0,0.0,0.0,0.0,0.0,0.0,0.0,0.0,0.0,0.0,0.0,0.0,0.0,0.0,0.0,0.0,0.0,0.0,0.0,0.0,0.0,0.0,0.0,0.0,0.0,0.0,0.0,0.0,0.0,0.0,0.0,0.0,0.0,0.0,0.0,0.0,0.0,0.0,0.0,0.0,0.0,0.0,0.0,0.0,0.0,0.0,0.0,0.0,0.0,0.0,0.0,0.0,0.0,0.0,0.0,0.0,0.0,0.0,0.0,0.0,0.0,0.0,0.0,0.0,0.0,0.0,0.0,0.0,0.0,0.0,0.0,0.0,0.0,0.0,0.0,0.0,0.0,0.0,0.0,0.0,0.0,0.0,0.0,0.0,0.0,0.0,0.0,0.0,0.0,0.0,0.0,0.0,0.0,-2.7679,-2.712,-2.689,-2.6779,-2.6779,-2.6799,-2.6857,-2.701,0.0,0.0,0.0,0.0,0.0,0.0,0.0,0.0,0.0,0.0,0.0,0.0,0.0,0.0,0.0,0.0,0.0,0.0,0.0,0.0,0.0,0.0,0.0,0.0,0.0,0.0,0.0,0.0,0.0,0.0,0.0,0.0,0.0,0.0,0.0,0.0,0.0,0.0,0.0,0.0,0.0,0.0,0.0,0.0,0.0,0.0,0.0,0.0,0.0,0.0,0.0,0.0,0.0,0.0,0.0,0.0,0.0,0.0,0.0,0.0,0.0,0.0,0.0,0.0,0.0,0.0,0.0,0.0,0.0,0.0,0.0,0.0,0.0,0.0,0.0,0.0,0.0,0.0,0.0,0.0,0.0,0.0,0.0,0.0,0.0,0.0,0.0,0.0,0.0,0.0,0.0,0.0,0.0,0.0,0.0,0.0,0.0,0.0,0.0,0.0,0.0,0.0,0.0,-2.8299,-2.7392,-2.6875,-2.6779,-2.6779,-2.6779,-2.6805,-2.6777,-2.6803,-2.8748,0.0,0.0,0.0,0.0,0.0,0.0,0.0,0.0,0.0,0.0,0.0,0.0,0.0,0.0,0.0,0.0,0.0,0.0,0.0,0.0,0.0,0.0,0.0,0.0,0.0,0.0,0.0,0.0,0.0,0.0,0.0,0.0,0.0,0.0,0.0,0.0,0.0,0.0,0.0,0.0,0.0,0.0,0.0,0.0,0.0,0.0,0.0,0.0,0.0,0.0,0.0,0.0,0.0,0.0,0.0,0.0,0.0,0.0,0.0,0.0,0.0,0.0,0.0,0.0,0.0,0.0,0.0,0.0,0.0,0.0,0.0,0.0,0.0,0.0,0.0,0.0,0.0,0.0,0.0,0.0,0.0,0.0,0.0,0.0,0.0,0.0,0.0,0.0,0.0,0.0,0.0,0.0,0.0,0.0,0.0,0.0,0.0,0.0,0.0,0.0,0.0,0.0,-2.8062,-2.7625,-2.6862,-2.6823,-2.6808,-2.6775,-2.6823,-2.6872,-2.7166,-2.862,0.0,0.0,0.0,0.0,0.0,0.0,0.0,0.0,0.0,0.0,0.0,0.0,0.0,0.0,0.0,0.0,0.0,0.0,0.0,0.0,0.0,0.0,0.0,0.0,0.0,0.0,0.0,0.0,0.0,0.0,0.0,0.0,0.0,0.0,0.0,0.0,0.0,0.0,0.0,0.0,0.0,0.0,0.0,0.0,0.0,0.0,0.0,0.0,0.0,0.0,0.0,0.0,0.0,0.0,0.0,0.0,0.0,0.0,0.0,0.0,0.0,0.0,0.0,0.0,0.0,0.0,0.0,0.0,0.0,0.0,0.0,0.0,0.0,0.0,0.0,0.0,0.0,0.0,0.0,0.0,0.0,0.0,0.0,0.0,0.0,0.0,0.0,0.0,0.0,0.0,0.0,0.0,0.0,0.0,0.0,0.0,0.0,0.0,0.0,0.0,0.0,0.0,-2.7937,-2.8134,-2.6923,-2.6794,-2.6789,-2.6809,-2.678,-2.7203,-2.8128,-2.831,0.0,0.0,0.0,0.0,0.0,0.0,0.0,0.0,0.0,0.0,0.0,0.0,0.0,0.0,0.0,0.0,0.0,0.0,0.0,0.0,0.0,0.0,0.0,0.0,0.0,0.0,0.0,0.0,0.0,0.0,0.0,0.0,0.0,0.0,0.0,0.0,0.0,0.0,0.0,0.0,0.0,0.0,0.0,0.0,0.0,0.0,0.0,0.0,0.0,0.0,0.0,0.0,0.0,0.0,0.0,0.0,0.0,0.0,0.0,0.0,0.0,0.0,0.0,0.0,0.0,0.0,0.0,0.0,0.0,0.0,0.0,0.0,0.0,0.0,0.0,0.0,0.0,0.0,0.0,0.0,0.0,0.0,0.0,0.0,0.0,0.0,0.0,0.0,0.0,0.0,0.0,0.0,0.0,0.0,0.0,0.0,0.0,0.0,0.0,0.0,0.0,0.0,-2.7549,-2.7741,-2.6881,-2.7258,-2.734,-2.6862,-2.6799,-2.7144,-2.792,0.0,0.0,0.0,0.0,0.0,0.0,0.0,0.0,0.0,0.0,0.0,0.0,0.0,0.0,0.0,0.0,0.0,0.0,0.0,0.0,0.0,0.0,0.0,0.0,0.0,0.0,0.0,0.0,0.0,0.0,0.0,0.0,0.0,0.0,0.0,0.0,0.0,0.0,0.0,0.0,0.0,0.0,0.0,0.0,0.0,0.0,0.0,0.0,0.0,0.0,0.0,0.0,0.0,0.0,0.0,0.0,0.0,0.0,0.0,0.0,0.0,0.0,0.0,0.0,0.0,0.0,0.0,0.0,0.0,0.0,0.0,0.0,0.0,0.0,0.0,0.0,0.0,0.0,0.0,0.0,0.0,0.0,0.0,0.0,0.0,0.0,0.0,0.0,0.0,0.0,0.0,0.0,0.0,0.0,0.0,0.0,0.0,0.0,0.0,0.0,0.0,0.0,-2.7299,-2.774,-2.7824,-2.6905,-2.7272,-2.7556,-2.7305,-2.7158,-2.7416,-2.8183,0.0,0.0,0.0,0.0,0.0,0.0,0.0,0.0,0.0,0.0,0.0,0.0,0.0,0.0,0.0,0.0,0.0,0.0,0.0,0.0,0.0,0.0,0.0,0.0,0.0,0.0,0.0,0.0,0.0,0.0,0.0,0.0,0.0,0.0,0.0,0.0,0.0,0.0,0.0,0.0,0.0,0.0,0.0,0.0,0.0,0.0,0.0,0.0,0.0,0.0,0.0,0.0,0.0,0.0,0.0,0.0,0.0,0.0,0.0,0.0,0.0,0.0,0.0,0.0,0.0,0.0,0.0,0.0,0.0,0.0,0.0,0.0,0.0,0.0,0.0,0.0,0.0,0.0,0.0,0.0,0.0,0.0,0.0,0.0,0.0,0.0,0.0,0.0,0.0,0.0,0.0,0.0,0.0,0.0,0.0,0.0,0.0,0.0,0.0,0.0,0.0,0.0,-2.7906,-2.866,-2.8647,-2.6966,-2.6794,-2.7208,-2.8211,-2.8015,-2.8183,0.0,0.0,0.0,0.0,0.0,0.0,0.0,0.0,0.0,0.0,0.0,0.0,0.0,0.0,0.0,0.0,0.0,0.0,0.0,0.0,0.0,0.0,0.0,0.0,0.0,0.0,0.0,0.0,0.0,0.0,0.0,0.0,0.0,0.0,0.0,0.0,0.0,0.0,0.0,0.0,0.0,0.0,0.0,0.0,0.0,0.0,0.0,0.0,0.0,0.0,0.0,0.0,0.0,0.0,0.0,0.0,0.0,0.0,0.0,0.0,0.0,0.0,0.0,0.0,0.0,0.0,0.0,0.0,0.0,0.0,0.0,0.0,0.0,0.0,0.0,0.0,0.0,0.0,0.0,0.0,0.0,0.0,0.0,0.0,0.0,0.0,0.0,0.0,0.0,0.0,0.0,0.0,0.0,0.0,0.0,0.0,0.0,0.0,0.0,0.0,0.0,0.0,0.0,-2.7939,-2.8576,-2.8538,-2.6956,-2.72,-2.7739,-2.824,-2.8296,-2.8542,-2.9198,0.0,0.0,0.0,0.0,0.0,0.0,0.0,0.0,0.0,0.0,0.0,0.0,0.0,0.0,0.0,0.0,0.0,0.0,0.0,0.0,0.0,0.0,0.0,0.0,0.0,0.0,0.0,0.0,0.0,0.0,0.0,0.0,0.0,0.0,0.0,0.0,0.0,0.0,0.0,0.0,0.0,0.0,0.0,0.0,0.0,0.0,0.0,0.0,0.0,0.0,0.0,0.0,0.0,0.0,0.0,0.0,0.0,0.0,0.0,0.0,0.0,0.0,0.0,0.0,0.0,0.0,0.0,0.0,0.0,0.0,0.0,0.0,0.0,0.0,0.0,0.0,0.0,0.0,0.0,0.0,0.0,0.0,0.0,0.0,0.0,0.0,0.0,0.0,0.0,0.0,0.0,0.0,0.0,0.0,0.0,0.0,0.0,0.0,0.0,0.0,0.0,0.0,-2.8622,-2.9252,-2.9273,-2.8146,-2.8383,-2.8714,-2.8998,-2.8889,-2.9044,-2.9605,0.0,0.0,0.0,0.0,0.0,0.0,0.0,0.0,0.0,0.0,0.0,0.0,0.0,0.0,0.0,0.0,0.0,0.0,0.0,0.0,0.0,0.0,0.0,0.0,0.0,0.0,0.0,0.0,0.0,0.0,0.0,0.0,0.0,0.0,0.0,0.0,0.0,0.0,0.0,0.0,0.0,0.0,0.0,0.0,0.0,0.0,0.0,0.0,0.0,0.0,0.0,0.0,0.0,0.0,0.0,0.0,0.0,0.0,0.0,0.0,0.0,0.0,0.0,0.0,0.0,0.0,0.0,0.0,0.0,0.0,0.0,0.0,0.0,0.0,0.0,0.0,0.0,0.0,0.0,0.0,0.0,0.0,0.0,0.0,0.0,0.0,0.0,0.0,0.0,0.0,0.0,0.0,0.0,0.0,0.0,0.0,0.0,0.0,0.0,0.0,0.0,0.0,-2.9699,-3.024,-3.0389,-3.0005,-2.9959,-2.9958,-3.0119,-2.9662,-2.9665,-3.0189,0.0,0.0,0.0,0.0,0.0,0.0,0.0,0.0,0.0,0.0,0.0,0.0,0.0,0.0,0.0,0.0,0.0,0.0,0.0,0.0,0.0,0.0,0.0,0.0,0.0,0.0,0.0,0.0,0.0,0.0,0.0,0.0,0.0,0.0,0.0,0.0,0.0,0.0,0.0,0.0,0.0,0.0,0.0,0.0,0.0,0.0,0.0,0.0,0.0,0.0,0.0,0.0,0.0,0.0,0.0,0.0,0.0,0.0,0.0,0.0,-2.9437,-2.8951,0.0,0.0,0.0,0.0,0.0,0.0,0.0,0.0,0.0,0.0,0.0,0.0,0.0,0.0,0.0,0.0,0.0,0.0,0.0,0.0,0.0,0.0,0.0,0.0,0.0,0.0,0.0,0.0,0.0,0.0,0.0,0.0,0.0,0.0,0.0,0.0,0.0,0.0,0.0,0.0,-2.9714,-2.9961,-3.0122,-3.0367,-3.0243,-3.0136,-3.019,-3.0195,-3.0231,-3.0375,-2.9708,0.0,0.0,0.0,0.0,0.0,0.0,0.0,0.0,0.0,0.0,0.0,0.0,0.0,0.0,0.0,0.0,0.0,0.0,0.0,0.0,0.0,0.0,0.0,0.0,0.0,0.0,0.0,0.0,0.0,0.0,0.0,0.0,0.0,0.0,0.0,0.0,0.0,0.0,0.0,0.0,0.0,0.0,0.0,0.0,0.0,0.0,0.0,0.0,0.0,0.0,0.0,0.0,0.0,0.0,0.0,0.0,0.0,0.0,0.0,-3.0393,-3.036,0.0,0.0,0.0,0.0,0.0,0.0,0.0,0.0,0.0,0.0,0.0,0.0,0.0,0.0,0.0,0.0,0.0,0.0,0.0,0.0,0.0,0.0,0.0,0.0,0.0,0.0,0.0,0.0,0.0,0.0,0.0,0.0,0.0,0.0,0.0,0.0,0.0,0.0,0.0,0.0,-2.9645,-3.1307,-3.1818,-3.0652,-3.0434,-3.0349,-3.029,-3.0375,-3.0401,-3.0443,-2.979,0.0,0.0,0.0,0.0,0.0,0.0,0.0,0.0,0.0,0.0,0.0,0.0,0.0,0.0,0.0,0.0,0.0,0.0,0.0,0.0,0.0,0.0,0.0,0.0,0.0,0.0,0.0,0.0,0.0,0.0,0.0,0.0,0.0,0.0,0.0,0.0,0.0,0.0,0.0,0.0,0.0,0.0,0.0,0.0,0.0,0.0,0.0,0.0,0.0,0.0,0.0,0.0,0.0,-3.1154,-3.1105,-3.047,-3.047,-3.047,-3.0502,-3.104,-3.1494,-3.1785,-3.1445,0.0,0.0,0.0,0.0,0.0,0.0,0.0,0.0,0.0,0.0,0.0,0.0,0.0,0.0,0.0,0.0,0.0,0.0,0.0,0.0,0.0,0.0,-3.3727,-3.2979,-3.3378,-3.3366,-3.147,0.0,0.0,0.0,0.0,0.0,0.0,0.0,0.0,0.0,0.0,0.0,-3.0437,-3.3188,-3.3951,-3.1516,-3.104,-3.0839,-3.0707,-3.0632,-3.0591,-3.0485,-2.9947,-2.9705,0.0,0.0,0.0,0.0,0.0,0.0,0.0,0.0,0.0,0.0,0.0,0.0,0.0,0.0,0.0,0.0,0.0,0.0,0.0,0.0,0.0,0.0,0.0,0.0,0.0,0.0,0.0,0.0,0.0,0.0,0.0,0.0,-2.6471,-2.7384,0.0,0.0,0.0,0.0,0.0,0.0,0.0,0.0,0.0,0.0,0.0,0.0,0.0,-2.939,-2.9896,-3.1791,-3.2757,-3.2676,-3.3356,-3.3323,-3.2659,-3.2659,-3.2659,-3.2659,-3.2757,0.0,-3.1154,-3.2319,0.0,0.0,0.0,0.0,0.0,0.0,0.0,0.0,0.0,0.0,0.0,0.0,0.0,0.0,0.0,0.0,0.0,0.0,0.0,0.0,0.0,0.0,-3.4139,-3.3397,-3.3785,-3.4124,-3.3499,-3.2862,-3.2398,-3.2398,-3.2315,-3.2249,0.0,0.0,0.0,0.0,0.0,0.0,-3.3881,-3.4631,-3.4777,-3.4384,-3.3184,-3.2216,-3.1812,-3.1586,-3.1163,-3.0518,-3.0427,-3.0808,-3.1877,-3.056,0.0,0.0,0.0,0.0,0.0,0.0,0.0,0.0,0.0,0.0,0.0,0.0,0.0,0.0,0.0,0.0,0.0,0.0,0.0,0.0,0.0,0.0,0.0,0.0,0.0,0.0,0.0,0.0,0.0,-2.5981,-2.7214,-2.6887,-2.7217,-2.7199,0.0,0.0,0.0,0.0,0.0,0.0,0.0,0.0,0.0,-2.859,-2.9593,-3.0574,-3.158,-3.285,-3.3321,-3.308,-3.2983,-3.2773,-3.2465,-3.206,-3.2093,-3.2498,-3.2919,-3.2724,-3.219,-3.2821,-3.2902,-3.2611,0.0,0.0,0.0,0.0,-3.2368,-3.206,-3.2465,-3.2643,-3.256,-3.1938,0.0,0.0,0.0,0.0,0.0,0.0,0.0,-3.4242,-3.453,-3.4479,-3.4472,-3.484,-3.4848,-3.4806,-3.4835,-3.4578,-3.4253,-3.3968,-3.3508,-3.3098,-3.3098,-3.1663,0.0,0.0,0.0,-3.3433,-3.4747,-3.491,-3.491,-3.491,-3.3806,-3.2885,-3.2426,-3.2266,-3.1988,-3.1491,-3.1867,-3.23,-3.2637,-3.2436,-3.253,0.0,0.0,0.0,0.0,0.0,0.0,0.0,0.0,0.0,0.0,0.0,0.0,0.0,0.0,0.0,0.0,0.0,0.0,0.0,0.0,0.0,0.0,0.0,0.0,0.0,0.0,0.0,0.0,-2.7182,-2.7818,-2.7035,-2.7702,-2.7846,0.0,0.0,0.0,0.0,0.0,0.0,-2.8104,-2.7842,-2.8247,-2.956,-3.0626,-3.1662,-3.2704,-3.3444,-3.3641,-3.334,-3.2805,-3.2449,-3.2271,-3.172,-3.1769,-3.2319,-3.2854,-3.3194,-3.3356,-3.3356,-3.3356,-3.3356,-3.3356,-3.3016,-3.2611,-3.3145,-3.3,-3.2675,-3.321,-3.347,-3.3452,-3.2994,-3.3082,-3.3141,-3.1857,0.0,0.0,0.0,0.0,-3.5044,-3.5531,-3.5207,-3.4907,-3.5641,-3.5509,-3.5283,-3.5471,-3.5579,-3.5548,-3.5131,-3.4392,-3.3831,-3.3993,-3.2668,0.0,-3.1606,-3.3504,-3.4877,-3.4885,-3.5287,-3.5446,-3.5182,-3.4589,-3.4011,-3.3376,-3.3342,-3.3152,-3.27,-3.3257,-3.3596,-3.3647,-3.4033,-3.4257,-3.4217,0.0,0.0,0.0,0.0,0.0,0.0,0.0,0.0,0.0,0.0,0.0,0.0,0.0,0.0,0.0,0.0,0.0,0.0,0.0,0.0,0.0,0.0,0.0,0.0,0.0,0.0,0.0,0.0,0.0,-2.9208,-2.9499,0.0,0.0,0.0,0.0,-2.8304,-2.7134,-2.7519,-3.0135,-2.9058,-2.9342,-3.1602,-3.2002,-3.2371,-3.2704,-3.3595,-3.4084,-3.4052,-3.4003,-3.3663,-3.3032,-3.3,-3.3,-3.3032,-3.3064,-3.3453,-3.4052,-3.4052,-3.4052,-3.4052,-3.4052,-3.4036,-3.4003,-3.4036,-3.4136,-3.4202,-3.4235,-3.435,-3.4431,-3.4544,-3.4209,-3.386,-3.4179,-3.4353,0.0,0.0,-3.5604,-3.6049,-3.5776,-3.5644,-3.5489,-3.4916,-3.5212,-3.5605,-3.5278,-3.5511,-3.5737,-3.5582,-3.5178,-3.5015,-3.5571,0.0,-3.4668,-3.4695,-3.481,-3.4885,-3.488,-3.6417,-3.7035,-3.5898,-3.6199,-3.6128,-3.518,-3.5094,-3.4766,-3.4029,-3.4029,-3.4536,-3.5621,-3.5041,-3.5153,-3.6221,-3.4079,0.0,0.0,0.0,0.0,0.0,0.0,0.0,0.0,0.0,0.0,0.0,0.0,0.0,0.0,0.0,0.0,0.0,0.0,0.0,0.0,0.0,0.0,0.0,0.0,0.0,0.0,0.0,0.0,-2.8832,-2.9642,0.0,-2.8592,-2.8479,-2.8857,-2.9627,-2.8858,-2.9119,-3.0951,-3.0197,-3.0432,-3.2065,-3.2266,-3.2727,-3.3562,-3.3921,-3.4101,-3.4101,-3.3647,-3.355,-3.3728,-3.3291,-3.3323,-3.3744,-3.3744,-3.3874,-3.4101,-3.4101,-3.4101,-3.4101,-3.4101,-3.4101,-3.4101,-3.4101,-3.4151,-3.4201,-3.425,-3.4561,-3.5098,-3.5873,-3.5745,-3.5454,-3.5918,-3.6041,-3.6017,-3.5877,-3.6232,-3.6614,-3.651,-3.6071,-3.5849,-3.6413,-3.6362,-3.6145,-3.6147,-3.6272,-3.6278,-3.6028,-3.5402,-3.4993,-3.5189,-3.5028,-3.5318,-3.6464,-3.6663,-3.6655,-3.6661,-3.6861,-3.6879,-3.6406,-3.6396,-3.6215,-3.587,-3.5835,-3.5648,-3.5144,-3.5619,-3.5987,-3.6202,-3.6488,-3.6595,-3.654,-3.5733,-3.4616,0.0,0.0,0.0,0.0,0.0,0.0,0.0,0.0,0.0,0.0,0.0,0.0,0.0,0.0,0.0,0.0,0.0,0.0,0.0,0.0,0.0,0.0,0.0,0.0,0.0,0.0,-2.9977,-2.9593,-3.0303,-3.0346,-2.9134,-2.9451,-3.002,-3.0576,-3.0099,-3.0228,-3.132,-3.1087,-3.1426,-3.2598,-3.2716,-3.3179,-3.4101,-3.4101,-3.4101,-3.4101,-3.3647,-3.3663,-3.4084,-3.3631,-3.368,-3.4101,-3.4101,-3.4101,-3.4101,-3.425,-3.43,-3.43,-3.4151,-3.4201,-3.43,-3.4366,-3.4496,-3.469,-3.4864,-3.522,-3.5654,-3.644,-3.644,-3.6316,-3.6781,-3.69,-3.686,-3.6741,-3.69,-3.715,-3.715,-3.6723,-3.6551,-3.7415,-3.7184,-3.6844,-3.6955,-3.7006,-3.6953,-3.6738,-3.5705,-3.5098,-3.5704,-3.581,-3.6203,-3.7443,-3.7596,-3.7603,-3.76,-3.7234,-3.6963,-3.6783,-3.6708,-3.6684,-3.6684,-3.6684,-3.6593,-3.639,-3.6905,-3.7071,-3.6898,-3.7453,-3.7524,-3.704,-3.6856,-3.5735,-3.3707,0.0,0.0,0.0,0.0,0.0,0.0,0.0,0.0,0.0,0.0,0.0,0.0,0.0,0.0,0.0,0.0,0.0,0.0,0.0,0.0,0.0,0.0,0.0,-3.147,-3.0734,-3.0566,-3.1658,-3.1622,-3.1303,-3.083,-3.0991,-3.1079,-3.1144,-3.0705,-3.0735,-3.1435,-3.1694,-3.2269,-3.3277,-3.3555,-3.3848,-3.4101,-3.4101,-3.4101,-3.4101,-3.4101,-3.4101,-3.4101,-3.4101,-3.4101,-3.4101,-3.4101,-3.4101,-3.4151,-3.4497,-3.4691,-3.4643,-3.43,-3.4349,-3.4739,-3.4958,-3.5295,-3.5742,-3.6088,-3.6215,-3.6215,-3.6232,-3.6215,-3.6357,-3.6781,-3.69,-3.7034,-3.7449,-3.7577,-3.7577,-3.7577,-3.7577,-3.7577,-3.7577,-3.7577,-3.7577,-3.7577,-3.7577,-3.7577,-3.7577,-3.6189,-3.5562,-3.7294,-3.7605,-3.7605,-3.7603,-3.7591,0.0,-3.7572,-3.7614,-3.7439,-3.6974,-3.7319,-3.7577,-3.7613,-3.7613,-3.7649,-3.7703,-3.7703,-3.7757,-3.7899,-3.7899,-3.7899,-3.7899,-3.7176,-3.6089,-3.4573,0.0,0.0,0.0,0.0,0.0,0.0,0.0,0.0,0.0,0.0,0.0,0.0,0.0,0.0,0.0,0.0,0.0,0.0,0.0,0.0,0.0,-3.1214,-3.1373,-3.0846,-3.1449,-3.1788,-3.1461,-3.1404,-3.1146,-3.0632,-3.0762,-3.1115,-3.163,-3.133,-3.161,-3.2672,-3.2623,-3.2786,-3.3309,-3.3555,-3.3848,-3.4101,-3.4101,-3.4101,-3.4101,-3.4101,-3.4101,-3.4101,-3.4101,-3.4101,-3.4101,-3.4101,-3.4101,-3.4101,-3.4201,-3.4448,-3.4691,-3.4866,-3.4944,-3.5085,-3.5295,-3.561,-3.6037,-3.6422,-3.6643,-3.6764,-3.7111,-3.7206,-3.7243,-3.7374,-3.7411,-3.7411,-3.7577,-3.7577,-3.7577,-3.7577,-3.7577,-3.7577,-3.7577,-3.7577,-3.7577,-3.7577,-3.7577,-3.7577,-3.7577,-3.7217,-3.7017,-3.75,-3.7611,-3.7611,-3.7603,-3.7587,-3.7607,-3.762,-3.7587,-3.7573,-3.7429,-3.754,-3.7613,-3.7667,-3.7667,-3.7721,-3.7846,-3.7864,-3.7864,-3.7899,-3.7951,-3.802,-3.8124,-3.7362,-3.6729,0.0,0.0,0.0,0.0,0.0,0.0,0.0,0.0,0.0,0.0,0.0,0.0,0.0,0.0,0.0,0.0,0.0,0.0,0.0,0.0,0.0,0.0,-3.2175,-3.2252,-3.1359,-3.1906,-3.2256,-3.1961,-3.1538,-3.1336,-3.1362,-3.15,-3.1913,-3.2754,-3.2606,-3.2787,-3.3443,-3.3419,-3.3398,-3.345,-3.3761,-3.3949,-3.4101,-3.4101,-3.4101,-3.4101,-3.4101,-3.4101,-3.4101,-3.4101,-3.4101,-3.4101,-3.4101,-3.4201,-3.4349,-3.4529,-3.4802,-3.5148,0.0,0.0,0.0,0.0,-3.6457,-3.6759,-3.6978,-3.715,-3.7243,-3.7503,-3.7577,-3.7577,-3.7577,-3.7577,-3.7577,-3.7577,-3.7577,-3.7577,-3.7577,-3.7577,-3.7577,-3.7577,-3.7577,-3.7577,-3.7577,-3.7577,-3.7577,-3.7577,-3.7577,0.0,-3.9354,-3.8455,-3.7577,-3.7577,-3.7577,-3.7577,-3.7577,-3.7613,-3.7649,-3.7649,-3.7703,-3.7739,-3.7792,-3.7792,0.0,0.0,0.0,-3.7951,-3.8003,-3.8054,0.0,0.0,0.0,0.0,0.0,0.0,0.0,0.0,-3.7522,-3.8464,0.0,0.0,0.0,0.0,0.0,0.0,0.0,0.0,0.0,0.0,0.0,0.0,0.0,0.0,0.0,0.0,-3.3082,-3.3636,-3.2632,-3.2266,-3.2228,-3.2616,-3.1876,-3.1645,-3.2383,-3.2504,-3.2918,-3.3979,-3.3939,-3.3905,-3.3969,-3.4068,0.0,0.0,0.0,-3.4201,-3.4151,-3.4151,-3.4151,-3.4101,-3.4101,-3.4101,-3.4101,-3.4151,-3.4151,-3.4151,-3.4201,-3.4448,-3.4787,-3.5085,-3.5453,-3.581,-3.5374,-3.5582,-3.6284,-3.7048,-3.7447,-3.7577,-3.7577,0.0,0.0,-3.7577,-3.7577,-3.7577,-3.7577,-3.7577,-3.7577,-3.7577,-3.7577,-3.7577,-3.7577,-3.7577,-3.7577,-3.7577,-3.7577,-3.7577,-3.7577,-3.7577,-3.7577,-3.7577,-3.7577,-3.8526,-4.1556,-3.9732,-3.7845,-3.7809,-3.7792,-3.7756,-3.7649,-3.7685,-3.7703,-3.7703,0.0,0.0,-3.7899,-3.7899,-3.7951,-3.8036,-3.8018,-3.8088,-3.8192,-3.8192,-3.8192,-3.8192,-3.8192,-3.8228,-3.8337,-3.9043,-3.9478,-3.9659,-3.9568,-3.993,0.0,0.0,0.0,0.0,0.0,0.0,0.0,0.0,0.0,0.0,0.0,0.0,0.0,0.0,0.0,-3.3177,-3.3643,-3.3807,-3.3687,-3.3075,-3.242,-3.1898,-3.1665,-3.1572,-3.1705,-3.1873,-3.2454,-3.3692,-3.3462,-3.3744,-3.4861,-3.4673,-3.4529,-3.4609,-3.4833,-3.4866,-3.4594,-3.4594,-3.4399,-3.4101,-3.4101,0.0,-3.4101,-3.4448,-3.4594,-3.4594,-3.4849,-3.5038,-3.5085,-3.5178,-3.5616,-3.6308,-3.6343,-3.6568,-3.6851,-3.7182,-3.7447,-3.7577,-3.7577,-3.7577,-3.7577,-3.7577,-3.7577,-3.7577,-3.7577,-3.7577,0.0,-3.7577,-3.7577,-3.7577,-3.7577,-3.7577,-3.7577,-3.7577,-3.7577,-3.7577,-3.7577,-3.7577,-3.7577,-3.7577,-3.7577,-3.8276,-4.0346,-4.0001,-3.9351,-3.9084,-3.9048,-3.8743,-3.7936,-3.7864,-3.7864,-3.7864,-3.7899,-3.7916,-3.7967,-3.8002,-3.8036,-3.814,-3.8174,-3.8174,-3.8192,-3.8192,-3.8192,-3.8192,-3.8192,-3.85,-3.917,-3.9315,-4.0039,-4.1252,-4.06,-4.0727,0.0,0.0,0.0,0.0,0.0,0.0,0.0,0.0,0.0,0.0,0.0,-2.9544,-3.0673,0.0,-3.196,-3.3532,-3.3807,-3.3752,-3.3664,-3.3314,-3.2699,-3.1802,-3.1617,-3.1771,-3.2166,-3.2213,-3.2836,-3.4322,-3.4165,-3.4421,-3.5448,-3.5253,-3.5068,-3.5005,-3.5115,-3.5131,-3.4961,-3.4961,-3.4866,-3.4658,-3.4658,-3.4658,-3.4658,-3.4866,-3.4961,-3.4961,-3.5131,-3.5316,-3.5543,-3.5827,-3.6174,-3.6568,-3.6869,-3.7105,-3.7317,-3.7392,-3.7503,-3.7577,-3.7577,-3.7577,-3.7577,-3.7577,-3.7577,-3.7577,-3.7577,-3.7577,-3.7577,-3.7577,-3.7577,-3.7577,-3.7577,-3.7577,-3.7577,-3.7577,-3.7577,-3.7577,-3.7577,-3.7577,-3.7577,-3.7577,-3.8042,-3.8884,-4.0344,-4.0592,-4.0538,-4.0327,-3.9697,-3.9049,-3.8564,-3.8528,-3.8545,-3.8545,-3.8598,-3.8668,-3.8685,-3.8323,-3.814,-3.8192,-3.8192,-3.8192,-3.8192,-3.8192,-3.8373,-3.879,-3.879,-3.917,-3.9948,-4.0365,-4.0963,-4.1723,-4.1705,-4.1922,0.0,0.0,0.0,0.0,0.0,0.0,0.0,0.0,-2.9626,-2.9471,-2.9388,-2.9786,-3.1302,-3.1544,-3.201,-3.3532,-3.3807,-3.368,-3.335,-3.3291,-3.297,-3.2109,-3.1839,-3.199,-3.2723,-3.2702,-3.3294,-3.4869,-3.4947,-3.519,-3.5864,-3.5783,-3.5605,-3.5407,-3.5391,-3.5407,-3.5316,-3.5316,-3.527,-3.5224,-3.5224,-3.5224,-3.5224,-3.527,-3.5316,-3.5316,-3.5407,-3.5633,-3.6002,-3.6544,-3.6766,-3.6846,-3.722,-3.7447,-3.7577,-3.7577,-3.7577,-3.7577,-3.7577,-3.7577,-3.7577,-3.7577,-3.7577,-3.7577,-3.7577,-3.7577,-3.7577,-3.7577,-3.7577,-3.7577,-3.7577,-3.7577,-3.7577,-3.7577,-3.7577,-3.7577,-3.7577,-3.7577,-3.7577,-3.7577,-3.847,-3.9546,-4.0594,-4.1058,-4.1312,-4.1286,-4.0329,-3.9535,-3.9373,-3.9427,-3.9445,-3.9445,-3.9425,-3.9333,-3.917,-3.8554,-3.8192,-3.8192,-3.8192,-3.8192,-3.8192,-3.8192,-3.8588,-3.9454,-3.9472,-3.9942,-4.0921,-4.1505,-4.1887,-4.205,-4.263,-4.2882,-3.023,-3.0169,-3.0109,-3.0086,-3.0225,-3.0267,0.0,0.0,-2.9943,-2.957,-2.9476,-2.99,-3.1254,-3.152,-3.201,-3.3532,-3.3807,-3.368,-3.335,-3.3291,-3.3154,-3.2749,-3.2403,-3.2249,-3.2371,-3.2676,-3.3227,-3.4145,-3.4679,-3.5383,-3.6224,-3.6148,-3.6165,-3.6174,-3.6174,-3.6028,-3.5739,-3.5722,-3.5543,-3.5224,-3.5224,-3.5224,-3.5224,-3.5588,-3.5722,-3.5722,-3.6045,-3.636,-3.6602,-3.6869,-3.7066,-3.7259,-3.7484,-3.7594,-3.7577,-3.7577,-3.7577,-3.7577,-3.7577,-3.7577,-3.7577,-3.7577,-3.7577,-3.7577,-3.7577,-3.7577,-3.7577,-3.7577,-3.7577,-3.7577,-3.7577,-3.7577,-3.7577,-3.7577,-3.7577,-3.7577,-3.7577,-3.7577,-3.7577,-3.7577,-3.847,-3.9439,-4.0236,-4.0937,-4.1443,-4.1538,-4.1412,-4.1088,-4.0438,-4.0347,-4.0347,-4.0347,-3.9786,-3.9097,-3.8373,-3.8246,-3.8192,-3.8192,-3.8192,-3.8192,-3.8192,-3.8192,-3.8685,-3.974,-3.9758,-4.0651,-4.2446,-4.2239,-4.2527,-4.3208,-4.3014,-4.2882,-3.0434,-3.0539,-3.0507,0.0,-3.0414,-3.0355,-3.0136,-3.0109,-3.0018,-2.9782,-2.9732,-3.0152,-3.1555,-3.1741,-3.221,0.0,-3.3834,-3.3734,-3.3606,-3.3578,-3.3522,-3.339,-3.3093,-3.2716,-3.2352,-3.2825,-3.3425,-3.4064,-3.4726,-3.5466,-3.6266,-3.6259,-3.6276,-3.6301,-3.6301,-3.6216,-3.6071,-3.6088,-3.6002,-3.5854,-3.5854,-3.5854,-3.5854,-3.6028,-3.6088,-3.6088,-3.6259,-3.6444,-3.6702,-3.6908,-3.7105,-3.7334,-3.7503,-3.7577,-3.7577,-3.7577,-3.7577,-3.7577,-3.7577,-3.7577,-3.7577,-3.7577,-3.7577,-3.7577,-3.7577,-3.7577,-3.7577,-3.7577,-3.7577,-3.7702,-3.8183,-3.7931,-3.7589,-3.7585,-3.7587,-3.7609,-3.7609,-3.7611,-3.7631,-3.7685,-3.8437,-3.9317,-4.0202,-4.1014,-4.1699,-4.2264,-4.1938,-4.156,-4.1216,-4.1216,-4.1035,-4.0564,-4.022,-3.9583,-3.8542,-3.8433,-3.851,-3.8658,-3.913,-3.9436,-3.9436,-3.9878,-4.0548,-4.1465,-4.1484,-4.2119,-4.3392,-4.3267,-4.3356,-4.3689,-4.3557,-4.349,-3.0471,0.0,0.0,-3.0511,-3.0441,-3.0394,-3.0241,-3.019,-3.0142,-2.9996,-2.9965,-3.0322,-3.1505,-3.1813,-3.2296,-3.3451,-3.3721,-3.3807,-3.3807,-3.3807,-3.3807,-3.3807,-3.3597,-3.3304,-3.2953,-3.323,-3.3647,-3.4202,-3.4846,-3.5525,-3.6266,-3.6301,-3.6301,-3.6301,-3.6301,-3.6301,-3.6301,-3.6301,-3.6301,-3.6301,-3.6301,-3.6301,-3.6301,-3.6301,-3.6301,-3.6301,-3.6301,-3.6485,-3.6806,-3.6948,-3.7143,-3.741,-3.754,-3.7577,-3.7577,-3.7577,-3.7577,-3.7577,-3.7577,-3.7577,-3.7577,-3.7577,-3.7577,-3.7577,-3.7577,-3.7577,-3.7577,-3.7577,-3.7755,-3.8058,-3.8647,-3.8518,-3.8247,-3.8209,-3.8935,-3.9625,-3.9626,-3.8924,-3.8383,-3.861,-3.9065,-3.9644,-4.0506,-4.1504,-4.2432,-4.3086,-4.2685,-4.2232,-4.2031,-4.2105,-4.1886,-4.1188,-4.1115,-4.0632,-3.9491,-3.9411,-3.9483,-3.9677,-4.0281,-4.0616,-4.0616,-4.1202,-4.192,-4.2816,-4.2835,-4.3274,-4.4202,-4.4095,-4.4035,-4.4035,-4.3943,-4.4042,0.0,0.0,-3.069,-3.0685,-3.0599,-3.0492,-3.0492,-3.0449,-3.0323,-3.0136,-3.0089,-3.0285,-3.0915,-3.1503,-3.2154,-3.2906,-3.3456,-3.3807,-3.3807,-3.3807,-3.3807,-3.3807,-3.3788,-3.3945,-3.4401,-3.3821,-3.3739,-3.4526,-3.4948,-3.5525,-3.6266,-3.6301,-3.6301,-3.6301,-3.6301,-3.6301,-3.6301,-3.6301,-3.6301,-3.6301,-3.6301,-3.6301,-3.6301,-3.6301,-3.6301,-3.6301,-3.6301,-3.655,-3.6987,-3.6987,-3.7241,-3.7577,-3.7594,-3.7577,-3.7577,-3.7577,-3.7577,-3.7577,-3.7577,-3.7577,-3.7577,-3.7577,-3.7577,-3.7577,-3.7577,-3.7577,-3.7577,-3.7577,-3.8148,-3.8772,-3.8808,-3.9325,-3.9828,-3.9823,-4.2304,-4.4681,-4.4675,-4.2304,-4.0221,-4.0609,-4.0685,-4.0793,-4.1194,-4.2625,-4.3749,-4.3849,-4.3862,-4.3586,-4.2958,-4.3141,-4.3174,-4.2693,-4.263,-4.2296,-4.1471,-4.1396,-4.1415,-4.1425,-4.1463,-4.1463,-4.1463,-4.15,-4.2053,-4.3163,-4.3163,-4.3728,-4.487,-4.4538,-4.4383,-4.4383,-4.4065,-4.4339,-2.9758,0.0,-3.07,-3.0709,-3.0632,-3.0568,-3.0565,-3.0546,-3.05,-3.0392,-3.037,-3.0552,-3.1142,-3.1836,-3.2506,-3.3156,-3.3734,-3.4074,-3.4074,-3.3921,-3.3807,-3.3807,-3.4284,-3.4651,-3.484,-3.4424,0.0,-3.534,-3.5483,-3.5774,-3.6249,-3.6301,-3.6301,-3.6301,-3.6301,-3.6301,-3.6301,-3.6301,-3.6301,-3.6301,-3.6301,-3.6301,-3.6301,-3.6301,-3.6301,-3.6301,-3.6301,-3.6568,-3.6987,-3.6987,-3.7259,-3.7577,-3.7577,-3.7577,-3.7577,-3.7577,-3.7721,-3.7845,-3.7649,-3.7577,-3.7577,-3.7577,-3.7577,-3.7613,-3.781,-3.8097,-3.8454,-3.8847,-3.939,-4.004,-4.0727,-4.0872,-4.1017,-4.1724,-4.3283,-4.4361,-4.3332,-4.2387,-4.1619,-4.1278,-4.1169,-4.1397,-4.2106,-4.2693,-4.325,-4.3838,-4.3912,-4.3818,-4.359,-4.3656,-4.3471,-4.276,-4.2716,-4.247,-4.1892,-4.1817,-4.1916,-4.209,-4.2643,-4.2963,-4.2963,-4.3472,-4.3938,-4.4317,-4.4336,-4.4537,-4.4895,-4.4777,-4.4732,-4.4751,-4.5213,-4.5574,-2.8926,-2.9451,-2.9849,-2.9842,-2.9781,-2.983,-3.0146,-3.0173,-3.0212,-3.0479,-3.0518,-3.0626,-3.1008,-3.208,-3.295,-3.3053,-3.4017,-3.4652,-3.4258,-3.4049,-3.4005,-3.4211,-3.4679,-3.5229,0.0,0.0,0.0,-3.5932,-3.5852,-3.5876,-3.6266,-3.6301,-3.6301,-3.6301,-3.6301,-3.6301,-3.6301,-3.6301,-3.6301,-3.6301,-3.6301,-3.6301,-3.6301,-3.6301,-3.6343,-3.6444,-3.6444,-3.669,-3.7105,-3.7105,-3.7279,-3.7577,-3.7577,-3.7577,-3.7577,-3.7577,-3.7757,-3.7984,-3.781,-3.7828,-3.7898,-3.7898,-3.7898,-3.7915,-3.8086,-3.8578,-3.9157,-3.9501,-4.0249,-4.1125,-4.1829,-4.2029,-4.2248,-4.2957,-4.3852,-4.4262,-4.3267,-4.2902,-4.264,-4.2286,-4.2137,-4.2277,-4.2932,-4.3297,-4.3671,-4.4167,-4.426,-4.4213,-4.4095,-4.4095,-4.3919,-4.354,-4.3484,-4.3361,-4.3057,-4.3045,-4.3095,-4.3279,-4.3815,-4.4137,-4.4137,-4.463,-4.4895,-4.4895,-4.4895,-4.4895,-4.4895,-4.4895,-4.4895,-4.4914,-4.5786,-4.6354,-2.8202,-2.8261,-2.8281,-2.8288,-2.8252,-2.8431,-2.9301,-2.9402,-2.9552,-3.0433,-3.0559,-3.051,-3.0501,0.0,-3.3401,-3.2657,-3.4338,-3.5402,-3.4381,-3.4221,-3.4395,0.0,0.0,0.0,0.0,0.0,0.0,-3.6381,0.0,-3.5955,-3.6291,-3.6301,-3.6301,-3.6301,-3.6301,-3.6301,-3.6301,-3.6301,-3.6301,-3.6301,-3.6301,-3.6301,-3.6301,-3.6301,-3.6444,-3.6702,-3.6684,-3.6965,-3.7334,-3.7334,-3.7484,-3.7649,-3.7649,-3.7649,-3.7649,-3.7649,-3.781,-3.8052,-3.8052,-3.8186,-3.8382,-3.8382,-3.8419,-3.8469,-3.8488,-3.9053,-3.9728,-3.9761,-4.0876,-4.2099,-4.2081,-4.2812,-4.3541,-4.3526,-4.409,-4.4603,-4.4571,-4.3922,-4.3363,-4.3691,-4.3485,-4.3389,-4.371,-4.4383,-4.4895,-4.4895,-4.4895,-4.4777,-4.4457,-4.443,-4.4557,-4.487,-4.4895,-4.4895,-4.4895,-4.4895,-4.4895,-4.4895,-4.4895,-4.4895,-4.4895,-4.4895,-4.4895,-4.4895,-4.4895,-4.4895,-4.4895,-4.4895,-4.4914,-4.499,-4.5862,-4.6676,-2.7251,-2.7733,-2.8232,-2.8223,-2.8259,-2.8493,-2.9373,-2.9544,-2.9745,-3.0515,-3.0619,-3.0554,-3.05,-3.1878,0.0,-3.2752,-3.4087,0.0,-3.4751,-3.4413,0.0,-3.4395,0.0,-3.6138,-3.656,-3.7496,0.0,0.0,-3.672,-3.6357,-3.6706,-3.6451,-3.6301,-3.6301,-3.6301,-3.6301,-3.6301,-3.6301,-3.6301,-3.6301,-3.6301,-3.6301,-3.6301,-3.6301,-3.6444,-3.6702,-3.6856,-3.7188,-3.7595,-3.7792,-3.8,-3.8186,-3.8186,-3.8186,-3.8186,-3.8186,-3.835,-3.859,-3.859,-3.8528,-3.8382,-3.8382,-3.8816,-3.9323,-3.9533,-4.0441,-4.1492,-4.187,-4.2576,-4.3251,-4.3449,-4.3666,-4.3883,-4.386,-4.4195,-4.4552,-4.4524,-4.4489,-4.4499,-4.4567,-4.4524,-4.448,-4.4592,-4.4762,-4.4895,-4.4895,-4.4895,-4.487,-4.4777,-4.4777,-4.4802,-4.4895,-4.4895,-4.4895,-4.4895,-4.4895,-4.4895,-4.4895,-4.4895,-4.4895,-4.4895,-4.4895,-4.4895,-4.4895,-4.4895,-4.4895,-4.4895,-4.4895,-4.5236,-4.588,-4.6714,-4.7548,-2.6378,-2.6728,-2.7098,-2.7106,-2.7422,-2.7967,-2.8825,-2.9331,-2.9838,-3.0628,-3.1024,0.0,-3.1176,-3.2703,0.0,0.0,0.0,0.0,-3.4984,-3.4569,-3.4428,0.0,-3.5643,0.0,-3.678,-3.7955,-3.8596,0.0,-3.7584,-3.7041,-3.6921,-3.6678,-3.6492,-3.6301,-3.6301,-3.6301,-3.6301,-3.6301,-3.6301,-3.6301,-3.6301,-3.6301,-3.6301,-3.6301,-3.6485,-3.6829,-3.7073,-3.745,-3.7845,-3.8101,-3.8318,-3.8382,-3.8382,-3.8382,-3.8382,-3.8382,-3.8559,-3.8792,-3.8792,-3.8773,-3.878,-3.9148,-3.9571,-4.0044,-4.0535,-4.1483,-4.2415,-4.2736,-4.328,-4.3795,-4.3974,-4.4085,-4.4147,-4.4147,-4.4383,-4.4578,-4.4578,-4.4745,-4.4895,-4.4895,-4.4895,-4.4895,-4.4895,-4.4895,-4.4895,-4.4895,-4.4895,-4.4895,-4.4895,-4.4895,-4.4895,-4.4895,-4.4895,-4.4895,-4.4895,-4.4895,-4.4895,-4.4895,-4.4895,-4.4895,-4.4895,-4.4895,-4.4895,-4.4895,-4.4895,-4.4895,-4.4895,-4.4895,-4.535,-4.6222,-4.7018,-4.787,-2.5685,-2.5685,-2.5699,-2.5691,-2.6347,-2.7226,-2.811,-2.8973,-2.9856,-3.0726,0.0,-3.1987,-3.1982,-3.3731,-3.4943,-3.4294,0.0,-3.5885,-3.5059,-3.4694,-3.4682,-3.5218,-3.5781,-3.645,-3.7239,-3.8065,-3.8542,-3.8542,-3.8204,-3.7736,-3.7017,-3.6851,-3.6509,-3.6008,-3.6094,-3.6146,-3.6146,-3.6249,-3.6301,-3.6301,-3.6301,-3.6301,-3.6301,-3.6343,-3.6609,-3.7027,-3.7319,-3.7685,-3.8086,-3.835,-3.8478,-3.851,-3.851,-3.851,-3.851,-3.851,-3.8634,-3.8833,-3.8833,-3.8931,-3.9231,-4.0104,-4.0457,-4.0698,-4.1516,-4.2314,-4.2965,-4.2965,-4.3466,-4.4005,-4.4005,-4.4147,-4.4285,-4.4285,-4.4496,-4.4712,-4.4712,-4.4815,-4.4895,-4.4895,-4.4895,-4.4895,-4.4895,-4.4895,-4.4895,-4.4895,-4.4895,-4.4895,-4.4895,-4.4895,-4.4895,-4.4895,-4.4895,-4.4895,-4.4895,-4.4895,-4.4895,-4.4895,-4.4895,-4.4895,-4.4895,-4.4895,-4.4895,-4.4895,-4.4895,-4.4895,-4.4895,-4.5028,-4.552,-4.6373,-4.7188,-4.8022,-2.555,-2.5627,-2.5691,-2.5636,-2.6317,-2.7226,-2.811,-2.8964,0.0,0.0,-3.1488,-3.1974,-3.1848,-3.2706,-3.3569,-3.3969,0.0,0.0,0.0,0.0,-3.4542,0.0,0.0,0.0,0.0,-3.7221,0.0,0.0,-3.7649,-3.7544,-3.7396,-3.6494,-3.5553,-3.453,-3.5059,-3.5387,-3.5387,-3.599,-3.6301,-3.6301,-3.6301,-3.6301,-3.6301,-3.6544,-3.6766,-3.7009,-3.7449,-3.7897,-3.835,-3.8621,-3.8833,-3.8989,-3.8989,-3.8989,-3.8989,-3.8989,-3.9017,-3.9045,-3.9045,-3.9073,-3.9231,-4.0104,-4.0847,-4.1534,-4.2352,-4.315,-4.3782,-4.3782,-4.3893,-4.4005,-4.4005,-4.4147,-4.4285,-4.4285,-4.4496,-4.4712,-4.4712,-4.4815,-4.4895,-4.4895,-4.4895,-4.4895,-4.4895,-4.4895,-4.4895,-4.4895,-4.4895,-4.4895,-4.4895,-4.4895,-4.4895,-4.4895,-4.4895,-4.4895,-4.4895,-4.4895,-4.4895,-4.4895,-4.4895,-4.4895,-4.4895,-4.4895,-4.4895,-4.4895,-4.4895,-4.4895,-4.4895,-4.5615,-4.6392,-4.7207,-4.806,-4.8894,-2.5686,-2.5608,-2.5684,-2.5658,-2.6673,-2.7786,-2.8193,0.0,0.0,0.0,-3.182,-3.2647,-3.2545,0.0,0.0,0.0,0.0,0.0,0.0,0.0,0.0,0.0,0.0,0.0,0.0,-3.6376,-3.6872,-3.6872,-3.6698,-3.6467,-3.6327,-3.5428,-3.4675,-3.4133,-3.4438,-3.4628,-3.4628,-3.4973,-3.5335,-3.5714,-3.5943,-3.611,-3.6343,-3.6878,-3.7167,-3.7261,-3.7826,-3.8281,-3.8621,-3.8862,-3.9017,-3.9101,-3.9101,-3.9101,-3.9101,-3.9101,-3.9101,-3.9101,-3.9101,-3.9101,-3.9231,-4.0104,-4.094,-4.1739,-4.2556,-4.3355,-4.4005,-4.4005,-4.4005,-4.4005,-4.4005,-4.4207,-4.4401,-4.4401,-4.4605,-4.4796,-4.4796,-4.4846,-4.4895,-4.4895,-4.4895,-4.4895,-4.4895,-4.4895,-4.4895,-4.4895,-4.4895,-4.4895,-4.4895,-4.4895,-4.4895,-4.4895,-4.4895,-4.4895,-4.4895,-4.4895,-4.4895,-4.4895,-4.4895,-4.4895,-4.4895,-4.4895,-4.4895,-4.4895,-4.4895,-4.4895,-4.4895,-4.5767,-4.6601,-4.7416,-4.8287,-4.9148,-2.6053,-2.5774,-2.5751,-2.5913,-2.7147,-2.8344,-2.8546,-2.9773,0.0,0.0,-3.2116,-3.3256,-3.3168,0.0,-3.5547,0.0,0.0,0.0,0.0,0.0,0.0,0.0,0.0,0.0,0.0,-3.5595,0.0,-3.5923,-3.5307,-3.4921,-3.4833,-3.4222,-3.3766,-3.3593,-3.3749,-3.3835,-3.3835,-3.4007,-3.4387,-3.4956,-3.5514,-3.5937,-3.6225,-3.7214,-3.7596,-3.7542,-3.8147,-3.8566,-3.8822,-3.896,-3.9073,-3.9101,-3.9101,-3.9101,-3.9101,-3.9101,-3.9101,-3.9101,-3.9101,-3.9101,-3.9212,-3.99,-4.068,-4.1534,-4.25,-4.3243,-4.3782,-4.3949,-4.4005,-4.4005,-4.4005,-4.4248,-4.4496,-4.4578,-4.4764,-4.4895,-4.4895,-4.4895,-4.4895,-4.4895,-4.4895,-4.4895,-4.4895,-4.4895,-4.4895,-4.4895,-4.4895,-4.4895,-4.4895,-4.4895,-4.4895,-4.4895,-4.4895,-4.4895,-4.4895,-4.4895,-4.4895,-4.4895,-4.4895,-4.4895,-4.4895,-4.4895,-4.4895,-4.4895,-4.4895,-4.499,-4.5204,-4.6057,-4.691,-4.7751,-4.8605,-4.9371,-2.6734,-2.6218,-2.5874,-2.6605,-2.7558,-2.8509,-2.9301,0.0,0.0,-3.0801,-3.2069,-3.3168,-3.3042,-3.3738,-3.4795,-3.6272,0.0,-3.4914,0.0,0.0,0.0,0.0,0.0,0.0,0.0,-3.5017,-3.494,-3.4697,-3.3405,-3.2931,-3.3618,-3.3254,-3.2697,-3.2024,-3.2662,-3.3007,-3.3007,-3.3731,-3.4111,-3.4197,-3.5308,-3.5811,-3.5899,-3.7256,-3.7877,-3.7877,-3.8249,-3.8541,-3.8792,-3.8822,-3.895,-3.9101,-3.9101,-3.9101,-3.9101,-3.9101,-3.9101,-3.9101,-3.9101,-3.9101,-3.9101,-3.9194,-3.9788,-4.0791,-4.2333,-4.2853,-4.3058,-4.3782,-4.4005,-4.4005,-4.4005,-4.4248,-4.4551,-4.4815,-4.487,-4.4895,-4.4895,-4.4895,-4.4895,-4.4895,-4.4895,-4.4895,-4.4895,-4.4895,-4.4895,-4.4895,-4.4895,-4.4895,-4.4895,-4.4895,-4.4895,-4.4895,-4.4895,-4.4895,-4.4895,-4.4895,-4.4895,-4.4895,-4.4895,-4.4895,-4.4895,-4.4895,-4.4895,-4.4895,-4.4895,-4.5318,-4.6168,-4.7004,-4.7865,-4.877,-4.9588,-5.0006,-2.7,-2.626,-2.5839,-2.6749,-2.7636,-2.8534,-2.9398,0.0,-3.0972,-3.1434,-3.2382,-3.3261,-3.3652,-3.436,-3.5327,-3.6749,-3.6407,-3.6215,-3.685,0.0,0.0,0.0,0.0,0.0,0.0,0.0,-3.3468,-3.3179,-3.2647,-3.2354,-3.2454,-3.2342,-3.2093,-3.18,-3.2076,-3.2231,-3.2231,-3.2559,-3.2938,-3.3369,-3.4304,-3.4836,-3.5164,-3.6946,-3.7648,-3.7457,-3.8407,-3.8902,0.0,-3.896,-3.9017,-3.9101,-3.9101,-3.9101,-3.9101,-3.9101,-3.9101,-3.9101,-3.9101,-3.9101,-3.9101,-3.9101,-3.9324,-3.9825,-4.0996,-4.2017,-4.2872,-4.3188,-4.3633,-4.4036,-4.4147,-4.4411,-4.4659,-4.4865,-4.4895,-4.4895,-4.4895,-4.4895,-4.4895,-4.4895,-4.4895,-4.4895,-4.4895,-4.4895,-4.4895,-4.4895,-4.4895,-4.4895,-4.4895,-4.4895,-4.4895,-4.4895,-4.4895,-4.4895,-4.4895,-4.4895,-4.4895,-4.4895,-4.4895,-4.4895,-4.4895,-4.4895,-4.4895,-4.4895,-4.4895,-4.5355,-4.6301,-4.7099,-4.7979,-4.8928,-4.9727,-5.0133,-2.7518,-2.6832,-2.6541,-2.7183,-2.8007,-2.8945,0.0,-3.0551,-3.1071,-3.2141,-3.2726,-3.3286,-3.4056,-3.474,-3.5642,0.0,-3.7024,-3.6945,-3.7296,-3.7239,0.0,0.0,0.0,-3.3809,0.0,-3.2778,-3.2504,-3.2318,-3.2022,-3.1725,-3.1509,-3.1248,-3.1334,-3.1783,-3.18,-3.18,-3.18,-3.18,-3.2059,-3.2576,-3.3511,-3.4125,-3.4518,-3.6401,-3.7161,-3.7033,-3.822,-3.8748,0.0,-3.9008,-3.9101,-3.9101,-3.9101,-3.9101,-3.9101,-3.9101,-3.9101,-3.9101,-3.9101,-3.9101,-3.9101,-3.9101,-3.9268,-3.9602,-4.0197,-4.1349,-4.2537,-4.302,-4.3608,-4.4147,-4.4354,-4.4551,-4.4719,-4.487,-4.4895,-4.4895,-4.4895,-4.4895,-4.4895,-4.4895,-4.4895,-4.4895,-4.4895,-4.4895,-4.4895,-4.4895,-4.4895,-4.4895,-4.4895,-4.4895,-4.4895,-4.4895,-4.4895,-4.4895,-4.4895,-4.4895,-4.4895,-4.4895,-4.4895,-4.4895,-4.4895,-4.5141,-4.516,-4.4914,-4.5141,-4.5759,-4.6692,-4.7262,-4.8142,-4.9319,-4.9891,-5.0182,-2.842,-2.8188,-2.8175,-2.8183,-2.8847,-2.9917,0.0,-3.1305,-3.1178,-3.2846,-3.3045,-3.3176,-3.4044,-3.4595,-3.5438,-3.7048,-3.6406,-3.6475,-3.8581,-3.7114,0.0,0.0,0.0,-3.3582,-3.3754,-3.2877,-3.2318,-3.2283,-3.1307,0.0,-3.0696,-2.9955,-3.0231,-3.1748,-3.18,-3.18,-3.18,-3.18,-3.18,-3.1817,-3.316,-3.389,-3.4153,-3.5556,-3.6371,-3.6647,-3.7533,-3.7912,0.0,-3.8767,-3.9101,-3.9101,-3.9101,-3.9101,-3.9101,-3.9101,-3.9101,-3.9101,-3.9101,-3.9101,-3.9101,-3.9101,-3.9677,-4.0383,-4.0401,-4.0958,-4.1943,-4.354,-4.4147,-4.4373,-4.4632,-4.4712,-4.4719,-4.487,-4.4895,-4.4895,-4.4895,-4.4895,-4.4895,-4.4895,-4.4895,-4.4895,-4.4895,-4.4895,-4.4895,-4.4895,-4.4895,-4.4895,-4.4895,-4.4895,-4.4895,-4.4895,-4.4895,-4.4895,-4.4895,-4.4895,-4.4895,-4.4895,-4.4895,-4.4895,-4.4895,-4.5729,-4.5786,-4.4914,-4.5748,-4.6657,-4.76,-4.76,-4.8505,-5.0302,-5.0302,-5.0302,-2.9159,-2.8648,-2.8334,-2.8881,-2.9674,-3.0596,-3.1695,-3.2168,-3.2683,-3.3674,-3.382,-3.3981,-3.4576,-3.5247,-3.5773,-3.5956,-3.6143,0.0,0.0,0.0,0.0,0.0,0.0,-3.2014,0.0,0.0,-3.0976,-3.0421,-3.0076,-2.9886,-2.9886,-2.9644,-2.973,-3.0213,-3.0231,-3.0489,-3.1041,-3.1272,-3.1655,-3.2161,-3.3094,-3.3545,-3.3671,-3.5028,-3.5695,-3.5858,-3.7273,-3.7894,-3.7949,-3.8767,-3.9101,-3.9101,-3.9101,-3.9101,-3.9101,-3.9101,-3.9101,-3.9101,-3.9101,-3.9101,-3.9101,-3.9101,-3.9287,-3.9733,-4.0866,-4.1776,-4.2679,-4.3879,-4.4383,-4.4605,-4.4685,-4.4789,-4.4846,-4.4895,-4.4895,-4.4895,-4.4895,-4.4895,-4.4895,-4.4895,-4.4895,-4.4895,-4.4895,-4.4895,-4.4895,-4.4895,-4.4895,-4.4895,-4.4895,-4.4895,-4.4895,-4.4895,-4.4895,-4.4895,-4.4895,-4.4895,-4.4895,-4.4895,-4.4895,-4.4895,-4.4895,-4.5729,-4.607,-4.5786,-4.6101,-4.701,-4.849,-4.7948,-4.859,-5.0302,-5.0302,-5.0302,0.0,-2.9259,-2.9146,-2.9324,-3.0263,-3.1368,-3.2144,-3.2723,-3.3393,-3.4327,-3.426,-3.4163,-3.468,-3.5233,-3.5619,-3.561,-3.6064,0.0,0.0,0.0,0.0,0.0,0.0,0.0,0.0,-3.0589,-3.0368,-2.9558,-2.9248,-2.9075,-2.9075,-2.8816,-2.8678,-2.8678,-2.9213,-2.9748,-3.0231,-3.0887,-3.1423,-3.1897,-3.2857,-3.3343,-3.3465,-3.4402,-3.487,-3.502,-3.6408,-3.7169,0.0,-3.8321,-3.8822,-3.9101,-3.9101,-3.9101,-3.9101,-3.9101,-3.9101,-3.9101,-3.9101,-3.9101,-3.9101,-3.9101,-3.9324,-3.9844,-4.1181,-4.237,-4.3416,-4.4165,-4.4496,-4.4659,-4.4764,-4.4821,-4.4895,-4.4895,-4.4895,-4.4895,-4.4895,-4.4895,-4.4895,-4.4895,-4.4895,-4.4895,-4.4895,-4.4895,-4.4895,-4.4895,-4.4895,-4.4895,-4.4895,-4.4895,-4.4895,-4.4895,-4.4895,-4.4895,-4.4895,-4.4895,-4.4895,-4.4895,-4.4895,-4.5047,-4.5388,-4.6228,-4.6689,-4.6689,-4.708,-4.7667,-4.8438,-4.83,-4.8938,-5.0302,-5.0302,-5.0302,0.0,-3.0047,-3.0496,-2.9686,-3.0792,-3.2244,-3.2908,-3.3119,0.0,-3.4811,-3.4369,-3.3941,-3.4517,-3.4754,-3.5117,-3.582,-3.6092,0.0,0.0,0.0,0.0,0.0,-3.248,0.0,-3.0469,-3.0553,-3.0368,-2.9558,-2.8868,-2.8454,-2.8403,-2.7747,-2.7351,-2.7299,-2.8627,-2.9368,-2.942,-3.0519,-3.1105,-3.126,-3.254,-3.3306,-3.3542,-3.3797,-3.4023,-3.4253,-3.5107,-3.5943,-3.676,-3.7559,-3.8377,-3.9101,-3.9101,-3.9101,-3.9101,-3.9101,-3.9101,-3.9101,-3.9101,-3.9101,-3.9101,-3.9101,-3.9677,-4.0531,-4.1293,-4.2593,-4.3911,-4.4243,-4.4364,-4.4503,-4.4745,-4.4857,-4.4895,-4.4895,-4.4895,-4.4895,-4.4895,-4.4895,-4.4895,-4.4895,-4.4895,-4.4895,-4.4895,-4.4895,-4.4895,-4.4895,-4.4895,-4.4895,-4.4895,-4.4895,-4.4895,-4.4895,-4.4895,-4.4895,-4.4895,-4.4895,-4.4895,-4.4895,-4.4895,-4.5293,-4.6165,-4.7055,-4.7536,-4.7593,-4.8465,-4.8533,-4.7804,-4.8674,-4.95,-5.0302,-5.0302,-5.0302,-3.0577,0.0,-3.1523,-3.1282,-3.2474,-3.3708,0.0,-3.4159,0.0,0.0,0.0,-3.4515,-3.4722,-3.5266,-3.5629,-3.5346,0.0,0.0,0.0,0.0,0.0,0.0,-3.1467,-3.1244,-2.9989,-3.0282,-3.0281,-2.9558,-2.9351,-2.9006,-2.8437,-2.823,-2.7885,-2.7316,-2.7627,-2.8092,-2.8661,-2.9374,-3.0368,-3.1609,-3.2475,-3.3235,-3.3876,-3.403,-3.4148,-3.4253,-3.5107,-3.5943,-3.676,-3.7559,-3.8377,-3.9101,-3.9101,-3.9101,-3.9101,-3.9101,-3.9101,-3.9101,-3.9101,-3.9101,-3.9101,-3.9101,-3.9677,-4.0438,-4.0606,-4.1436,-4.2343,-4.2527,-4.313,-4.3768,-4.3937,-4.444,-4.4895,-4.4895,-4.4895,-4.4895,-4.4895,-4.4895,-4.4895,-4.4895,-4.4895,-4.4895,-4.4895,-4.4895,-4.4895,-4.4895,-4.4895,-4.4895,-4.4895,-4.4895,-4.4895,-4.4895,-4.4895,-4.4895,-4.4895,-4.4895,-4.4895,-4.4895,-4.4895,-4.5293,-4.6165,-4.7055,-4.7802,-4.8485,-4.8819,-4.891,-4.877,-4.8984,-4.95,-5.0302,-5.0302,-5.0302,-3.089,-3.1312,-3.1602,-3.1949,-3.3015,-3.3929,-3.3758,0.0,0.0,0.0,0.0,0.0,-3.3938,0.0,0.0,0.0,0.0,0.0,0.0,0.0,0.0,-3.0675,-3.0925,-3.0869,0.0,-3.0372,-3.0281,-2.9575,-2.9506,-2.9334,-2.8937,-2.8575,-2.8213,-2.7816,-2.7471,-2.7535,-2.8074,-2.8888,-2.9991,-3.1384,-3.2342,-3.3222,-3.3998,-3.4148,-3.4197,-3.4234,-3.4699,-3.5367,-3.6203,-3.7021,-3.7819,-3.8581,-3.8952,-3.9101,-3.9101,-3.9101,-3.9101,-3.9101,-3.9101,-3.9101,-3.9101,-3.9101,-3.9417,-3.9788,-3.9788,-4.0142,-4.0831,-4.2089,-4.2927,-4.3528,-4.4033,-4.4524,-4.4895,-4.4895,-4.4895,-4.4895,-4.4895,-4.4895,-4.4895,-4.4895,-4.4895,-4.4895,-4.4895,-4.4895,-4.4895,-4.4895,-4.4895,-4.4895,-4.4895,-4.4895,-4.4895,-4.4895,-4.4895,-4.4895,-4.4895,-4.4895,-4.4895,-4.4895,-4.4919,-4.5342,-4.6215,-4.711,-4.8186,-4.9472,-4.9196,-4.9266,-4.9652,-4.927,-4.95,-5.0302,-5.0302,-5.0302,-3.096,-3.1261,-3.1468,-3.2296,-3.3109,-3.3734,0.0,0.0,0.0,0.0,0.0,0.0,0.0,0.0,0.0,0.0,0.0,0.0,0.0,0.0,0.0,-3.0625,-3.0788,0.0,-3.05,-3.0707,-3.0575,-2.9903,-2.9851,-2.9799,-2.9696,-2.9092,-2.8644,-2.8403,-2.7782,-2.7556,-2.7742,-2.8667,-2.9763,-3.1021,-3.2089,-3.3093,-3.4023,-3.4148,-3.4197,-3.4197,-3.4197,0.0,-3.5535,-3.624,-3.7058,-3.7968,-3.8655,-3.899,-3.9101,-3.9101,-3.9101,-3.9101,-3.9101,-3.9101,-3.9101,-3.9101,-3.9101,-3.9101,-3.9101,-3.9101,-3.9593,-4.1931,-4.2847,-4.3302,-4.4263,-4.472,-4.4895,-4.4895,-4.4895,-4.4895,-4.4895,-4.4895,-4.4895,-4.4895,-4.4895,-4.4895,-4.4895,-4.4895,-4.4895,-4.4895,-4.4895,-4.4895,-4.4895,-4.4895,-4.4895,-4.4895,-4.4895,-4.4895,-4.4895,-4.4895,-4.4895,-4.4895,-4.4943,-4.539,-4.6288,-4.7224,-4.8457,-5.0092,-4.9308,-4.9366,-5.0302,-4.948,-4.95,-5.0302,-5.0302,-5.0302,-3.1362,-3.2025,-3.233,-3.3183,-3.3903,-3.4287,0.0,0.0,0.0,0.0,0.0,0.0,0.0,0.0,0.0,0.0,0.0,0.0,0.0,0.0,-3.1295,-3.0828,0.0,-3.1223,-3.0858,-3.1223,-3.1448,-3.1455,-3.1455,-3.1162,-3.0541,-3.0403,-2.9748,-2.8437,-2.8282,-2.8154,-2.802,-2.8182,-2.9233,-3.1083,-3.1569,-3.2588,-3.4099,-3.4173,-3.4197,-3.4197,0.0,-3.468,-3.5497,-3.5627,-3.6556,-3.7912,-3.8042,-3.8488,-3.9101,-3.9101,-3.9101,-3.9101,-3.9101,-3.9101,-3.9101,-3.9101,-3.9101,-3.9101,-3.9101,-3.9101,-3.9342,-4.0467,-4.1492,-4.2446,-4.3415,-4.4285,-4.4895,-4.4895,-4.4895,-4.4895,-4.4895,-4.4895,-4.4895,-4.4895,-4.4895,-4.4895,-4.4895,-4.4895,-4.4895,-4.4895,-4.4895,-4.4895,-4.4895,-4.4895,-4.4895,-4.4895,-4.4895,-4.4895,-4.4895,-4.4895,-4.4895,-4.4895,-4.4943,-4.5437,-4.6428,-4.7247,-4.819,-4.9251,-4.8449,-4.8774,-5.0302,-4.948,-4.95,-5.0302,-5.0302,-5.0302,-3.0903,-3.1574,-3.1989,-3.3265,-3.4111,-3.4474,0.0,0.0,0.0,0.0,0.0,0.0,0.0,0.0,0.0,0.0,0.0,-3.182,-3.1312,-3.1027,-3.0788,0.0,0.0,-3.0982,-3.1061,-3.1449,-3.1746,-3.18,-3.18,-3.1645,-3.13,-3.0903,-3.0368,-2.9661,-2.9397,-2.9299,-2.9405,-2.9143,-2.9572,-3.0674,-3.0862,-3.1829,-3.3451,-3.3523,-3.3788,-3.4197,0.0,-3.442,-3.4829,-3.5293,-3.5925,-3.6686,-3.7559,-3.8135,-3.8488,-3.8934,-3.9101,-3.9101,-3.9101,-3.9101,-3.9101,-3.9101,-3.9101,-3.9101,-3.9101,-3.9101,-3.9314,-4.0253,-4.122,-4.2213,-4.3149,-4.414,-4.4895,-4.4895,-4.4895,-4.4895,-4.4895,-4.4895,-4.4895,-4.4895,-4.4895,-4.4895,-4.4895,-4.4895,-4.4895,-4.4895,-4.4895,-4.4895,-4.4895,-4.4895,-4.4895,-4.4895,-4.4895,-4.4895,-4.4895,-4.4895,-4.4919,-4.4991,-4.5057,-4.5506,-4.6457,-4.7315,-4.8197,-4.9079,-4.9137,-4.9538,-5.0302,-4.992,-4.9939,-5.0302,-5.0302,-5.0302,-3.0399,-3.1091,-3.1628,-3.2965,0.0,-3.4182,0.0,0.0,0.0,0.0,0.0,0.0,0.0,0.0,0.0,0.0,-3.1764,-3.1157,-3.101,-3.073,-3.0543,-3.0543,-3.0625,-3.0861,-3.1308,-3.1614,-3.18,-3.18,-3.18,-3.18,-3.18,-3.1248,-3.0904,-3.082,-3.0466,-3.0397,-3.061,-3.027,-3.0268,-3.0586,-3.0471,-3.1182,-3.2641,-3.2873,-3.3324,-3.3918,-3.4123,-3.4197,-3.4253,-3.4903,-3.5312,-3.5609,-3.6853,-3.7559,-3.7986,-3.8804,-3.9101,-3.9101,-3.9101,-3.9101,-3.9101,-3.9101,-3.9101,-3.9101,-3.9101,-3.9101,-3.9259,-4.0074,-4.0974,-4.1969,-4.3066,-4.4115,-4.4895,-4.4895,-4.4895,-4.4895,-4.4895,-4.4895,-4.4895,-4.4895,-4.4895,-4.4895,-4.4895,-4.4895,-4.4895,-4.4895,-4.4895,-4.4895,-4.4895,-4.4895,-4.4895,-4.4895,-4.4895,-4.4895,-4.4895,-4.4895,-4.5038,-4.5388,-4.5217,-4.551,-4.6462,-4.6959,-4.7818,-4.9079,-4.95,-4.992,-5.0302,-5.0302,-5.0302,-5.0302,-5.0302,-5.0302,-3.0176,-3.1235,-3.1765,-3.2276,0.0,0.0,0.0,0.0,0.0,0.0,0.0,0.0,0.0,0.0,0.0,0.0,-3.1346,-3.1295,-3.1278,0.0,-3.1218,-3.1218,-3.1257,-3.1389,-3.1709,-3.18,-3.18,-3.18,-3.18,-3.18,-3.18,-3.1748,-3.1566,-3.1179,-3.1142,-3.1058,-3.0948,-3.1002,-3.1174,-3.1505,-3.0748,-3.0932,-3.1894,-3.2655,-3.3027,-3.312,-3.3881,-3.4197,-3.4197,-3.4271,-3.4773,-3.5497,-3.5627,-3.6575,-3.7986,-3.8804,-3.9101,-3.9101,-3.9101,-3.9101,-3.9101,-3.9101,-3.9101,-3.9101,-3.9101,-3.9101,-3.9129,-3.9346,-4.0094,-4.1299,-4.3038,-4.4184,-4.4895,-4.4895,-4.4895,-4.4895,-4.4895,-4.4895,-4.4895,-4.4895,-4.4895,-4.4895,-4.4895,-4.4895,-4.4895,-4.4895,-4.4895,-4.4895,-4.4895,-4.4895,-4.4895,-4.4895,-4.4895,-4.4895,-4.4895,-4.4895,-4.5285,-4.6263,-4.554,-4.551,-4.6462,-4.5831,-4.6615,-4.9041,-4.8353,-4.8754,-5.0302,-5.0302,-5.0302,-5.0302,-5.0302,-5.0302,-2.9368,-3.0335,0.0,0.0,0.0,0.0,0.0,0.0,0.0,0.0,0.0,0.0,0.0,0.0,0.0,0.0,-3.0788,-3.0747,-3.0965,-3.0788,-3.0764,-3.0965,-3.1004,-3.1123,-3.1466,-3.1671,-3.18,-3.18,-3.18,-3.18,-3.18,-3.2001,-3.2022,-3.1897,-3.2289,-3.2517,-3.25,-3.2245,-3.2213,-3.2384,-3.1094,-3.0936,-3.1801,-3.2117,-3.2525,-3.3027,-3.3844,-3.4197,-3.4197,-3.4197,-3.4383,-3.4736,-3.5274,-3.6482,-3.7931,-3.8228,-3.8674,-3.9101,-3.9101,-3.9101,-3.9101,-3.9101,-3.9101,-3.9101,-3.9101,-3.9101,-3.9129,-3.9272,-4.0001,-4.0979,-4.1763,-4.264,-4.336,-4.336,-4.3758,-4.4156,-4.4156,-4.4554,-4.4895,-4.4895,-4.4895,-4.4895,-4.4895,-4.4895,-4.4895,-4.4895,-4.4895,-4.4895,-4.4895,-4.4895,-4.4895,-4.4895,-4.4895,-4.4895,-4.4895,-4.5407,-4.5892,-4.6378,-4.6092,-4.6329,-4.7283,-4.7532,-4.8105,-4.9079,-4.927,-4.9671,-5.0302,-5.0302,-5.0302,-5.0302,-5.0302,-5.0302,-2.9132,-3.0065,-3.0952,0.0,0.0,0.0,0.0,0.0,0.0,0.0,0.0,0.0,0.0,0.0,0.0,0.0,-3.0477,-3.0377,-3.0625,-3.0418,-3.0418,-3.0747,-3.0804,-3.0965,-3.1428,-3.1671,-3.18,-3.18,-3.18,-3.1873,-3.1965,-3.2197,-3.242,-3.2651,-3.3093,-3.3419,-3.3588,-3.329,-3.3185,-3.3265,-3.1936,-3.1459,-3.1801,-3.2061,-3.247,-3.3027,-3.3844,-3.4197,-3.4197,-3.4197,-3.4197,-3.429,-3.5144,-3.6315,-3.7541,-3.7801,-3.8414,-3.9101,-3.9101,-3.9156,-3.9219,-3.9219,-3.9219,-3.9219,-3.9219,-3.9183,-3.9129,-3.9272,-3.9813,-4.0416,-4.0556,-4.1487,-4.2412,-4.2412,-4.3076,-4.3701,-4.3701,-4.4326,-4.4895,-4.4895,-4.4895,-4.4895,-4.4895,-4.4895,-4.4895,-4.4895,-4.4895,-4.4895,-4.4895,-4.4895,-4.4895,-4.4895,-4.4895,-4.4895,-4.4895,-4.5691,-4.6391,-4.6758,-4.7044,-4.7491,-4.8181,-4.8525,-4.8945,-4.9461,-4.9767,-5.0054,-5.0302,-5.0302,-5.0302,-5.0302,-5.0302,-5.0302,-2.9652,-3.0704,0.0,0.0,0.0,0.0,0.0,0.0,0.0,0.0,0.0,0.0,0.0,0.0,0.0,-3.0426,-3.0368,-3.0309,-3.0309,-3.0293,-3.0418,-3.0747,-3.0804,-3.1083,-3.1763,-3.18,-3.18,-3.18,-3.18,-3.1965,-3.2283,-3.2318,-3.2651,-3.339,-3.3419,-3.3588,-3.3998,-3.4074,-3.4099,-3.408,-3.3356,-3.2581,-3.1838,-3.2637,-3.299,-3.3027,-3.3844,-3.4197,-3.4197,-3.4197,-3.4197,-3.429,-3.5144,-3.5962,-3.6779,-3.7578,-3.8395,-3.9082,-3.9101,-3.9272,-3.9502,-3.9502,-3.9502,-3.9502,-3.9483,-3.9324,-3.911,-3.9272,-3.9401,-3.9532,-3.967,-4.1033,-4.2393,-4.2393,-4.3057,-4.3682,-4.3682,-4.4326,-4.4895,-4.4895,-4.4895,-4.4895,-4.4895,-4.4895,-4.4895,-4.4895,-4.4895,-4.4895,-4.4895,-4.4895,-4.4895,-4.4895,-4.4895,-4.4895,-4.4895,-4.571,-4.6619,-4.7538,-4.8414,-4.8958,-4.9117,-4.8277,-4.8602,-5.0264,-4.9519,-4.95,-5.0302,-5.0302,-5.0302,-5.0302,-5.0302,-5.0302,-2.939,-3.0132,0.0,0.0,0.0,0.0,0.0,0.0,0.0,0.0,0.0,0.0,0.0,0.0,0.0,-3.0274,-3.0172,-3.0087,-3.0087,-3.0182,-3.0418,-3.0747,-3.1004,-3.1334,-3.1763,-3.18,-3.18,-3.18,-3.202,-3.2197,-3.2283,-3.2813,-3.3166,-3.339,-3.3671,-3.3902,-3.4074,-3.4099,-3.4124,-3.4173,-3.3956,-3.3417,-3.2637,-3.2878,-3.299,-3.3027,-3.3844,-3.4197,-3.4197,-3.4197,-3.4197,-3.4234,-3.4476,-3.5107,-3.5943,-3.676,-3.7559,-3.8339,-3.8897,-3.9137,-3.9245,-3.9452,-3.9502,-3.9532,-3.966,-3.966,-3.9566,-3.9483,-3.9623,-3.9739,-3.9599,-4.0094,-4.0628,-4.0628,-4.1749,-4.2791,-4.2791,-4.391,-4.4895,-4.4895,-4.4895,-4.4895,-4.4895,-4.4895,-4.4895,-4.4895,-4.4895,-4.4895,-4.4895,-4.4895,-4.4895,-4.4895,-4.4895,-4.4895,-4.4895,-4.6271,-4.7257,-4.7581,-4.8977,-4.9868,-4.9939,-4.971,-4.9786,-5.0283,-5.0073,-5.0054,-5.0302,-5.0302,-5.0302,-5.0302,-5.0302,-5.0302,-2.9782,0.0,0.0,0.0,0.0,0.0,0.0,0.0,0.0,0.0,0.0,0.0,0.0,-3.0359,0.0,-3.0274,-3.0146,-3.0146,-3.03,-3.0368,-3.0559,-3.1067,-3.1317,-3.1562,-3.1893,-3.1965,-3.1984,-3.1984,-3.2283,-3.2504,-3.2651,-3.3166,-3.3386,-3.3213,-3.3442,-3.3445,-3.3202,-3.3499,-3.3523,-3.325,-3.3881,-3.377,-3.3008,-3.3324,-3.3473,-3.3491,-3.3993,-3.4197,-3.4197,-3.4316,-3.4293,-3.4221,-3.4409,-3.4909,-3.5615,-3.6497,-3.7266,-3.8024,-3.8822,-3.9183,-3.9298,-3.9537,-3.9632,-3.966,-3.988,-3.9901,-3.9797,-3.9702,-3.9813,-3.9941,-3.9794,-3.9876,-3.9977,-3.9911,-4.0953,-4.2014,-4.2337,-4.3474,-4.4516,-4.4838,-4.4895,-4.4895,-4.4895,-4.4895,-4.4895,-4.4895,-4.4895,-4.4895,-4.4895,-4.4895,-4.4895,-4.4895,-4.5217,-4.5426,-4.5456,-4.7017,-4.806,-4.8157,-4.9444,-5.0231,-5.0302,-5.0302,-5.0302,-5.0302,-5.0302,-5.0302,-5.0302,-5.0302,-5.0302,-5.0302,-5.0302,-5.0302,-3.0468,0.0,0.0,0.0,0.0,0.0,0.0,0.0,0.0,0.0,0.0,0.0,-3.0526,-3.0443,-3.0417,-3.0417,-3.0316,-3.0384,-3.0764,-3.0649,-3.0778,-3.1528,-3.1519,-3.1595,-3.2004,-3.2057,-3.2142,-3.2229,-3.2497,-3.2769,-3.3105,-3.332,-3.3248,-3.2802,-3.2784,-3.2479,-3.1801,-3.2525,-3.2507,-3.1819,-3.3292,-3.3626,-3.2976,-3.3831,-3.4221,-3.4245,-3.4269,-3.425,-3.4274,-3.4539,-3.4476,-3.4316,-3.4713,-3.512,-3.5559,-3.6541,-3.7293,-3.792,-3.8738,-3.9197,-3.9508,-3.9705,-3.9775,-3.9838,-4.012,-4.0062,-3.9922,-3.9922,-4.0024,-4.0119,-4.01,-4.0101,-4.008,-3.9914,-4.0574,-4.1427,-4.2242,-4.3076,-4.3947,-4.4743,-4.4895,-4.4895,-4.4895,-4.4895,-4.4895,-4.4895,-4.4895,-4.4895,-4.4895,-4.4895,-4.4933,-4.5009,-4.5729,-4.6271,-4.6396,-4.7903,-4.8865,-4.8986,-4.9773,-5.0255,-5.0302,-5.0302,-5.0302,-5.0302,-5.0302,-5.0302,-5.0302,-5.0302,-5.0302,-5.0302,-5.0302,-5.0302,0.0,0.0,0.0,0.0,0.0,0.0,0.0,0.0,0.0,0.0,0.0,0.0,-3.0526,-3.0485,-3.0485,-3.0485,-3.0675,-3.0861,-3.0925,-3.0768,-3.0967,-3.1752,-3.0942,-3.0623,-3.1322,-3.0863,-3.0821,-3.1597,-3.1977,-3.2245,-3.2474,-3.2842,-3.2711,-3.1987,-3.1997,-3.1968,-3.1782,-3.1968,-3.1968,-3.1801,-3.2313,-3.2601,-3.2732,-3.3729,-3.4316,-3.4517,-3.4691,-3.4752,-3.4752,-3.4812,-3.4792,-3.4772,-3.4851,-3.4945,-3.5129,-3.5983,-3.6685,-3.7323,-3.8103,-3.8738,-3.9219,-3.9483,-3.9561,-3.9632,-4.0081,-4.0157,-4.0138,-4.0138,-4.0266,-4.0353,-4.0004,-4.0022,-4.008,-3.9914,-4.0574,-4.1427,-4.2242,-4.3076,-4.3947,-4.4743,-4.4895,-4.4895,-4.4895,-4.4895,-4.4895,-4.4895,-4.4895,-4.4895,-4.4895,-4.4895,-4.516,-4.5843,-4.6139,-4.6524,-4.7194,-4.83,-4.8962,-4.8986,-4.9797,-5.0278,-5.0302,-5.0302,-5.0302,-5.0302,-5.0302,-5.0302,-5.0302,-5.0302,-5.0302,-5.0302,-5.0302,-5.0302,0.0,0.0,0.0,0.0,0.0,0.0,0.0,0.0,0.0,0.0,0.0,-3.0526,-3.0526,-3.0526,-3.0551,-3.074,-3.0925,-3.1065,-3.1067,-3.0923,-3.089,-3.1095,-3.0527,-3.0307,-3.073,-3.0548,-3.0594,-3.1136,-3.1546,-3.1808,-3.1931,-3.2207,-3.1997,-3.1199,-3.1206,-3.1021,-3.0652,-3.1043,-3.1043,-3.0671,-3.1796,-3.2822,-3.3713,-3.4041,-3.4438,-3.4845,-3.4945,-3.4965,-3.4908,-3.5001,-3.5001,-3.4927,-3.5107,-3.5072,-3.5022,-3.5913,-3.6366,-3.6745,-3.7812,-3.8403,-3.8756,-3.9321,-3.9502,-3.958,-4.0061,-4.0212,-4.0264,-4.0348,-4.045,-4.045,-4.0247,-4.0139,-4.0081,-4.0,-4.0599,-4.1427,-4.2242,-4.3076,-4.3947,-4.4743,-4.4895,-4.4895,-4.4895,-4.4895,-4.4895,-4.4895,-4.4895,-4.4895,-4.4895,-4.4895,-4.5236,-4.6108,-4.6594,-4.7238,-4.8099,-4.9034,-4.9601,-4.9625,-5.0049,-5.0302,-5.0302,-5.0302,-5.0302,-5.0302,-5.0302,-5.0302,-5.0302,-5.0302,-5.0302,-5.0302,-5.0302,-5.0302,0.0,0.0,0.0,0.0,0.0,0.0,0.0,0.0,0.0,0.0,-3.0526,-3.0526,-3.0526,-3.0526,-3.0634,-3.1044,-3.1043,-3.1025,-3.1094,-3.0832,-3.055,-3.0344,-3.0105,-3.0016,-3.0171,-3.0317,-3.0505,-3.0686,-3.1064,-3.1299,-3.1347,-3.151,-3.1206,-3.0429,-3.0392,-3.0076,-2.9407,-3.0076,-3.0076,-2.9425,-3.12,-3.2789,-3.4125,-3.4317,-3.466,-3.5059,-3.5152,-3.5114,-3.5019,-3.5174,-3.5141,-3.5037,-3.5369,-3.5308,-3.5095,-3.594,-3.6194,-3.631,-3.7457,-3.7906,-3.8121,-3.8964,-3.9227,-3.932,-3.9903,-4.0139,-4.0247,-4.0481,-4.0526,-4.0511,-4.0511,-4.0317,-4.0139,-4.0101,-4.0665,-4.1389,-4.2052,-4.2867,-4.372,-4.4535,-4.4819,-4.4895,-4.4895,-4.4895,-4.4895,-4.4895,-4.4895,-4.4895,-4.4895,-4.5028,-4.5445,-4.6316,-4.7207,-4.8118,-4.9042,-4.9782,-5.0255,-5.0302,-5.0302,-5.0302,-5.0302,-5.0302,-5.0302,-5.0302,-5.0302,-5.0302,-5.0302,-5.0302,-5.0302,-5.0302,-5.0302,-5.0302,0.0,0.0,0.0,0.0,0.0,0.0,0.0,0.0,0.0,0.0,-3.0526,-3.0526,-3.0526,-3.0526,-3.0634,-3.1044,-3.0813,-3.0697,-3.1058,-3.0238,-2.9816,-3.038,-2.9276,-2.8826,-2.9683,-2.9188,-2.9243,-3.0283,-3.0428,-3.0522,-3.0698,-3.0761,-3.0392,-2.9593,-2.9574,-2.9518,-2.9407,-2.9518,-2.9518,-2.9407,-2.9682,-3.0235,-3.1111,-3.3999,-3.5177,-3.4947,-3.5307,-3.5427,-3.5417,-3.5446,-3.5446,-3.5432,-3.5479,-3.5479,-3.5436,-3.558,-3.5937,-3.6347,-3.6386,-3.6707,-3.7253,-3.7914,-3.8096,-3.8305,-3.9301,-3.9683,-3.9861,-4.0229,-4.0415,-4.0511,-4.0511,-4.0383,-4.0248,-4.0139,-4.0665,-4.1237,-4.1351,-4.2014,-4.2829,-4.3682,-4.4421,-4.4895,-4.4895,-4.4895,-4.4895,-4.4895,-4.4895,-4.4895,-4.4895,-4.5558,-4.6335,-4.715,-4.8131,-4.9061,-4.9879,-5.0155,-5.0302,-5.0302,-5.0302,-5.0302,-5.0302,-5.0302,-5.0302,-5.0302,-5.0302,-5.0302,-5.0302,-5.0302,-5.0302,-5.0302,-5.0302,-5.0302,0.0,0.0,0.0,0.0,0.0,0.0,0.0,0.0,0.0,0.0,-3.0658,-3.0861,-3.0861,-3.0861,-3.1044,-3.1677,-3.1618,-3.148,-3.1423,-3.0635,-2.9993,-2.9886,-2.8905,-2.8434,-2.8971,-2.8793,-2.8937,-2.9563,-2.9736,-2.9842,-2.9906,-2.9946,-2.9779,-2.9407,-2.9407,-2.9407,-2.9407,-2.9471,-2.9476,-2.9408,-2.9393,-2.9746,-3.0451,-3.1968,-3.2551,-3.2436,-3.3557,-3.4039,-3.4083,-3.4564,-3.4776,-3.4814,-3.5315,-3.5493,-3.5493,-3.5493,-3.5662,-3.5937,-3.6174,-3.6367,-3.6594,-3.721,-3.7634,-3.8029,-3.8737,-3.9297,-3.9775,-4.0195,-4.0285,-4.0266,-4.0266,-4.0177,-4.0041,-4.0,-4.0239,-4.0612,-4.1105,-4.2223,-4.3379,-4.4213,-4.4668,-4.4895,-4.4895,-4.4895,-4.4895,-4.4895,-4.4895,-4.5085,-4.5558,-4.5956,-4.6695,-4.7984,-4.8587,-4.9232,-5.0032,-5.0231,-5.0302,-5.0302,-5.0302,-5.0302,-5.0302,-5.0302,-5.0302,-5.0302,-5.0302,-5.0302,-5.0302,-5.0302,-5.0302,-5.0302,-5.0302,-5.0302,0.0,0.0,0.0,0.0,0.0,0.0,0.0,0.0,0.0,0.0,-3.0885,-3.1162,-3.1376,-3.13,-3.149,-3.2179,-3.2142,-3.1927,-3.1747,-3.1011,-3.0315,-2.9744,-2.8994,-2.8604,-2.8869,-2.8828,-2.891,-2.9175,-2.9323,-2.9407,-2.9407,-2.9407,-2.9407,-2.9407,-2.9407,-2.9427,-2.9451,-2.9608,-2.9628,-2.9527,-2.9608,-2.9907,-3.0393,-3.0393,-3.04,-3.0465,-3.1712,-3.2263,-3.2378,-3.366,-3.4199,-3.4276,-3.5161,-3.5493,-3.5493,-3.5493,-3.5493,-3.5556,-3.5949,-3.5968,-3.5891,-3.6509,-3.6963,-3.7434,-3.8174,-3.8841,-3.9463,-4.0043,-4.0158,-4.0101,-4.0158,-4.006,-3.9956,-3.9956,-3.9914,-4.0173,-4.1275,-4.2659,-4.3947,-4.4743,-4.4895,-4.4895,-4.4895,-4.4895,-4.4895,-4.4895,-4.4895,-4.5217,-4.6089,-4.6373,-4.7055,-4.8534,-4.9005,-4.9461,-5.0051,-5.0231,-5.0302,-5.0302,-5.0302,-5.0302,-5.0302,-5.0302,-5.0302,-5.0302,-5.0302,-5.0302,-5.0302,-5.0302,-5.0302,-5.0302,-5.0302,-5.0302,0.0,0.0,0.0,0.0,0.0,0.0,0.0,0.0,0.0,0.0,-3.1083,-3.1338,-3.2091,-3.1913,-3.1787,-3.2249,-3.1668,-3.1276,-3.1658,-3.1011,-3.0493,-3.0457,-2.9797,-2.9502,-2.9882,-2.9247,-2.8957,-2.9347,-2.9386,-2.9407,-2.9407,-2.9407,-2.9407,-2.9407,-2.9407,-2.9451,-2.9589,-2.9786,-2.987,-2.9884,-3.0204,-3.0381,-3.0398,-3.0398,-3.0398,-3.0398,-3.0489,-3.0535,-3.0721,-3.3186,-3.4199,-3.4276,-3.5161,-3.5493,-3.5493,-3.5493,-3.5493,-3.5479,-3.5315,-3.5129,-3.5059,-3.5663,-3.5754,-3.5957,-3.7617,-3.8227,-3.8583,-3.9629,-4.0002,-4.0139,-4.0266,-4.0194,-4.0081,-4.0081,-3.9979,-4.0344,-4.1996,-4.3057,-4.3947,-4.4743,-4.4895,-4.4895,-4.4895,-4.4895,-4.4895,-4.4895,-4.4895,-4.5217,-4.6089,-4.6866,-4.7681,-4.859,-4.9499,-5.0051,-5.0108,-5.0231,-5.0302,-5.0302,-5.0302,-5.0302,-5.0302,-5.0302,-5.0302,-5.0302,-5.0302,-5.0302,-5.0302,-5.0302,-5.0302,-5.0302,-5.0302,-5.0302,0.0,0.0,0.0,0.0,0.0,0.0,0.0,0.0,0.0,-3.1004,-3.13,-3.164,-3.2197,-3.2162,-3.2214,-3.2639,-3.2456,-3.2311,-3.2456,-3.1778,-3.126,-3.126,-3.0729,-3.0261,-3.0017,-2.9862,-2.9664,-2.9423,-2.9407,-2.9407,-2.9407,-2.9407,-2.9407,-2.9407,-2.9472,-2.9662,-2.9912,-2.9973,-3.0089,-3.0222,-3.0337,-3.04,-3.0398,-3.0398,-3.0398,-3.0398,-3.0398,-3.0405,-3.0508,-3.1994,-3.2891,-3.3449,-3.4334,-3.5007,-3.5493,-3.5493,-3.5493,-3.5479,-3.5258,-3.5072,-3.4907,-3.4986,-3.525,-3.564,-3.64,-3.7394,-3.8409,-3.898,-3.9539,-3.9998,-4.004,-4.0,-3.9977,-3.9977,-4.077,-4.1673,-4.228,-4.3493,-4.4554,-4.4838,-4.4895,-4.4895,-4.4895,-4.4895,-4.4895,-4.4895,-4.4895,-4.5407,-4.679,-4.7226,-4.7927,-4.9311,-4.9808,-5.0057,-5.0108,-5.0163,-5.0236,-5.0302,-5.0302,-5.0302,-5.0302,-5.0302,-5.0302,-5.0302,-5.0302,-5.0302,-5.0302,-5.0302,-5.0302,-5.0302,-5.0302,-5.0302,-3.0526,0.0,0.0,0.0,0.0,0.0,0.0,0.0,-3.1041,-3.1557,-3.1905,-3.2171,-3.2439,-3.2488,-3.2606,-3.2852,-3.2916,-3.2916,-3.2916,-3.242,-3.213,-3.2204,-3.1654,-3.1193,-3.0921,-3.0546,-3.0157,-2.9832,-2.9556,0.0,-2.9407,-2.9407,-2.9409,-2.9471,-2.9662,-2.9864,-3.0109,-3.0169,-3.0267,-3.0398,-3.0398,-3.0398,-3.0398,-3.0398,-3.0398,-3.0398,-3.0398,-3.0398,-3.0456,-3.1352,-3.2006,-3.2602,-3.3737,-3.4545,-3.5103,-3.5391,-3.5465,-3.5369,-3.5242,-3.5037,-3.4791,-3.4647,-3.4801,-3.5194,-3.6002,-3.7009,-3.807,-3.888,-3.9494,-3.9889,-3.9889,-3.9889,-3.9889,-3.9889,-4.1181,-4.2412,-4.2412,-4.372,-4.4895,-4.4895,-4.4895,-4.4895,-4.4895,-4.4895,-4.4895,-4.4895,-4.4895,-4.5407,-4.6809,-4.7226,-4.7953,-4.9402,-4.9834,-5.0057,-5.0133,-5.0207,-5.0255,-5.0302,-5.0302,-5.0302,-5.0302,-5.0302,-5.0302,-5.0302,-5.0302,-5.0302,-5.0302,-5.0302,-5.0302,-5.0302,-5.0302,-5.0302,0.0,0.0,0.0,0.0,0.0,0.0,0.0,0.0,-3.1825,-3.2608,-3.2762,-3.2782,-3.2879,-3.2916,-3.2916,-3.2916,-3.2916,-3.2916,-3.2916,-3.2916,-3.2961,-3.319,-3.2582,-3.2282,-3.2647,-3.128,-3.0434,-3.0593,-2.989,-2.9444,-2.9407,-2.9407,-2.9471,-2.9608,-2.9927,-3.0089,-3.0109,-3.0299,-3.0398,-3.0398,-3.0398,-3.0398,-3.0398,-3.0398,-3.0398,-3.0398,-3.0398,-3.0398,-3.0456,-3.1314,-3.1679,-3.1852,-3.3526,-3.418,-3.4295,-3.5166,-3.5369,-3.5209,-3.5193,-3.4927,-3.4602,-3.4602,-3.4409,-3.4567,-3.6471,-3.7088,-3.7491,-3.9334,-3.987,-3.9889,-3.9889,-3.9889,-3.9889,-3.9889,-4.1181,-4.2412,-4.2412,-4.372,-4.4895,-4.4895,-4.4895,-4.4895,-4.4895,-4.4895,-4.4895,-4.4895,-4.4895,-4.5217,-4.6089,-4.6885,-4.7707,-4.8656,-4.9543,-5.0095,-5.0169,-5.0236,-5.0302,-5.0302,-5.0302,-5.0302,-5.0302,-5.0302,-5.0302,-5.0302,-5.0302,-5.0302,-5.0302,-5.0302,-5.0302,-5.0302,-5.0302,-5.0302,-3.0526,0.0,0.0,0.0,0.0,0.0,0.0,0.0,0.0,-3.1836,-3.1987,-3.2175,-3.2805,-3.2916,-3.2916,-3.2916,-3.2916,-3.2916,-3.2916,-3.2916,-3.2961,-3.319,-3.3187,-3.3068,-3.2728,-3.2416,-3.1793,0.0,-3.0392,-3.002,-2.9444,-2.9492,-2.9626,-2.982,-3.0007,-3.0182,-3.0311,-3.0367,-3.0398,-3.0398,-3.0398,-3.0398,-3.0398,-3.0398,-3.0398,-3.0398,-3.0398,-3.0398,-3.0417,-3.066,-3.1141,-3.1795,-3.2852,-3.3641,-3.4282,-3.5013,-3.5242,-3.5157,-3.487,-3.4689,-3.4561,-3.4363,-3.4269,-3.445,-3.5758,-3.6596,-3.7378,-3.8674,-3.9456,-3.9889,-3.9889,-3.9889,-3.9889,-3.9889,-4.1181,-4.2412,-4.2412,-4.372,-4.4895,-4.4895,-4.4895,-4.4895,-4.4895,-4.4895,-4.4895,-4.4895,-4.4895,-4.5217,-4.6089,-4.6392,-4.6872,-4.7764,-4.8644,-4.9207,-4.9306,-4.9887,-5.0255,-5.0302,-5.0302,-5.0302,-5.0302,-5.0302,-5.0302,-5.0302,-5.0302,-5.0302,-5.0302,-5.0302,-5.0302,-5.0302,-5.0302,-5.0302,-3.0526,-3.0526,0.0,0.0,0.0,0.0,-3.1099,-3.1208,0.0,0.0,-3.1896,-3.2109,-3.277,-3.2616,-3.2616,-3.3277,-3.3098,-3.2916,-3.2916,-3.2916,-3.3042,-3.3327,-3.3502,-3.3515,-3.3352,-3.3123,-3.26,-3.1652,-3.0965,-3.0262,-2.9444,-2.9608,-2.9786,-2.9902,-3.0114,-3.0267,-3.0398,-3.0398,-3.0398,-3.0398,-3.0398,-3.0398,-3.0398,-3.0398,-3.0398,-3.0398,-3.0398,-3.0398,-3.0398,-3.0398,-3.0698,-3.1237,-3.2064,-3.2852,-3.3623,-3.4381,-3.4785,-3.4927,-3.4689,-3.4517,-3.4404,-3.4245,-3.4197,-3.4468,-3.5908,-3.669,-3.7397,-3.8785,-3.9551,-3.9889,-3.9889,-3.9889,-3.9889,-3.9889,-4.1181,-4.2412,-4.2412,-4.372,-4.4895,-4.4895,-4.4895,-4.4895,-4.4895,-4.4895,-4.4895,-4.4895,-4.4895,-4.5085,-4.5596,-4.6259,-4.6935,-4.749,-4.8631,-4.927,-4.9048,-4.9472,-4.9587,-4.9289,-4.927,-4.927,-4.927,-4.927,-4.927,-4.927,-4.927,-4.9442,-4.9805,-5.0149,-5.0302,-5.0302,-5.0302,-5.0302,-3.0543,-3.0526,-3.0526,-3.0526,-3.0526,0.0,-3.1782,-3.2039,-3.2077,0.0,-3.2179,-3.2351,-3.2802,-3.2313,-3.2295,-3.374,-3.3437,-3.2991,-3.2902,-3.2916,-3.3055,-3.353,-3.3605,-3.3753,-3.4173,-3.3547,-3.3101,-3.3008,-3.1526,-3.0299,-2.9574,-2.9774,-2.9902,-2.9902,-3.0234,-3.041,-3.041,-3.041,-3.0398,-3.0398,-3.0398,-3.0398,-3.0398,-3.0398,-3.0398,-3.0398,-3.0386,-3.0367,-3.0398,-3.0386,-3.0367,-3.0444,-3.1328,-3.1985,-3.2546,-3.35,-3.4093,-3.447,-3.4524,-3.4386,-3.4197,-3.4197,-3.4197,-3.4567,-3.6508,-3.7107,-3.7491,-3.9372,-3.9889,-3.9889,-3.9889,-3.9889,-3.9889,-3.9889,-4.1181,-4.2412,-4.2412,-4.372,-4.4895,-4.4895,-4.4895,-4.4895,-4.4895,-4.4895,-4.4895,-4.4895,-4.4895,-4.4895,-4.4895,-4.6203,-4.7226,-4.7467,-4.8895,-4.9586,-4.9022,-4.9041,-4.8735,-4.7876,-4.7799,-4.7799,-4.7799,-4.7799,-4.7799,-4.7799,-4.7799,-4.8239,-4.9098,-4.9901,-5.0302,-5.0302,-5.0302,-5.0302,-3.0675,-3.0526,-3.0526,-3.0526,-3.0526,0.0,-3.0775,-3.1063,-3.1409,0.0,-3.2056,-3.242,-3.2802,-3.2759,-3.2759,-3.3062,-3.3544,-3.3633,-3.2973,-3.2916,-3.3055,-3.353,-3.3605,-3.3753,-3.4173,-3.4048,-3.3696,-3.3045,-3.1526,-3.0541,-3.0373,-3.0075,-2.9899,-2.9896,-3.0228,-3.0402,-3.0406,-3.0402,-3.0398,-3.0398,-3.0398,-3.0398,-3.0398,-3.0398,-3.0398,-3.0398,-3.0241,-3.0254,-3.0398,-3.0228,-3.0169,-3.0245,-3.112,-3.142,-3.1566,-3.2921,-3.3482,-3.3623,-3.4097,-3.4245,-3.4197,-3.4197,-3.4197,-3.4567,-3.6508,-3.7107,-3.7491,-3.9372,-3.9889,-3.9889,-3.9889,-3.9889,-3.9889,-3.9889,-4.1181,-4.2412,-4.2412,-4.372,-4.4895,-4.4895,-4.4895,-4.4895,-4.4895,-4.4895,-4.4895,-4.4895,-4.4895,-4.4919,-4.4967,-4.5271,-4.5775,-4.6637,-4.759,-4.8128,-4.8067,-4.8697,-4.8735,-4.7876,-4.7799,-4.7799,-4.7799,-4.7799,-4.7799,-4.7799,-4.7799,-4.8239,-4.9098,-4.9901,-5.0302,-5.0302,-5.0302,-5.0302,-3.0725,-3.0526,-3.0526,-3.0526,-3.0675,0.0,0.0,-3.1414,-3.1562,-3.1182,-3.159,-3.2054,-3.2246,-3.2295,-3.2545,-3.3366,-3.3491,-3.3348,-3.2969,-3.3544,-3.4157,-3.4552,-3.432,-3.4265,-3.4607,-3.4389,-3.3863,-3.3045,-3.2247,-3.1452,-3.0652,-3.0527,-3.03,-2.9912,-3.0228,-3.0402,-3.0398,-3.0402,-3.0398,-3.0398,-3.0398,-3.0398,-3.0398,-3.0398,-3.0355,-3.0241,-3.0136,-3.0128,-3.0147,-3.0056,-2.9946,-2.9902,-3.0509,-3.1102,-3.1695,-3.2445,-3.3147,-3.3807,-3.4096,-3.4197,-3.4197,-3.4197,-3.4245,-3.4657,-3.6531,-3.7759,-3.8701,-3.964,-3.9889,-3.9889,-3.9889,-3.9889,-3.9889,-3.9889,-4.1181,-4.2412,-4.2412,-4.372,-4.4895,-4.4895,-4.4895,-4.4895,-4.4895,-4.4895,-4.4895,-4.4895,-4.4919,-4.4943,-4.501,-4.5394,-4.5902,-4.645,-4.7213,-4.756,-4.7188,-4.7551,-4.7455,-4.6615,-4.6557,-4.6557,-4.6557,-4.6557,-4.6557,-4.6557,-4.7379,-4.8028,-4.8449,-4.971,-5.0302,-5.0302,-5.0302,-5.0302,-3.0543,-3.0311,-3.0344,-3.0435,-3.064,-3.0915,0.0,0.0,0.0,-3.1022,-3.1413,0.0,0.0,0.0,0.0,0.0,0.0,0.0,0.0,-3.4363,0.0,-3.5435,-3.5066,-3.4952,-3.5376,-3.4969,-3.4346,-3.3528,-3.3324,-3.2623,-3.1176,-3.1073,-3.0779,-3.0209,-3.0291,-3.0359,-3.0428,-3.0402,-3.0398,-3.0398,-3.0398,-3.0398,-3.0398,-3.0398,-3.0299,-3.0109,-3.008,-2.9992,-2.9902,-2.9853,-2.9751,-2.9644,-2.9896,-3.065,-3.1592,-3.1742,-3.2627,-3.3751,-3.3918,-3.4067,-3.4197,-3.4197,-3.454,-3.5202,-3.669,-3.8433,-3.9889,-3.9889,-3.9889,-3.9889,-3.9889,-3.9889,-3.9889,-3.9889,-4.1181,-4.2412,-4.2412,-4.372,-4.4895,-4.4895,-4.4895,-4.4895,-4.4895,-4.4895,-4.4895,-4.4895,-4.4962,-4.4991,-4.5033,-4.5688,-4.623,-4.645,-4.7083,-4.7198,-4.6577,-4.65,-4.6156,-4.5354,-4.5297,-4.5297,-4.5297,-4.5297,-4.5297,-4.5297,-4.6634,-4.7398,-4.7551,-4.9079,-4.9977,-5.0302,-5.0302,-5.0225,-2.9914,-2.9533,-2.9698,-3.0361,-3.0054,-2.9859,-3.0931,0.0,-3.1825,-3.2055,0.0,0.0,0.0,0.0,0.0,0.0,0.0,0.0,-3.3972,-3.4885,-3.5381,-3.4932,-3.4981,-3.544,-3.6411,-3.6463,-3.6073,-3.5274,-3.4494,-3.3706,-3.2966,-3.1575,-3.0957,-3.1226,-3.0524,-3.0248,-3.0499,-3.0433,-3.0398,-3.0398,-3.0398,-3.0398,-3.0398,-3.0398,-3.0299,-3.0075,-2.9962,-2.9918,-2.9886,-2.9716,-2.9626,-2.9608,-2.9644,-2.9663,-2.9781,-3.0506,-3.1303,-3.2154,-3.2878,-3.3603,-3.4197,-3.4197,-3.5376,-3.6863,-3.7181,-3.8518,-3.9889,-3.9889,-3.9889,-3.9889,-3.9889,-3.9889,-3.9889,-3.9889,-4.1181,-4.2412,-4.2412,-4.372,-4.4895,-4.4895,-4.4895,-4.4895,-4.4895,-4.4895,-4.4895,-4.4895,-4.4895,-4.4943,-4.5061,-4.5179,-4.5567,-4.6421,-4.6574,-4.6615,-4.6519,-4.65,-4.6156,-4.5354,-4.5297,-4.5297,-4.5297,-4.5297,-4.5297,-4.5297,-4.5488,-4.5927,-4.6653,-4.7608,-4.885,-5.0302,-5.0302,-4.992,-3.0311,-2.9909,-2.9917,-3.0677,-3.0607,-3.064,-3.1578,-3.2127,-3.2313,-3.2004,0.0,0.0,0.0,0.0,0.0,0.0,-3.3169,0.0,0.0,0.0,-3.4641,0.0,0.0,0.0,-3.5943,-3.6426,-3.6556,-3.6203,-3.546,-3.4694,-3.3938,-3.252,-3.1596,-3.1286,-3.0595,-3.0292,-3.0444,-3.0414,-3.0394,-3.0394,-3.0279,-3.0228,-3.0209,-3.0147,-3.0011,-2.9817,-2.975,-2.9681,-2.9608,-2.9512,-2.9472,-2.9472,-2.9472,-2.9729,-3.015,-3.0485,-3.1392,-3.2525,-3.2878,-3.3528,-3.4221,-3.4363,-3.5642,-3.713,-3.7305,-3.8542,-3.9889,-3.9889,-3.9889,-3.9889,-3.9889,-3.9889,-3.9889,-3.9889,-4.1181,-4.2412,-4.2412,-4.372,-4.4895,-4.4895,-4.4895,-4.4895,-4.4895,-4.4895,-4.4895,-4.4895,-4.4919,-4.4991,-4.5103,-4.5148,-4.5325,-4.5774,-4.5793,-4.5793,-4.5793,-4.5878,-4.5765,-4.5457,-4.5491,-4.5455,-4.5317,-4.5437,-4.5509,-4.5419,-4.5991,-4.6698,-4.7563,-4.8373,-4.9412,-5.0587,-5.0399,-5.0229,-3.0482,-3.0057,-2.9964,-3.1117,-3.1099,-3.108,-3.2056,-3.2362,-3.2343,-3.2081,-3.2313,0.0,0.0,0.0,-3.2916,-3.2916,0.0,-3.2916,0.0,-3.3068,0.0,0.0,0.0,0.0,0.0,-3.6352,-3.6731,-3.6738,-3.6211,-3.56,-3.4892,-3.3652,-3.2524,-3.1616,-3.0916,-3.049,-3.0343,-3.0348,-3.0348,-3.0328,-3.015,-3.008,-3.008,-2.9946,-2.9803,-2.9608,-2.9608,-2.9513,-2.9407,-2.9407,-2.9407,-2.9407,-2.9407,-2.976,-3.0281,-3.0281,-3.1281,-3.2655,-3.2655,-3.3366,-3.4293,-3.4517,-3.5772,-3.7194,-3.7349,-3.8565,-3.9889,-3.9889,-3.9889,-3.9889,-3.9889,-3.9889,-3.9889,-3.9889,-4.1181,-4.2412,-4.2412,-4.372,-4.4895,-4.4895,-4.4895,-4.4895,-4.4895,-4.4895,-4.4895,-4.4895,-4.4943,-4.4991,-4.5103,-4.5154,-4.526,-4.5341,-4.5381,-4.54,-4.54,-4.549,-4.5555,-4.5555,-4.5645,-4.56,-4.5419,-4.5603,-4.566,-4.5555,-4.6283,-4.696,-4.7599,-4.8647,-4.9528,-5.0172,-5.0337,-5.0433,-2.9905,-2.9492,-2.9479,-3.1624,-3.1089,-3.0438,-3.1952,-3.1721,-3.1469,-3.2624,-3.2242,-3.1956,-3.2706,-3.2898,-3.2916,-3.2916,-3.2916,0.0,0.0,0.0,0.0,0.0,0.0,0.0,0.0,-3.6668,-3.6763,0.0,-3.6752,-3.6453,-3.5975,-3.4914,-3.3801,-3.2594,-3.1659,-3.0852,-3.0215,-3.0213,-3.0218,-3.0199,-3.0075,-3.0007,-2.9992,-2.9934,-2.9803,-2.9608,-2.9608,-2.9513,-2.9407,-2.9407,-2.9407,-2.9407,-2.9407,-2.9425,-2.9444,-2.9444,-3.0466,-3.1838,-3.1838,-3.297,-3.4427,-3.4561,-3.5816,-3.7322,-3.7389,-3.8565,-3.9889,-3.9889,-3.9889,-3.9889,-3.9889,-3.9889,-3.9889,-3.9889,-4.1181,-4.2412,-4.2412,-4.372,-4.4895,-4.4895,-4.4895,-4.4895,-4.4895,-4.4895,-4.4895,-4.4895,-4.4895,-4.4943,-4.508,-4.5222,-4.5361,-4.5472,-4.5619,-4.5689,-4.5689,-4.5703,-4.5703,-4.5703,-4.5703,-4.5703,-4.5689,-4.5703,-4.5703,-4.5703,-4.5722,-4.5761,-4.578,-4.7502,-4.8418,-4.8619,-5.0076,-5.0267,-2.9591,-2.9248,-2.9383,-3.1686,-3.1307,-3.0876,-3.3011,-3.2474,-3.1777,-3.2723,-3.2242,-3.1938,-3.2741,-3.2916,-3.2916,-3.2916,-3.2916,-3.2916,0.0,0.0,0.0,0.0,0.0,0.0,0.0,0.0,0.0,-3.7673,-3.7742,0.0,-3.6823,-3.5486,-3.4301,-3.3351,-3.2034,-3.1222,-3.0996,-3.048,-3.0188,-3.0207,-2.9969,-2.9888,-2.9937,-2.9681,-2.9551,-2.9532,-2.9491,-2.945,-2.9407,-2.9407,-2.9407,-2.9407,-2.9407,-2.9407,-2.9407,-2.9407,-3.0429,-3.1953,-3.3123,-3.3846,-3.4316,-3.4645,-3.5461,-3.644,-3.7179,-3.8186,-3.921,-3.9759,-3.9889,-3.9889,-3.9889,-3.9889,-3.9889,-3.9889,-4.0783,-4.1616,-4.1616,-4.2924,-4.4118,-4.4118,-4.4118,-4.427,-4.4819,-4.4507,-4.436,-4.4891,-4.4986,-4.5042,-4.5283,-4.5343,-4.5433,-4.5615,-4.5675,-4.5703,-4.5703,-4.5815,-4.5902,-4.5902,-4.5978,-4.5928,-4.5717,-4.5917,-4.5998,-4.5902,-4.5998,-4.66,-4.7748,-4.8341,-4.9216,-5.0363,-5.0889,-5.0945,-2.9532,-2.9216,-2.9288,-3.132,-3.1062,-3.084,-3.2798,-3.2224,-3.1492,-3.2295,-3.2045,-3.176,-3.1992,-3.2491,-3.2827,-3.2509,-3.2719,-3.293,0.0,-3.3978,0.0,0.0,0.0,0.0,0.0,0.0,-3.7542,-3.8122,-3.8233,0.0,0.0,-3.6457,-3.5097,-3.3733,-3.2454,-3.1461,-3.0871,-3.0342,-3.0085,-3.0085,-2.9888,-2.9825,-2.9806,-2.955,-2.945,-2.9451,-2.9409,-2.9407,-2.9407,-2.9407,-2.9407,-2.9407,-2.9407,-2.9407,-2.9407,-2.9407,-3.0429,-3.2046,-3.3803,-3.4363,-3.4386,-3.4687,-3.5315,-3.6071,-3.6763,-3.7769,-3.8793,-3.9323,-3.9683,-3.9889,-3.9889,-3.9889,-3.9889,-3.9889,-4.0574,-4.12,-4.12,-4.2526,-4.3701,-4.3701,-4.3929,-4.4289,-4.4825,-4.455,-4.4402,-4.4915,-4.5014,-4.5113,-4.5361,-4.5433,-4.5568,-4.579,-4.584,-4.5875,-4.5875,-4.5998,-4.6075,-4.6075,-4.6146,-4.6091,-4.5894,-4.6083,-4.6154,-4.6075,-4.6154,-4.6917,-4.8339,-4.8339,-4.904,-5.0404,-5.0404,-5.056]}]]